[[{"header":{"parameterUnit":"m.s-1","parameterCategory":1,"la1":30.6,"la2":28.766,"lo1":-90.7593,"lo2":-88.6598,"dy":0.0162,"dx":0.0183,"nx":116,"ny":114,"refTime":"2024-04-26T12:00:00:Z","depth":0,"parameterNumber":2,"parameterNumberName":"U-component_of_WINDS"},"data":[0.0,0.0,0.0,0.0,0.0,0.0,0.0,0.0,0.0,0.0,0.0,0.0,0.0,0.0,0.0,0.0,0.0,0.0,0.0,0.0,0.0,0.0,0.0,0.0,0.0,0.0,0.0,0.0,0.0,0.0,0.0,0.0,0.0,0.0,0.0,0.0,0.0,0.0,0.0,0.0,0.0,0.0,0.0,0.0,0.0,0.0,0.0,0.0,0.0,0.0,0.0,0.0,0.0,0.0,0.0,0.0,0.0,0.0,0.0,0.0,0.0,0.0,0.0,0.0,0.0,0.0,0.0,0.0,0.0,0.0,0.0,0.0,0.0,0.0,0.0,0.0,0.0,0.0,0.0,0.0,0.0,0.0,0.0,0.0,0.0,0.0,0.0,0.0,0.0,0.0,0.0,0.0,0.0,0.0,0.0,0.0,0.0,0.0,0.0,0.0,0.0,0.0,0.0,0.0,0.0,0.0,0.0,0.0,0.0,0.0,0.0,0.0,0.0,0.0,0.0,0.0,0.0,0.0,0.0,0.0,0.0,0.0,0.0,0.0,0.0,0.0,0.0,0.0,0.0,0.0,0.0,0.0,0.0,0.0,0.0,0.0,0.0,0.0,0.0,0.0,0.0,0.0,0.0,0.0,0.0,0.0,0.0,0.0,0.0,0.0,0.0,0.0,0.0,0.0,0.0,0.0,0.0,0.0,0.0,0.0,0.0,0.0,0.0,0.0,0.0,0.0,0.0,0.0,0.0,0.0,0.0,0.0,0.0,0.0,0.0,0.0,0.0,0.0,0.0,0.0,0.0,0.0,0.0,0.0,0.0,0.0,0.0,0.0,0.0,0.0,0.0,0.0,0.0,0.0,0.0,0.0,0.0,0.0,0.0,0.0,0.0,0.0,0.0,0.0,0.0,0.0,0.0,0.0,0.0,0.0,0.0,0.0,0.0,0.0,0.0,0.0,0.0,0.0,0.0,0.0,0.0,0.0,0.0,0.0,0.0,0.0,0.0,0.0,0.0,0.0,0.0,0.0,0.0,0.0,0.0,0.0,0.0,0.0,0.0,0.0,0.0,0.0,0.0,0.0,0.0,0.0,0.0,0.0,0.0,0.0,0.0,0.0,0.0,0.0,0.0,0.0,0.0,0.0,0.0,0.0,0.0,0.0,0.0,0.0,0.0,0.0,0.0,0.0,0.0,0.0,0.0,0.0,0.0,0.0,0.0,0.0,0.0,0.0,0.0,0.0,0.0,0.0,0.0,0.0,0.0,0.0,0.0,0.0,0.0,0.0,0.0,0.0,0.0,0.0,0.0,0.0,0.0,0.0,0.0,0.0,0.0,0.0,0.0,0.0,0.0,0.0,0.0,0.0,0.0,0.0,0.0,0.0,0.0,0.0,0.0,0.0,0.0,0.0,0.0,0.0,0.0,0.0,0.0,0.0,0.0,0.0,0.0,0.0,0.0,0.0,0.0,0.0,0.0,0.0,0.0,0.0,0.0,0.0,0.0,0.0,0.0,0.0,0.0,0.0,0.0,0.0,0.0,0.0,0.0,0.0,0.0,0.0,0.0,0.0,0.0,0.0,0.0,0.0,0.0,0.0,0.0,0.0,0.0,0.0,0.0,0.0,0.0,0.0,0.0,0.0,0.0,0.0,0.0,0.0,0.0,0.0,0.0,0.0,0.0,0.0,0.0,0.0,0.0,0.0,0.0,0.0,0.0,0.0,0.0,0.0,0.0,0.0,0.0,0.0,0.0,0.0,0.0,0.0,0.0,0.0,0.0,0.0,0.0,0.0,0.0,0.0,0.0,0.0,0.0,0.0,0.0,0.0,0.0,0.0,0.0,0.0,0.0,0.0,0.0,0.0,0.0,0.0,0.0,0.0,0.0,0.0,0.0,0.0,0.0,0.0,0.0,0.0,0.0,0.0,0.0,0.0,0.0,0.0,0.0,0.0,0.0,0.0,0.0,0.0,0.0,0.0,0.0,0.0,0.0,0.0,0.0,0.0,0.0,0.0,0.0,0.0,0.0,0.0,0.0,0.0,0.0,0.0,0.0,0.0,0.0,0.0,0.0,0.0,0.0,0.0,0.0,0.0,0.0,0.0,0.0,0.0,0.0,0.0,0.0,0.0,0.0,0.0,0.0,0.0,0.0,0.0,0.0,0.0,0.0,0.0,0.0,0.0,0.0,0.0,0.0,0.0,0.0,0.0,0.0,0.0,0.0,0.0,0.0,0.0,0.0,0.0,0.0,0.0,0.0,0.0,0.0,0.0,0.0,0.0,0.0,0.0,0.0,0.0,0.0,0.0,0.0,0.0,0.0,0.0,0.0,0.0,0.0,0.0,0.0,0.0,0.0,0.0,0.0,0.0,0.0,0.0,0.0,0.0,0.0,0.0,0.0,0.0,0.0,0.0,0.0,0.0,0.0,0.0,0.0,0.0,0.0,0.0,0.0,0.0,0.0,0.0,0.0,0.0,0.0,0.0,0.0,0.0,0.0,0.0,0.0,0.0,0.0,0.0,0.0,0.0,0.0,0.0,0.0,0.0,0.0,0.0,0.0,0.0,0.0,0.0,0.0,0.0,0.0,0.0,0.0,0.0,0.0,0.0,0.0,0.0,0.0,0.0,0.0,0.0,0.0,0.0,0.0,0.0,0.0,0.0,0.0,0.0,0.0,0.0,0.0,0.0,0.0,0.0,0.0,0.0,0.0,0.0,0.0,0.0,0.0,0.0,0.0,0.0,0.0,0.0,0.0,0.0,0.0,0.0,0.0,0.0,0.0,0.0,0.0,0.0,0.0,0.0,0.0,0.0,0.0,0.0,0.0,0.0,0.0,0.0,0.0,0.0,0.0,0.0,0.0,0.0,0.0,0.0,0.0,0.0,0.0,0.0,0.0,0.0,0.0,0.0,0.0,0.0,0.0,0.0,0.0,0.0,0.0,0.0,0.0,0.0,0.0,0.0,0.0,0.0,0.0,0.0,0.0,0.0,0.0,0.0,0.0,0.0,0.0,0.0,0.0,0.0,0.0,0.0,0.0,0.0,0.0,0.0,0.0,0.0,0.0,0.0,0.0,0.0,0.0,0.0,0.0,0.0,0.0,0.0,0.0,0.0,0.0,0.0,0.0,0.0,0.0,0.0,0.0,0.0,0.0,0.0,0.0,0.0,0.0,0.0,0.0,0.0,0.0,0.0,0.0,0.0,0.0,0.0,0.0,0.0,0.0,0.0,0.0,0.0,0.0,0.0,0.0,0.0,0.0,0.0,0.0,0.0,0.0,0.0,0.0,0.0,0.0,0.0,0.0,0.0,0.0,0.0,0.0,0.0,0.0,0.0,0.0,0.0,0.0,0.0,0.0,0.0,0.0,0.0,0.0,0.0,0.0,0.0,0.0,0.0,0.0,0.0,0.0,0.0,0.0,0.0,0.0,0.0,0.0,0.0,0.0,0.0,0.0,0.0,0.0,0.0,0.0,0.0,0.0,0.0,0.0,0.0,0.0,0.0,0.0,0.0,0.0,0.0,0.0,0.0,0.0,0.0,0.0,0.0,0.0,0.0,0.0,0.0,0.0,0.0,0.0,0.0,0.0,0.0,0.0,0.0,0.0,0.0,0.0,0.0,0.0,0.0,0.0,0.0,0.0,0.0,0.0,0.0,0.0,0.0,0.0,0.0,0.0,0.0,0.0,0.0,0.0,0.0,0.0,0.0,0.0,0.0,0.0,0.0,0.0,0.0,0.0,0.0,0.0,0.0,0.0,0.0,0.0,0.0,0.0,0.0,0.0,0.0,0.0,0.0,0.0,0.0,0.0,0.0,0.0,0.0,0.0,0.0,0.0,0.0,0.0,0.0,0.0,0.0,0.0,0.0,0.0,0.0,0.0,0.0,0.0,0.0,0.0,0.0,0.0,0.0,0.0,0.0,0.0,0.0,0.0,0.0,0.0,0.0,0.0,0.0,0.0,0.0,0.0,0.0,0.0,0.0,0.0,0.0,0.0,0.0,0.0,0.0,0.0,0.0,0.0,0.0,0.0,0.0,0.0,0.0,0.0,0.0,0.0,0.0,0.0,0.0,0.0,0.0,0.0,0.0,0.0,0.0,0.0,0.0,0.0,0.0,0.0,0.0,0.0,0.0,0.0,0.0,0.0,0.0,0.0,0.0,0.0,0.0,0.0,0.0,0.0,0.0,0.0,0.0,0.0,0.0,0.0,0.0,0.0,0.0,0.0,0.0,0.0,0.0,0.0,0.0,0.0,0.0,0.0,0.0,0.0,0.0,0.0,0.0,0.0,0.0,0.0,0.0,0.0,0.0,0.0,0.0,0.0,0.0,0.0,0.0,0.0,0.0,0.0,0.0,0.0,0.0,0.0,0.0,0.0,0.0,0.0,0.0,0.0,0.0,0.0,0.0,0.0,0.0,0.0,0.0,0.0,0.0,0.0,0.0,0.0,0.0,0.0,0.0,0.0,0.0,0.0,0.0,0.0,0.0,0.0,0.0,0.0,0.0,0.0,0.0,0.0,0.0,0.0,0.0,0.0,0.0,0.0,0.0,0.0,0.0,0.0,0.0,0.0,0.0,0.0,0.0,0.0,0.0,0.0,0.0,0.0,0.0,0.0,0.0,0.0,0.0,0.0,0.0,0.0,0.0,0.0,0.0,0.0,0.0,0.0,0.0,0.0,0.0,0.0,0.0,0.0,0.0,0.0,0.0,0.0,0.0,0.0,0.0,0.0,0.0,0.0,0.0,0.0,0.0,0.0,0.0,0.0,0.0,0.0,0.0,0.0,0.0,0.0,0.0,0.0,0.0,0.0,0.0,0.0,0.0,0.0,0.0,0.0,0.0,0.0,0.0,0.0,0.0,0.0,0.0,0.0,0.0,0.0,0.0,0.0,0.0,0.0,0.0,0.0,0.0,0.0,0.0,0.0,0.0,0.0,0.0,0.0,0.0,0.0,0.0,0.0,0.0,0.0,0.0,0.0,0.0,0.0,0.0,0.0,0.0,0.0,0.0,0.0,0.0,0.0,0.0,0.0,0.0,0.0,0.0,0.0,0.0,0.0,0.0,0.0,0.0,0.0,0.0,0.0,0.0,0.0,0.0,0.0,0.0,0.0,0.0,0.0,0.0,0.0,0.0,0.0,0.0,0.0,0.0,0.0,0.0,0.0,0.0,0.0,0.0,0.0,0.0,0.0,0.0,0.0,0.0,0.0,0.0,0.0,0.0,0.0,0.0,0.0,0.0,0.0,0.0,0.0,0.0,0.0,0.0,0.0,0.0,0.0,0.0,0.0,0.0,0.0,0.0,0.0,0.0,0.0,0.0,0.0,0.0,0.0,0.0,0.0,0.0,0.0,0.0,0.0,0.0,0.0,0.0,0.0,0.0,0.0,0.0,0.0,0.0,0.0,0.0,0.0,0.0,0.0,0.0,0.0,0.0,0.0,0.0,0.0,0.0,0.0,0.0,0.0,0.0,0.0,0.0,0.0,0.0,0.0,0.0,0.0,0.0,0.0,0.0,0.0,0.0,0.0,0.0,0.0,0.0,0.0,0.0,0.0,0.0,0.0,0.0,0.0,0.0,0.0,0.0,0.0,0.0,0.0,0.0,0.0,0.0,0.0,0.0,0.0,0.0,0.0,0.0,0.0,0.0,0.0,0.0,0.0,0.0,0.0,0.0,0.0,0.0,0.0,0.0,0.0,0.0,0.0,0.0,0.0,0.0,0.0,0.0,0.0,0.0,0.0,0.0,0.0,0.0,0.0,0.0,0.0,0.0,0.0,0.0,0.0,0.0,0.0,0.0,0.0,0.0,0.0,0.0,0.0,0.0,0.0,0.0,0.0,0.0,0.0,0.0,0.0,0.0,0.0,0.0,0.0,0.0,0.0,0.0,0.0,0.0,0.0,0.0,0.0,0.0,0.0,0.0,0.0,0.0,0.0,0.0,0.0,0.0,0.0,0.0,0.0,0.0,0.0,0.0,0.0,0.0,0.0,0.0,0.0,0.0,0.0,0.0,0.0,0.0,0.0,0.0,0.0,0.0,0.0,0.0,0.0,0.0,0.0,0.0,0.0,0.0,0.0,0.0,0.0,0.0,0.0,0.0,0.0,0.0,0.0,0.0,-6.0362,-6.0085,0.0,0.0,0.0,0.0,0.0,0.0,0.0,0.0,0.0,0.0,0.0,0.0,0.0,0.0,0.0,0.0,0.0,0.0,0.0,0.0,0.0,0.0,0.0,-6.3079,-6.3079,-6.3079,-6.3079,-6.3079,-6.3079,-6.3079,0.0,0.0,0.0,0.0,0.0,0.0,-6.3528,-6.4485,-6.4515,-6.4874,-6.5533,-6.6191,-6.5981,-6.4964,0.0,0.0,0.0,0.0,0.0,0.0,0.0,0.0,0.0,0.0,0.0,0.0,0.0,0.0,0.0,0.0,0.0,0.0,0.0,0.0,0.0,0.0,0.0,0.0,0.0,0.0,0.0,0.0,0.0,0.0,0.0,0.0,0.0,0.0,0.0,0.0,0.0,0.0,0.0,0.0,0.0,0.0,0.0,0.0,0.0,0.0,0.0,0.0,0.0,0.0,0.0,0.0,0.0,0.0,0.0,0.0,0.0,0.0,0.0,0.0,0.0,0.0,0.0,0.0,0.0,0.0,0.0,0.0,0.0,0.0,-6.3651,-6.2421,0.0,0.0,0.0,0.0,0.0,0.0,0.0,0.0,0.0,0.0,0.0,0.0,0.0,0.0,0.0,0.0,0.0,0.0,0.0,0.0,0.0,-6.2181,-6.2839,-6.3019,-6.3079,-6.3079,-6.2817,-6.2613,-6.2613,-6.2524,-6.2494,-6.2613,-6.2844,-6.2959,-6.3079,-6.3079,-6.3617,-6.4695,-6.4455,-6.5084,-6.655,-6.6759,-6.664,-6.6191,-6.5383,0.0,0.0,0.0,0.0,0.0,0.0,0.0,0.0,0.0,0.0,0.0,0.0,0.0,0.0,0.0,0.0,0.0,0.0,0.0,0.0,0.0,0.0,0.0,0.0,0.0,0.0,0.0,0.0,0.0,0.0,0.0,0.0,0.0,0.0,0.0,0.0,0.0,0.0,0.0,0.0,0.0,0.0,0.0,0.0,0.0,0.0,0.0,0.0,0.0,0.0,0.0,0.0,0.0,0.0,0.0,0.0,0.0,0.0,0.0,0.0,0.0,0.0,0.0,-6.9049,-7.0179,-7.1912,-7.043,-7.043,-7.141,-6.8648,-6.6413,-6.4705,-6.4731,0.0,0.0,0.0,0.0,0.0,0.0,0.0,0.0,0.0,0.0,0.0,0.0,0.0,0.0,0.0,0.0,0.0,0.0,0.0,-6.1493,-6.2151,-6.272,-6.3079,-6.3079,-6.1703,-6.087,-6.087,-6.0289,-6.0231,-6.0841,-6.1759,-6.248,-6.3079,-6.3079,-6.3169,-6.3318,-6.4964,-6.6729,-6.8645,-6.9752,-7.053,-7.0799,-6.6819,-6.5922,-6.7268,0.0,0.0,0.0,0.0,0.0,0.0,0.0,0.0,0.0,0.0,0.0,0.0,0.0,0.0,0.0,0.0,0.0,0.0,0.0,0.0,0.0,0.0,0.0,0.0,0.0,0.0,0.0,0.0,0.0,0.0,0.0,0.0,0.0,0.0,0.0,0.0,0.0,0.0,0.0,0.0,0.0,-6.4339,-6.3764,0.0,0.0,0.0,0.0,0.0,0.0,0.0,0.0,0.0,0.0,0.0,0.0,0.0,-6.5183,-6.7844,-6.9903,-7.1309,-7.2113,-7.4046,-7.5126,-7.5377,-7.4674,-7.5226,-7.6707,-7.6256,0.0,-6.8547,-6.6664,0.0,0.0,0.0,0.0,0.0,0.0,0.0,0.0,0.0,0.0,0.0,0.0,0.0,0.0,0.0,0.0,0.0,0.0,0.0,0.0,0.0,-6.1731,-6.1691,-6.075,-6.085,-6.0406,-5.9217,-5.9373,-5.9121,-5.818,-5.862,-5.9149,-5.981,-5.9465,-5.9893,-6.1141,-6.4798,-6.7442,-6.8986,-7.1473,-7.3133,-7.4061,-7.2026,-7.0171,-6.8465,-6.7029,0.0,0.0,0.0,0.0,0.0,0.0,0.0,0.0,0.0,0.0,0.0,0.0,0.0,0.0,0.0,0.0,0.0,0.0,0.0,0.0,0.0,0.0,0.0,0.0,0.0,0.0,0.0,0.0,0.0,0.0,0.0,0.0,0.0,0.0,0.0,0.0,0.0,0.0,0.0,-6.521,-6.554,-6.231,-6.3177,-6.2892,0.0,0.0,0.0,0.0,0.0,0.0,0.0,0.0,0.0,-6.7317,-6.8497,-7.0305,-7.2765,-7.4674,-7.623,-7.7411,-7.8691,-7.9469,-7.9771,-7.952,-7.9821,-8.0499,-8.0499,-7.8766,-7.5703,-7.2539,-7.0003,-6.7869,0.0,0.0,0.0,0.0,-6.453,-6.4655,0.0,0.0,0.0,0.0,0.0,0.0,0.0,0.0,0.0,0.0,0.0,0.0,-5.9961,-6.0375,-6.0413,-5.9707,-6.01,-5.9872,-5.8467,-5.8195,-5.7577,-5.6339,-5.6279,-5.6581,-5.7218,-5.7155,-5.8135,-6.0292,-6.4764,-6.8164,-7.046,-7.3451,-7.5844,-7.7652,-7.7021,-7.4674,-7.1188,-6.9991,-6.7956,-6.5503,0.0,0.0,0.0,0.0,0.0,0.0,0.0,0.0,0.0,0.0,0.0,0.0,0.0,0.0,0.0,0.0,0.0,0.0,0.0,0.0,0.0,0.0,0.0,0.0,0.0,0.0,0.0,0.0,0.0,0.0,0.0,0.0,0.0,0.0,0.0,0.0,0.0,-6.6126,-6.6463,-6.1629,-6.3207,-6.305,0.0,0.0,0.0,0.0,0.0,0.0,-6.6287,-6.8095,-7.0029,-7.2087,-7.3494,-7.5276,-7.7511,-7.9043,-8.0499,-8.188,-8.2407,-8.296,-8.3512,-8.3361,-8.3386,-8.3512,-8.3361,-8.2759,-8.1553,-7.7385,-7.4021,-7.1334,-6.9401,-6.8396,-6.807,-6.8497,-6.8723,-6.8999,0.0,0.0,0.0,0.0,0.0,0.0,0.0,0.0,0.0,0.0,0.0,-5.5788,-5.841,-5.8861,-5.9762,-6.1781,-5.9541,-5.8507,-5.9483,-5.6,-5.464,-5.6265,-5.6242,-5.6547,-5.7218,-5.8622,-6.0254,-6.2164,-6.5121,-6.9336,-7.4476,-7.6425,-7.9196,-8.2334,-8.0006,-7.8354,-7.7083,-7.2684,-7.038,-6.9393,-6.6281,0.0,0.0,0.0,0.0,0.0,0.0,0.0,0.0,0.0,0.0,0.0,0.0,0.0,0.0,0.0,0.0,0.0,0.0,0.0,0.0,0.0,0.0,0.0,0.0,0.0,0.0,0.0,0.0,0.0,0.0,0.0,0.0,0.0,0.0,0.0,0.0,0.0,0.0,-6.3113,-6.5176,0.0,0.0,0.0,0.0,-6.566,-6.7342,-6.9275,-7.141,-7.2163,-7.3996,-7.7235,-7.7913,-7.9294,-8.1503,-8.2658,-8.3537,-8.4165,-8.4717,-8.5244,-8.5822,-8.5244,-8.532,-8.5822,-8.5244,-8.4717,-8.3763,-7.8842,-7.608,-7.4724,-7.1987,-7.0907,-7.0882,-7.0907,-7.1259,-7.1636,0.0,0.0,0.0,0.0,0.0,-5.674,-5.5661,-5.5526,-5.5366,-5.4849,-5.5519,-5.662,-5.7986,-5.9483,-6.049,-6.0921,-6.0401,-5.9614,-5.8567,-5.6142,-5.4533,-5.4142,-5.3047,-5.3283,-5.4883,-5.6894,-5.9108,-6.1573,-6.5414,-6.9236,-7.3022,-7.7326,-7.9605,-8.0234,-8.1238,-8.0269,-7.7543,-7.334,-7.0068,-6.7579,-6.6083,-6.4367,0.0,0.0,0.0,0.0,0.0,0.0,0.0,0.0,0.0,0.0,0.0,0.0,0.0,0.0,0.0,0.0,0.0,0.0,0.0,0.0,0.0,0.0,0.0,0.0,0.0,0.0,0.0,0.0,0.0,0.0,0.0,0.0,0.0,0.0,0.0,0.0,0.0,-6.7893,-7.0079,0.0,-6.7894,-6.8597,-6.9426,-6.9803,-7.2715,-7.5126,-7.6632,-7.7913,-7.9444,-8.1378,-8.1955,-8.2809,-8.3964,-8.4742,-8.5219,-8.542,-8.5596,-8.5822,-8.5998,-8.5822,-8.5822,-8.5998,-8.5772,-8.5395,-8.4642,-8.2156,-8.0072,-7.8239,-7.6155,-7.5126,-7.4799,-7.4799,-7.4925,-7.5126,0.0,0.0,0.0,0.0,0.0,-5.6166,-5.4392,-5.4088,-5.378,-5.2964,-5.4128,-5.5748,-5.7369,-5.9403,-6.0761,-6.1119,-6.0989,-6.0261,-5.8805,-5.6118,-5.416,-5.3231,-5.195,-5.2126,-5.3959,-5.6721,-5.9232,-6.1466,-6.5544,-6.9004,-7.2084,-7.637,-7.8625,-7.9135,-8.0658,-7.9944,-7.7308,-7.3711,-7.0341,-6.7263,-6.6622,-6.5674,-6.4253,0.0,0.0,0.0,0.0,0.0,0.0,0.0,0.0,0.0,0.0,0.0,0.0,0.0,0.0,0.0,0.0,0.0,0.0,0.0,0.0,0.0,0.0,0.0,0.0,0.0,0.0,0.0,0.0,0.0,0.0,0.0,0.0,0.0,0.0,-6.9866,-7.281,-7.1587,-7.4171,-7.5075,-7.2464,-7.3569,-7.4523,-7.4699,-7.7611,-7.9871,-8.1001,-8.2056,-8.3186,-8.4315,-8.4491,-8.4893,-8.542,-8.5822,-8.5998,-8.5998,-8.5998,-8.5998,-8.5998,-8.5998,-8.5998,-8.5998,-8.5998,-8.5671,-8.5069,-8.4165,-8.2583,-8.0624,-7.9319,-7.8616,-7.8264,-7.8063,-7.8013,-7.7963,0.0,0.0,0.0,0.0,0.0,-5.5266,-5.2853,-5.2396,-5.1696,-4.9862,-5.0619,-5.2829,-5.6671,-5.8604,-6.0512,-6.2722,-6.1341,-6.0337,-6.0286,-5.5666,-5.3155,-5.3658,-5.3231,-5.3532,-5.4712,-5.8428,-6.0939,-6.2169,-6.5383,-6.8713,-7.2131,-7.3795,-7.6323,-7.9421,-7.8346,-7.7574,-7.6863,-7.3979,-7.1423,-6.9143,-6.7907,-6.7536,-6.7239,0.0,0.0,0.0,0.0,0.0,0.0,0.0,0.0,0.0,0.0,0.0,0.0,0.0,0.0,0.0,0.0,0.0,0.0,0.0,0.0,0.0,0.0,0.0,0.0,0.0,0.0,0.0,0.0,0.0,0.0,0.0,0.0,0.0,-6.8524,-7.2732,-7.5084,-7.3987,-7.7235,-7.8716,-7.6557,-7.8314,-7.9821,-8.0348,-8.1905,-8.3286,-8.4391,-8.4416,-8.4918,-8.5998,-8.5496,-8.547,-8.5998,-8.5998,-8.5998,-8.5998,-8.5998,-8.5998,-8.5998,-8.5998,-8.5998,-8.5998,-8.5998,-8.5671,-8.5144,-8.4567,-8.3361,-8.183,-8.1252,-8.1001,-8.0926,-8.0373,-8.0173,-7.9921,0.0,0.0,0.0,-5.5418,-5.4621,-5.3424,-5.2072,-5.055,-4.9601,-4.957,-5.1599,-5.4361,-5.7876,-6.0814,-6.3099,-6.4479,-6.237,-6.0588,-5.9784,-5.5465,-5.298,-5.313,-5.3758,-5.5566,-5.8679,-6.0186,-6.2471,-6.5609,-6.6538,-6.8474,-7.1421,-7.3604,-7.483,-7.5316,-7.6691,-7.654,-7.503,-7.3855,-7.2513,-7.0957,-6.8182,-6.6681,-6.5846,0.0,0.0,0.0,0.0,0.0,0.0,0.0,0.0,0.0,0.0,0.0,0.0,0.0,0.0,0.0,0.0,0.0,0.0,0.0,0.0,0.0,0.0,0.0,0.0,0.0,0.0,0.0,0.0,0.0,0.0,0.0,-6.6237,-6.9682,-7.0881,-7.4839,-7.8291,-8.0025,-8.2181,-8.3311,-8.2708,-8.3587,-8.424,-8.4416,-8.5571,-8.6349,-8.6676,-8.6676,-8.6676,-8.66,-8.6425,-8.6249,-8.5998,-8.5998,-8.5998,-8.5998,-8.5998,-8.5998,-8.5998,-8.5998,-8.5998,-8.5998,-8.5998,-8.5922,-8.5671,-8.4717,-8.4064,-8.3462,-8.1704,-8.0549,-7.9821,-7.967,-7.9344,-7.8817,0.0,0.0,0.0,-5.5179,-5.4746,-5.3695,-5.1877,-5.0775,-5.0082,-4.9659,-5.2603,-5.5767,-5.8403,-6.1893,-6.4078,-6.4254,-6.2144,-6.006,-5.8252,-5.5064,-5.3256,-5.3256,-5.4988,-5.7323,-6.0261,-6.1567,-6.355,-6.6262,-6.6739,-6.7919,-6.9727,-7.1846,-7.2792,-7.3011,-7.5037,-7.5359,-7.4397,-7.4071,-7.3569,-7.2709,-6.9852,-6.8728,-6.8501,-6.5264,-6.4896,-6.5684,-6.3235,-6.3357,-6.4432,-6.2965,0.0,0.0,0.0,0.0,0.0,0.0,0.0,0.0,0.0,0.0,0.0,0.0,0.0,0.0,0.0,0.0,0.0,0.0,0.0,0.0,0.0,0.0,0.0,0.0,-7.0581,-7.4272,-7.6456,-7.8792,-8.1202,-8.3763,-8.5094,-8.5922,-8.6148,-8.65,-8.6776,-8.7027,-8.7379,-8.778,-8.8283,-8.7856,-8.758,-8.7454,-8.7278,-8.7002,-8.6676,-8.6676,-8.6676,-8.6676,-8.6676,-8.6525,-8.6349,-8.6349,-8.6199,-8.5998,-8.5998,-8.5747,-8.5244,-8.4567,-8.3914,-8.3135,0.0,0.0,0.0,0.0,-7.9168,-7.8691,0.0,0.0,-5.5179,-5.5179,-5.5556,-5.4978,-5.2352,-5.2064,-5.1637,-5.0206,-5.3545,-5.6646,-5.8303,-6.1793,-6.3651,-6.2797,-6.1014,-5.883,-5.6194,-5.4561,-5.3833,-5.416,-5.6746,-5.8956,-6.0663,-6.2772,-6.4404,-6.5484,-6.6538,-6.7342,-6.7919,-6.9526,-7.0857,-7.1987,-7.3594,-7.4397,-7.4498,-7.4498,-7.4498,-7.4322,-7.2213,-7.2164,-7.2751,-6.7196,-6.7195,-6.948,-6.5002,-6.3903,-6.443,-6.3673,0.0,0.0,0.0,0.0,0.0,0.0,0.0,0.0,0.0,0.0,0.0,0.0,0.0,0.0,0.0,0.0,0.0,0.0,0.0,0.0,0.0,0.0,0.0,0.0,-7.4975,-7.9068,-8.3186,-8.3412,-8.3889,-8.5922,-8.6676,-8.7178,-8.7755,-8.778,-8.8032,-8.871,-8.8283,-8.8383,-8.9362,-8.8433,0.0,0.0,0.0,-8.758,-8.7504,-8.7504,-8.7504,-8.7504,-8.758,-8.7278,-8.6776,-8.6776,-8.65,-8.5998,-8.5998,-8.5395,-8.4391,-8.424,-8.3211,-8.1629,-8.1629,-8.1629,-8.1428,-7.9796,-7.9193,-7.8967,0.0,-5.5089,-5.5179,-5.5179,-5.434,-5.3777,-5.4106,-5.1754,-5.0611,-5.2537,-5.4074,-5.5516,-5.7173,-5.9608,-6.1391,-6.2094,-5.9408,-5.6872,-5.5013,-5.4135,-5.4712,-5.6997,-5.8855,-6.0864,-6.2998,-6.4304,-6.5534,-6.6639,-6.7317,-6.7919,-6.8497,-6.9702,-7.0857,-7.1962,-7.3192,-7.4247,-7.5075,-7.5075,-7.5075,-7.4975,-7.3644,-7.2494,-7.1348,-6.9279,-6.8663,-6.8738,-6.7366,-6.8083,-6.9308,-6.6955,-6.7351,-6.8425,-6.6002,-6.4217,0.0,0.0,0.0,0.0,0.0,0.0,0.0,0.0,0.0,0.0,0.0,0.0,0.0,0.0,0.0,0.0,0.0,0.0,0.0,-7.3895,-7.8817,-8.2985,-8.5194,-8.5772,-8.6299,-8.7178,-8.778,-8.8358,-8.8885,-8.8961,-8.9362,-9.0367,-9.0342,-9.0191,-8.9965,-8.9764,-8.9287,-8.8484,-8.7881,-8.7379,-8.6952,-8.6927,-8.6927,-8.6952,-8.7379,0.0,-8.6776,-8.6776,-8.65,-8.5998,-8.5998,-8.5596,-8.4893,-8.3989,-8.2407,-8.0524,-8.0524,-8.0524,-8.0323,-7.8641,-7.8038,-7.7862,0.0,-5.47,-5.479,-5.5119,-5.4856,-5.4533,-5.4342,-5.3332,-5.2849,-5.3808,-5.5761,-5.7325,-5.8053,-5.9502,-6.0247,-5.9915,-5.6627,-5.4561,-5.4561,-5.5064,-5.662,-5.9433,-6.114,-6.2797,-6.4454,-6.5283,-6.5986,-6.6538,-6.7392,-6.7945,-6.8246,-6.9325,-7.043,-7.1535,-7.2665,-7.3619,-7.4423,-7.4724,-7.4975,-7.5176,-7.4347,-7.3669,-7.3042,-7.1937,-7.151,-7.1485,-7.1209,-7.146,-7.1661,-7.0003,-6.965,-6.9516,-6.7605,-6.5485,-6.3326,0.0,0.0,0.0,0.0,0.0,0.0,0.0,0.0,0.0,0.0,0.0,0.0,0.0,0.0,-6.4505,-6.7267,0.0,-7.4749,-7.8365,-8.1754,-8.4491,-8.6174,-8.6851,-8.7379,-8.7956,-8.8032,-8.8458,-8.9613,-8.9689,-9.004,-9.0869,-9.0944,-9.0844,-9.0517,-9.0266,-8.9714,-8.8885,-8.8358,-8.778,-8.7203,-8.7454,-8.763,-8.763,-8.7881,-8.7705,-8.7178,-8.6927,-8.65,-8.5998,-8.5998,-8.5496,-8.4642,-8.3236,-8.1855,-8.0574,-8.0022,-7.962,-7.9193,-7.7812,-7.7461,-7.7536,0.0,-5.3922,-5.4251,-5.5059,-5.5538,-5.5508,-5.4594,-5.5089,-5.5423,-5.4915,-5.7224,-5.8951,-5.8821,-5.9436,-5.9096,-5.7141,-5.4347,-5.3406,-5.4938,-5.6796,-5.8981,-6.1567,-6.3375,-6.468,-6.5434,-6.6112,-6.6438,-6.6438,-6.7568,-6.807,-6.7995,-6.92,-7.0478,-7.182,-7.2526,-7.3477,-7.4414,-7.4641,-7.5,-7.5352,-7.4925,-7.5,-7.5301,-7.4397,-7.4272,-7.4573,-7.4448,-7.3619,-7.2489,-7.2062,-7.0958,-6.9602,-6.8723,-6.684,-6.4404,-6.1466,-6.1835,0.0,0.0,0.0,0.0,0.0,0.0,0.0,0.0,-6.0136,-6.1994,-6.4555,-6.6739,-6.9351,-7.3167,-7.5753,-7.854,-8.2231,-8.4014,-8.542,-8.6776,-8.7429,-8.7956,-8.8559,-8.8283,-8.8684,-9.0116,-9.0367,-9.0693,-9.1195,-9.117,-9.1045,-9.0944,-9.0291,-8.9689,-8.9136,-8.8458,-8.7956,-8.7605,-8.7956,-8.8207,-8.8308,-8.8308,-8.8032,-8.7429,-8.6952,-8.65,-8.5998,-8.5671,-8.4893,-8.3713,-8.2131,-8.1127,-8.0449,-7.9444,-7.8716,-7.8088,-7.721,-7.7159,-7.7411,0.0,-5.2905,-5.3683,-5.497,-5.476,-5.4949,-5.6497,-5.5708,-5.5472,-5.7024,-5.7131,-5.7119,-5.7091,-5.767,-5.6936,-5.4285,-5.4653,-5.5516,-5.6671,-5.9257,-6.1517,-6.3324,-6.5459,-6.6413,-6.6036,-6.7066,-6.7618,-6.7618,-6.8723,-6.8999,-6.8572,-7.0154,-7.2073,-7.416,-7.375,-7.4958,-7.7331,-7.6352,-7.5904,-7.5954,-7.5904,-7.5904,-7.5954,-7.5829,-7.5502,-7.5075,-7.4598,-7.3368,-7.1987,-7.1937,-7.146,-7.0882,-7.0757,-7.0154,-6.8874,-6.5609,-6.3162,-6.0748,-5.7575,-5.694,-5.7565,-5.9438,-6.0145,-6.1781,0.0,-6.812,-6.8648,-7.2364,-7.4473,-7.613,-7.7611,-8.0097,-8.2257,-8.3236,-8.5571,-8.7278,-8.7504,-8.8032,-8.8559,-8.9136,-8.9538,-9.009,-9.0768,-9.1296,-9.1823,-9.2325,-9.1974,-9.1471,-9.0944,-8.994,-8.9111,-8.8559,-8.7529,-8.7178,-8.7605,-8.7178,-8.7203,-8.768,-8.768,-8.7429,-8.6877,-8.6801,-8.65,-8.5922,-8.4416,-8.3135,-8.2005,-8.085,-7.9771,-7.8741,-7.8114,-7.7561,-7.7059,-7.6933,-7.6908,-7.6883,0.0,-5.2665,-5.3144,-5.488,-5.497,-5.5059,-5.5867,-5.6064,-5.6432,-5.7202,-5.814,-5.8552,-5.8176,-5.722,-5.54,-5.2474,-5.3751,-5.5267,-5.6493,-6.006,-6.3174,-6.5509,-6.7091,-6.7819,-6.7568,-6.8045,-6.8928,-7.0334,-7.1413,-7.2008,-7.22,-7.4615,-7.588,-7.6121,-7.7316,-7.7889,-7.7916,-7.7773,-7.6842,-7.5603,-7.5929,-7.6055,-7.5979,-7.5352,-7.4548,-7.3694,-7.3142,-7.1887,0.0,-7.0104,-6.9627,-6.9351,-7.0305,-6.9125,-6.7015,-6.5308,-6.355,-6.1893,-6.0713,-6.001,-5.9935,-6.1416,-6.3475,-6.6036,-6.9476,-7.1158,-7.2916,-7.613,-7.8365,-8.0273,-8.2056,-8.3612,-8.4993,-8.6199,-8.7103,-8.7705,-8.8032,-8.8032,-8.7806,-8.7429,-8.8433,-8.9613,-9.0844,-9.117,-9.1371,-9.1622,-9.1723,-9.112,-8.9613,-8.9362,-8.871,-8.7529,-8.7027,-8.6751,-8.6676,-8.6751,-8.6877,-8.7103,-8.7103,-8.7027,-8.6776,-8.6098,-8.5345,-8.4491,-8.3462,-8.2382,-8.1277,-8.0173,-7.9269,-7.844,-7.7561,-7.7084,-7.6833,-7.6507,-7.6406,-7.6356,0.0,-5.2546,-5.2935,-5.4371,-5.494,-5.5239,-5.5448,-5.6256,-5.6885,-5.7064,-5.853,-5.9428,-5.9129,-5.7137,-5.4941,-5.2684,-5.3475,-5.5151,-5.75,-6.13,-6.5063,-6.8629,-7.0368,-7.1144,-7.0989,-7.1299,-7.2228,-7.3716,-7.4921,-7.5698,-7.6127,-7.8611,-7.9696,-7.9451,-8.0803,-8.0927,-8.0192,-7.9455,-7.8456,-7.7389,-7.6267,-7.6093,-7.6194,-7.4082,-7.2288,-7.0882,-7.0807,-6.9401,-6.7543,-6.699,-6.6657,-6.667,-6.7844,-6.7405,-6.6221,-6.4713,-6.3048,-6.1798,-6.2404,-6.2345,-6.2345,-6.3827,-6.7241,-7.0581,-7.1987,-7.4448,-7.7159,-7.962,-8.1629,-8.3512,-8.5244,-8.6174,-8.7103,-8.8283,-8.8358,-8.8383,-8.8634,-8.8032,-8.7178,-8.6148,-8.6676,-8.7755,-8.9413,-9.0266,-9.0693,-9.0693,-9.0944,-9.0392,-8.8785,-8.8634,-8.8032,-8.6801,-8.6625,-8.645,-8.6249,-8.645,-8.6625,-8.6776,-8.6625,-8.66,-8.6525,-8.542,-8.4315,-8.3236,-8.2533,-8.1604,-8.0499,-7.9545,-7.8716,-7.7988,-7.7185,-7.6783,-7.6607,-7.6205,-7.6055,-7.6055,0.0,0.0,-5.3174,-5.3234,-5.4341,-5.5418,-5.6047,-5.6218,-5.6406,-5.7004,-5.7723,-5.8411,-5.9039,-5.7163,-5.5841,-5.5785,-5.4467,-5.5835,-6.1079,-6.3814,-6.7631,-7.3092,-7.6179,-7.7588,-7.6953,-7.8113,-7.853,-7.7949,-7.9166,-7.9774,-7.9802,-8.0991,-8.2805,-8.4848,-8.3214,-8.3671,-8.5507,-8.1438,-8.0937,-8.2585,-7.7363,-7.6036,-7.6652,-7.2171,-6.8698,-6.6463,-6.7543,-6.581,-6.2948,-6.2395,-6.2606,-6.3074,-6.3063,-6.5966,-6.8676,-6.4873,-6.1391,-5.9313,-6.149,-6.2044,-6.2923,-6.6714,-7.0983,-7.4799,-7.6984,-7.9595,-8.2056,-8.3788,-8.5069,-8.6073,-8.6625,-8.763,-8.8383,-8.8458,-8.9362,-8.9865,-8.9362,-8.8283,-8.7178,-8.6148,-8.4592,-8.4315,-8.5998,-8.8584,-9.0116,-9.0116,-8.9639,-8.9362,-8.9287,-8.7705,-8.6851,-8.6776,-8.6274,-8.6274,-8.6776,-8.6274,-8.6274,-8.6776,-8.6274,-8.6023,-8.5998,-8.4843,-8.3738,-8.2633,-8.1553,-8.0449,-7.9394,-7.8792,-7.7913,-7.6933,-7.6883,-7.6557,-7.608,-7.6055,-7.6055,-7.6055,0.0,0.0,0.0,0.0,0.0,-5.5269,-5.5478,-5.5897,-5.6406,-5.7004,-5.7693,0.0,0.0,0.0,0.0,0.0,-5.638,-5.732,-5.8888,-6.3482,-6.7305,-6.9912,-7.4304,-7.6731,-7.7008,-7.7894,-7.9688,-8.2253,-8.2253,-8.2824,-8.3961,-8.6076,-8.6766,-8.6457,-8.7405,-8.7174,-8.5882,-8.4483,-8.3132,-8.1739,-7.8579,-7.705,-7.6098,-7.219,-6.8108,-6.4279,0.0,-6.0311,-5.8479,-5.9039,-5.9117,-5.9297,-6.147,-6.275,-6.297,-6.0556,-6.0671,-6.1607,-6.232,-6.4392,-6.7317,-7.1234,-7.4423,-7.736,-8.0323,-8.2005,-8.3186,-8.414,-8.4064,-8.3838,-8.4014,-8.4366,-8.5094,-8.66,-8.7755,-8.8609,-8.9212,-8.8283,-8.6676,-8.4089,-8.3914,-8.3537,-8.2282,-8.532,-8.7856,-8.8935,-8.886,-8.8383,-8.768,-8.7103,-8.6625,-8.6274,-8.6098,-8.6098,-8.6274,-8.6098,-8.6098,-8.6249,-8.5671,-8.5069,-8.4315,-8.3562,-8.2633,-8.1553,-8.08,-7.9846,-7.8766,-7.8214,-7.7536,-7.6833,-7.6482,-7.623,-7.6055,-7.6055,-7.6055,-7.6055,0.0,0.0,0.0,0.0,0.0,0.0,0.0,0.0,0.0,0.0,0.0,0.0,0.0,0.0,0.0,0.0,0.0,-5.8224,-5.9541,-6.3139,-6.637,-6.9079,-7.3047,-7.5477,-7.618,-7.6912,-7.8761,-8.1692,-8.175,-8.2547,-8.4159,-8.6496,-8.6979,-8.5876,-8.7714,-8.7402,-8.5471,-8.4376,-8.3131,-8.1575,-7.7371,-7.4899,-7.3264,-6.8511,-6.4007,0.0,-5.7022,-5.5089,-5.4113,-5.5783,-5.6478,-5.71,-5.9339,-5.9627,-5.9184,-5.9353,-6.0638,-6.2561,-6.5078,-6.779,-7.0782,-7.4875,-7.7536,-7.9846,-8.2382,-8.3386,-8.3763,-8.3738,-8.2683,-8.1604,-8.1001,-8.0725,-8.1328,-8.3562,-8.4667,-8.5922,-8.7856,-8.66,-8.4918,-8.316,-8.2884,-8.2307,-8.0926,-8.3035,-8.527,-8.7128,-8.7278,-8.7128,-8.6776,-8.66,-8.6349,-8.5998,-8.5998,-8.5998,-8.5998,-8.5998,-8.5897,-8.5671,-8.4918,-8.4064,-8.3186,-8.2432,-8.1604,-8.07,-8.0147,-7.9269,-7.8214,-7.7837,-7.726,-7.6557,-7.618,-7.6055,-7.6055,-7.6055,-7.6055,-7.6055,0.0,0.0,0.0,0.0,0.0,0.0,0.0,0.0,0.0,0.0,0.0,0.0,0.0,0.0,0.0,0.0,0.0,0.0,-6.2692,-6.2787,-6.5065,-7.0376,-7.2654,-7.4091,-7.4749,-7.5437,-7.6125,-7.6784,-7.7951,-7.9208,-8.0554,-8.2409,-8.3277,-8.3307,-8.3965,-8.4235,-8.3991,-8.1113,-8.0786,-8.163,-7.3803,-7.0082,-6.8466,-6.1996,-5.7158,-5.3621,-5.1993,-5.0594,-4.9999,-5.267,-5.4844,-5.6526,-5.7003,-5.7239,-5.8058,-6.13,-6.1558,-6.2375,-6.9376,-7.1794,-7.3318,-7.7586,-8.0248,-8.2106,-8.3211,-8.3813,-8.3813,-8.2658,-8.1051,-7.9294,-7.7662,-7.7008,-7.7385,-7.9724,-8.0754,-8.2307,-8.5596,-8.3788,-8.2457,-8.3437,-8.1704,-8.08,-8.1704,-8.183,-8.2759,-8.4858,-8.5069,-8.5571,-8.6676,-8.6274,-8.5998,-8.5998,-8.5998,-8.5998,-8.5998,-8.5998,-8.5646,-8.5044,-8.3989,-8.3135,-8.2558,-8.1478,-8.07,-8.0173,-7.9595,-7.8716,-7.7712,-7.7662,-7.7034,-7.6055,-7.6055,-7.6055,-7.6055,-7.6055,-7.6055,-7.6055,0.0,0.0,0.0,0.0,0.0,0.0,0.0,0.0,0.0,0.0,0.0,0.0,0.0,0.0,0.0,0.0,0.0,0.0,-6.0805,-6.3088,-6.4992,-6.6429,-7.029,-7.2714,-7.3402,-7.4061,-7.4988,-7.6125,-7.5467,-7.5557,-7.6395,-7.6904,-7.7143,-7.7173,-7.7861,-7.7861,-7.7382,-7.6575,-7.5933,-7.5159,-7.1591,-6.9077,-6.6927,-6.2687,-5.8749,-5.5226,-5.3189,-5.1247,-4.9948,-5.2201,-5.5203,-5.8136,-5.9116,-6.0306,-6.175,-6.3916,-6.6394,-6.8956,-7.1596,-7.4885,-7.7938,-7.9896,-8.1102,-8.2005,-8.2708,-8.2357,-8.1328,-7.9369,-7.6682,-7.4349,-7.312,-7.3376,-7.4956,-7.8606,-8.1564,-8.4341,-8.6851,-8.6575,-8.5596,-8.424,-8.3612,-8.2884,-8.1905,-8.2206,-8.3035,-8.4416,-8.4541,-8.4993,-8.6148,-8.6073,-8.5998,-8.5998,-8.5998,-8.5998,-8.5998,-8.5571,-8.4893,-8.3914,-8.3211,-8.2382,-8.1428,-8.0725,-8.0348,-8.0147,-7.9168,-7.834,-7.7662,-7.726,-7.6682,-7.6055,-7.6055,-7.6055,-7.6055,-7.6055,-7.6055,-7.6055,0.0,0.0,0.0,0.0,0.0,0.0,0.0,0.0,0.0,0.0,0.0,0.0,0.0,0.0,0.0,0.0,0.0,0.0,0.0,-6.2271,-6.3438,-6.3737,-6.6221,-6.7777,-6.8166,-6.8824,-6.9662,-7.0679,-7.0231,-7.05,-7.1427,-7.1697,-7.1846,-7.1876,-7.2565,-7.2505,-7.1846,-7.1846,-7.1098,0.0,0.0,-6.5621,-6.33,-5.9779,-5.6892,-5.4367,-5.2505,-5.18,-5.211,-5.4304,-5.7406,-6.0687,-6.2111,-6.3687,-6.5402,-6.7297,-7.0009,-7.2726,-7.504,-7.8189,-8.0976,-8.1604,-8.198,-8.183,-8.0449,-7.9469,-7.7812,-7.4121,-7.1972,-7.0112,-6.832,-6.9403,-7.1808,-7.5289,-7.8713,-8.2257,-8.5671,-8.5922,-8.5671,-8.542,-8.4993,-8.4315,-8.3361,-8.3336,-8.3738,-8.4642,-8.4466,-8.4818,-8.5922,-8.5998,-8.5998,-8.5998,-8.5998,-8.5897,-8.5646,-8.5069,-8.424,-8.3135,-8.2332,-8.1503,-8.065,-8.0097,-7.9846,-7.9821,-7.9168,-7.844,-7.7687,-7.736,-7.6783,-7.6055,-7.6055,-7.6055,-7.6055,-7.6055,-7.6055,-7.6055,0.0,0.0,0.0,0.0,0.0,0.0,0.0,0.0,0.0,0.0,-5.856,-5.9009,0.0,0.0,0.0,0.0,0.0,0.0,0.0,0.0,-6.1613,-6.2211,-6.2241,-6.2181,-6.2091,-6.257,-6.3079,-6.3617,-6.4126,-6.4994,-6.6221,-6.67,-6.6909,-6.6939,-6.7537,-6.7478,-6.6909,-6.6909,-6.6221,-6.4934,-6.3228,-6.1346,-5.9159,0.0,-5.4024,-5.2896,-5.1096,-5.2126,-5.4662,-5.7399,-6.0401,-6.3369,-6.5293,-6.7082,-6.8869,-7.1266,-7.3092,-7.5151,-7.8817,-8.1619,-8.3346,-8.2816,-8.2854,-8.1931,-7.7637,-7.5954,-7.3745,-6.8371,-6.7118,-6.6286,-6.4078,-6.5924,-6.8887,-7.2166,-7.5413,-7.9149,-8.3939,-8.4315,-8.4742,-8.6676,-8.5998,-8.5395,-8.5395,-8.4893,-8.4742,-8.5219,-8.4818,-8.4993,-8.5922,-8.5998,-8.5998,-8.5897,-8.5897,-8.5596,-8.5044,-8.4491,-8.3638,-8.2533,-8.1528,-8.07,-8.0097,-7.9595,-7.9394,-7.9369,-7.9218,-7.8591,-7.7687,-7.7536,-7.6908,-7.6055,-7.6055,-7.6055,-7.6055,-7.6055,-7.6004,-7.5954,0.0,0.0,0.0,0.0,0.0,0.0,0.0,0.0,0.0,0.0,-6.0116,-5.9877,0.0,0.0,0.0,0.0,0.0,0.0,0.0,0.0,0.0,-6.2899,-6.2899,-6.266,-6.2121,-6.1672,-6.1493,-6.1613,-6.1164,-6.1343,-6.2121,-6.1672,-6.1463,-6.1463,-6.1583,-6.1553,-6.1463,-6.1463,-6.1014,-6.0266,-5.9937,-5.9205,-5.8228,-5.6848,0.0,0.0,-5.2012,-5.1724,-5.3356,-5.878,-6.2194,-6.476,-6.7739,-7.0154,-7.2462,-7.5651,-7.7411,-7.8917,-8.1428,-8.4753,-8.6616,-8.3504,-8.3754,-8.3076,-7.6851,-7.3318,-6.9953,-6.5358,-6.2916,-6.1994,-6.3207,-6.5382,-6.9018,-7.5537,-7.8907,-8.2057,-8.5818,-8.6676,-8.7027,-8.7429,-8.6877,-8.65,-8.65,-8.6023,-8.5747,-8.5847,-8.5747,-8.5822,-8.5998,-8.5998,-8.5772,-8.532,-8.5295,-8.4933,-8.4466,-8.3914,-8.306,-8.1955,-8.1328,-8.0499,-7.952,-7.9419,-7.9394,-7.9344,-7.839,-7.7888,-7.7637,-7.6707,-7.623,-7.6055,-7.6055,-7.6055,-7.6055,-7.6055,-7.5753,-7.5377,0.0,0.0,0.0,0.0,0.0,0.0,0.0,-6.0176,-6.0745,-6.2391,-6.2929,-6.251,-6.0805,-6.1224,-6.1493,0.0,0.0,0.0,0.0,0.0,0.0,-6.3079,-6.3079,-6.278,-6.2121,-6.2121,-6.1972,-6.1613,0.0,-6.0954,-6.1613,-6.0565,-6.0266,-6.0625,-6.0625,-6.0416,-6.0116,-6.0475,-6.0027,-5.9159,-5.9877,-5.9757,-5.9026,-5.8112,0.0,0.0,-5.2813,-5.2854,-5.4436,-5.8529,-6.232,-6.6162,-7.0958,-7.3971,-7.6281,-7.9018,-8.1517,-8.3681,-8.5563,-8.7717,-8.8669,-8.6324,-8.3887,-8.0288,-7.3326,-6.9426,-6.566,-6.0085,-5.9776,-6.0563,-6.0944,-6.4791,-6.9023,-7.2369,-7.5535,-7.9022,-8.3232,-8.424,-8.542,-8.778,-8.7806,-8.7529,-8.7253,-8.6701,-8.6274,-8.6023,-8.5998,-8.5998,-8.5998,-8.5998,-8.5747,-8.5144,-8.5144,-8.4742,-8.3889,-8.3638,-8.2934,-8.1805,-8.1277,-8.0599,-7.9796,-7.952,-7.9394,-7.9344,-7.8817,-7.8415,-7.8063,-7.726,-7.6733,-7.6456,-7.618,-7.6055,-7.603,-7.5728,-7.5477,-7.5201,0.0,0.0,0.0,0.0,0.0,0.0,-6.1972,-6.1882,-6.2391,-6.4755,-6.5862,-6.5293,-6.2271,-6.254,-6.257,0.0,0.0,0.0,0.0,0.0,0.0,0.0,0.0,0.0,-6.2121,0.0,0.0,-6.2091,-6.1583,0.0,0.0,0.0,0.0,0.0,-6.1164,-6.0805,-6.0326,-6.0894,-6.0505,0.0,0.0,-6.0552,-5.9629,0.0,0.0,0.0,0.0,-5.3658,-5.5239,-5.77,-6.158,-6.6382,-7.1889,-7.5721,-7.8566,-8.0524,-8.3442,-8.6229,-8.798,-8.9246,-8.9646,-8.7642,-8.3449,-7.7756,-7.012,-6.5911,-6.1868,-5.5817,-5.6997,-5.9125,-5.9053,-6.3695,-6.8072,-6.9536,-7.2283,-7.589,-8.065,-8.2116,-8.4003,-8.7719,-8.8207,-8.8107,-8.768,-8.7002,-8.6425,-8.6023,-8.5998,-8.5998,-8.5998,-8.5998,-8.5671,-8.4968,-8.4968,-8.4416,-8.3336,-8.3311,-8.2759,-8.1629,-8.1227,-8.0675,-8.0022,-7.9595,-7.9394,-7.9369,-7.9243,-7.8867,-7.8314,-7.7762,-7.721,-7.6657,-7.623,-7.6055,-7.6004,-7.5578,-7.5276,-7.5,0.0,0.0,0.0,0.0,0.0,0.0,-6.26,-6.2929,-6.4246,-6.8046,-6.8106,-6.6999,-6.4904,-6.5263,-6.4904,0.0,0.0,0.0,0.0,0.0,0.0,0.0,0.0,0.0,0.0,0.0,0.0,-6.2091,-6.2032,0.0,0.0,0.0,0.0,0.0,0.0,-6.1074,-6.1014,-6.1074,0.0,0.0,0.0,0.0,0.0,0.0,0.0,0.0,0.0,-5.2603,-5.3658,-5.6897,-6.0328,-6.3906,-6.7429,-7.2394,-7.726,-7.8465,-8.0859,-8.3441,-8.4997,-8.7704,-8.8927,-8.4364,-8.2055,-7.8577,-6.9878,-6.4153,-5.9533,-5.5415,-5.4441,-5.5478,-5.9177,-6.1281,-6.4832,-7.2076,-7.4508,-7.7093,-8.159,-8.4144,-8.5796,-8.6887,-8.7379,-8.768,-8.7605,-8.6676,-8.6073,-8.5998,-8.5998,-8.5998,-8.5998,-8.5998,-8.5496,-8.4416,-8.4391,-8.3864,-8.2759,-8.2734,-8.2206,-8.1102,-8.1051,-8.0474,-7.9469,-7.9419,-7.9394,-7.9369,-7.8842,-7.8289,-7.7737,-7.7185,-7.6632,-7.613,-7.608,-7.6055,-7.6055,-7.6004,-7.5352,-7.4473,0.0,0.0,0.0,0.0,0.0,0.0,-6.26,-6.2061,-6.3139,-6.8315,-6.8764,-6.8286,-6.7508,-6.7298,-6.5772,-6.2211,0.0,0.0,0.0,0.0,0.0,0.0,0.0,0.0,0.0,0.0,-6.269,-6.269,-6.2301,0.0,0.0,0.0,0.0,0.0,0.0,-6.2301,-6.2301,-6.2301,0.0,0.0,0.0,0.0,0.0,0.0,0.0,0.0,0.0,0.0,-5.464,-5.5943,-5.914,-6.2382,-6.1964,-6.5571,-7.0946,-7.5644,-7.9452,-8.285,-8.5832,-8.8294,-8.9407,-8.6355,-8.1515,-7.5736,-6.8864,-6.3174,-5.8227,-5.4361,-5.4227,-5.5267,-5.6915,-5.9644,-6.2521,-6.5254,-6.8081,-7.1174,-7.479,-7.7794,-8.0994,-8.4607,-8.5912,-8.6863,-8.7492,-8.6927,-8.6349,-8.6023,-8.5998,-8.5998,-8.5998,-8.5671,-8.5295,-8.4818,-8.4165,-8.3612,-8.3186,-8.2483,-8.193,-8.1478,-8.085,-8.0298,-7.9871,-7.9545,-7.9193,-7.8842,-7.8616,-7.8214,-7.7662,-7.7109,-7.6733,-7.6507,-7.618,-7.6055,-7.5979,-7.5301,-7.4799,-7.4322,0.0,0.0,0.0,0.0,0.0,-5.9189,-6.2301,-6.1762,-6.2839,-6.8016,-6.8704,-6.8704,-6.8704,-6.7388,-6.5383,-6.251,-6.2151,0.0,0.0,0.0,0.0,0.0,0.0,0.0,0.0,0.0,-6.3079,-6.3079,-6.26,-6.263,0.0,0.0,-6.263,-6.3079,0.0,0.0,0.0,0.0,0.0,0.0,0.0,0.0,0.0,0.0,0.0,0.0,0.0,0.0,0.0,0.0,0.0,-6.0794,-5.8644,-6.0714,-6.518,-7.1319,-7.6103,-8.0198,-8.4168,-8.6644,-8.779,-8.6071,-8.0138,-7.3293,-6.7744,-6.232,-5.7399,-5.3683,-5.3852,-5.4782,-5.5287,-5.8347,-6.0963,-6.1491,-6.477,-6.8336,-7.142,-7.403,-7.7187,-8.1512,-8.2383,-8.3496,-8.5406,-8.6174,-8.6425,-8.6023,-8.5847,-8.5747,-8.5747,-8.5069,-8.4717,-8.4893,-8.3813,-8.316,-8.2985,-8.2056,-8.1503,-8.1328,-8.0574,-8.0122,-7.9947,-7.9394,-7.8917,-7.8515,-7.834,-7.7963,-7.7436,-7.7034,-7.6783,-7.6607,-7.6205,-7.6055,-7.5929,-7.5,-7.4548,-7.4247,0.0,0.0,0.0,0.0,0.0,-5.9039,-6.1702,-6.263,-6.4246,-6.7537,-6.7986,-6.7986,-6.7986,-6.5084,-6.3617,-6.4874,-6.3228,0.0,0.0,0.0,0.0,0.0,0.0,0.0,0.0,0.0,-6.3079,-6.3079,-6.3079,-6.3079,-6.3079,-6.3079,-6.3079,-6.3079,0.0,0.0,0.0,0.0,0.0,0.0,0.0,0.0,-5.9965,0.0,0.0,0.0,0.0,0.0,0.0,0.0,0.0,0.0,0.0,-5.9238,-6.1382,-6.5078,-6.9727,-7.457,-7.8466,-8.1428,-8.311,-8.1478,-7.731,-7.2163,-6.6564,-6.1466,-5.6972,-5.3607,-5.2929,-5.3427,-5.5115,-5.738,-6.0234,-6.3858,-6.7506,-7.1073,-7.44,-7.5225,-7.5942,-7.7296,-7.6158,-7.6833,-8.0725,-8.4064,-8.5998,-8.5998,-8.547,-8.5144,-8.5144,-8.4089,-8.3763,-8.4315,-8.3261,-8.2407,-8.183,-8.1302,-8.0775,-8.0223,-8.0223,-7.9921,-7.9369,-7.8792,-7.854,-7.849,-7.7938,-7.7385,-7.6883,-7.6883,-7.6557,-7.6055,-7.6055,-7.6055,-7.5979,-7.5427,-7.4875,-7.4247,0.0,0.0,0.0,0.0,0.0,0.0,-5.9189,-5.9159,-6.0176,-6.3528,-6.4336,-6.5144,-6.649,-6.4515,-6.3408,-6.4246,-6.254,0.0,0.0,0.0,0.0,0.0,0.0,0.0,0.0,-6.3079,-6.3079,-6.3079,-6.3079,-6.3079,-6.3079,-6.3079,-6.3079,-6.3079,-6.3079,-6.3079,0.0,0.0,0.0,0.0,0.0,-5.898,-6.0087,0.0,0.0,0.0,0.0,0.0,0.0,0.0,0.0,0.0,0.0,0.0,0.0,-5.8855,-6.4414,-7.0246,-7.1629,-7.5023,-7.7299,-7.3522,-7.0506,-6.7317,-6.2898,-5.9508,-5.647,-5.3532,-5.2929,-5.3042,-5.3606,-5.5272,-5.7397,-6.0098,-6.3594,-6.6651,-6.8322,-7.2286,-7.5567,-7.7164,-8.0728,-8.3462,-8.4341,-8.5395,-8.5998,-8.5998,-8.547,-8.5144,-8.5144,-8.3738,-8.3361,-8.4315,-8.2859,-8.2181,-8.2382,-8.1127,-8.0373,-8.0198,-7.9821,-7.9344,-7.8792,-7.8616,-7.8114,-7.7385,-7.721,-7.6833,-7.6306,-7.6306,-7.6205,-7.6055,-7.6055,-7.6055,-7.5929,-7.5025,-7.4573,-7.4197,0.0,0.0,0.0,0.0,0.0,0.0,-5.7723,-5.7812,-5.859,-6.0685,-6.1523,-6.278,-6.5024,-6.3049,-6.2331,-6.4216,-6.2391,0.0,0.0,0.0,0.0,0.0,0.0,0.0,-6.3079,-6.3079,-6.3438,-6.4186,-6.4186,-6.4425,-6.4934,-6.4934,-6.4515,-6.3827,-6.3827,-6.3528,0.0,0.0,0.0,0.0,-5.8418,-5.804,-5.9166,0.0,0.0,0.0,0.0,0.0,0.0,0.0,0.0,0.0,0.0,0.0,0.0,0.0,-5.9341,-6.4716,-6.6559,-6.9853,-7.2103,-6.908,-6.689,-6.453,-6.0839,-5.8303,-5.5993,-5.3457,-5.2929,-5.2929,-5.2929,-5.4479,-5.6446,-5.8485,-6.1528,-6.4324,-6.6488,-7.0363,-7.3753,-7.5952,-8.1029,-8.4165,-8.3838,-8.4918,-8.5671,-8.5671,-8.4968,-8.4416,-8.424,-8.3035,-8.2558,-8.306,-8.1855,-8.1378,-8.1729,-8.0524,-7.9796,-7.957,-7.9218,-7.8766,-7.8214,-7.7988,-7.7536,-7.6858,-7.6657,-7.6381,0.0,-7.6055,-7.6055,-7.603,-7.5829,-7.5753,-7.5603,-7.4523,-7.4096,-7.387,0.0,0.0,0.0,0.0,0.0,0.0,0.0,-5.8201,-5.9009,-5.8919,-5.9548,-6.0924,-6.3318,-6.0894,-6.0625,-6.4366,-6.251,0.0,0.0,0.0,0.0,0.0,0.0,0.0,-6.3079,-6.3079,-6.4006,-6.5862,-6.5922,-6.658,-6.7837,-6.7897,-6.6879,-6.5024,-6.5024,-6.4306,-6.3021,-6.1258,-6.048,-6.0237,-5.6929,-5.644,0.0,0.0,0.0,0.0,0.0,0.0,0.0,0.0,0.0,0.0,0.0,0.0,0.0,0.0,0.0,0.0,0.0,-6.5343,-6.7114,-6.6815,-6.5283,-6.2998,-5.9809,-5.7524,0.0,-5.3356,-5.2929,-5.2955,-5.303,-5.4721,-5.6758,-5.8581,-6.0819,-6.3681,-6.7537,-6.9281,-7.1309,-7.4465,-7.8289,-8.0574,-8.0449,-8.3286,-8.5144,-8.5069,-8.4064,-8.3186,-8.2633,-8.2031,-8.1478,-8.1001,-8.0449,-8.0173,-8.0223,-7.962,-7.9068,-7.8515,-7.849,-7.8164,-7.7637,-7.7109,-7.6858,-7.6783,-7.6281,-7.6055,-7.6055,-7.6004,-7.6004,-7.5954,-7.5402,-7.5176,-7.505,-7.3996,-7.3569,-7.3293,0.0,0.0,0.0,0.0,0.0,0.0,0.0,0.0,0.0,0.0,-5.8291,-5.9368,-5.9488,-5.9279,-5.9907,0.0,0.0,0.0,0.0,0.0,0.0,0.0,0.0,0.0,-6.3079,-6.3079,-6.3528,-6.4485,-6.4994,-6.5682,-6.649,-6.6999,-6.643,-6.5024,-6.5024,-6.4306,-6.3021,-6.1258,-6.048,-6.0298,-5.823,-5.6855,0.0,0.0,0.0,0.0,-5.2563,-5.2578,0.0,0.0,0.0,0.0,0.0,0.0,0.0,0.0,-5.2464,-5.3699,-5.5232,0.0,-6.0531,-5.7744,-5.7273,-5.7097,0.0,-5.5013,-5.4561,-5.3206,-5.2929,-5.3181,-5.4034,-5.393,-5.4719,-5.7657,-5.8962,-6.0371,-6.2637,-6.8953,-7.4804,-7.8942,-8.2533,-8.414,-8.2834,-8.4215,-8.4968,-8.4567,-8.3487,-8.2608,-8.2031,-8.1102,-8.0524,-8.0398,-7.9871,-7.9796,-8.0198,-7.9218,-7.8666,-7.8515,-7.8088,-7.7611,-7.7059,-7.6933,-7.6657,-7.623,-7.6105,-7.6055,-7.603,-7.5603,-7.5427,-7.5377,-7.4824,-7.4623,-7.4523,-7.3845,-7.3318,-7.2765,0.0,0.0,0.0,0.0,0.0,0.0,0.0,0.0,0.0,0.0,-5.8261,-5.8979,-5.862,-5.889,-5.9638,0.0,0.0,0.0,0.0,0.0,0.0,0.0,-6.3079,-6.3079,-6.3079,-6.3079,-6.3677,-6.4934,-6.5592,-6.6729,-6.8256,-6.8615,-6.7926,-6.6311,-6.4814,-6.3737,-6.2933,-6.0448,-5.981,-6.0237,-5.6984,0.0,0.0,0.0,0.0,0.0,-5.2302,-5.2452,0.0,-5.2302,-5.2477,-5.2779,0.0,0.0,0.0,0.0,-5.1297,-5.185,-5.2402,-5.4949,-5.7023,-5.5274,-5.5315,-5.5541,-5.4662,-5.431,-5.3934,-5.3105,-5.2929,-5.3105,-5.3708,-5.3733,-5.4618,-5.7435,-5.835,-6.0261,-6.4731,-7.0581,-7.6256,-8.1202,-8.3587,-8.4667,-8.4315,-8.4315,-8.4165,-8.3612,-8.2533,-8.1679,-8.1102,-8.0524,-8.0097,-7.9846,-7.9545,-7.9394,-7.9444,-7.8817,-7.8264,-7.7762,-7.7461,-7.7034,-7.6507,-7.6507,-7.6331,-7.6055,-7.6055,-7.6055,-7.6004,-7.5477,-7.5251,-7.5151,-7.4347,-7.4046,-7.3971,-7.3418,-7.2841,-7.2238,0.0,0.0,0.0,0.0,0.0,0.0,0.0,0.0,0.0,0.0,0.0,0.0,0.0,0.0,0.0,0.0,0.0,0.0,0.0,0.0,0.0,-6.3079,-6.3079,-6.3109,-6.3228,-6.3139,-6.3977,-6.5862,-6.6819,-6.8495,-7.0769,-7.1278,-7.029,-6.7986,-6.4994,-6.3322,-6.2497,-5.9626,-5.8918,-5.9352,-5.5008,0.0,0.0,0.0,0.0,0.0,0.0,0.0,0.0,-5.2176,-5.2352,-5.2603,-5.1498,0.0,0.0,0.0,0.0,0.0,-5.2126,-5.3909,-5.5541,-5.5666,-5.5842,-5.5792,-5.5164,-5.426,-5.3457,-5.303,-5.2929,-5.303,-5.3356,-5.4185,-5.5563,-5.7874,-5.9078,-6.2395,-7.0054,-7.3242,-7.6682,-8.1805,-8.3135,-8.3864,-8.4466,-8.3813,-8.311,-8.2483,-8.1478,-8.0624,-7.9997,-8.0047,-7.9796,-7.9143,-7.9218,-7.8942,-7.8264,-7.8365,-7.7938,-7.7009,-7.6833,-7.6507,-7.6055,-7.6055,-7.6055,-7.6055,-7.6055,-7.6004,-7.5879,-7.5327,-7.5075,-7.4875,-7.377,-7.3343,-7.3268,-7.269,-7.2138,-7.156,0.0,0.0,0.0,0.0,0.0,0.0,0.0,0.0,0.0,0.0,0.0,0.0,0.0,0.0,0.0,0.0,0.0,0.0,0.0,0.0,0.0,-6.3079,-6.3079,-6.3318,-6.3857,-6.3348,-6.3767,-6.5173,-6.7537,-6.9183,-7.0171,-7.2954,-7.2325,-6.8764,-6.7119,-6.4334,-6.087,-6.0359,-5.8578,-5.6114,-5.5353,0.0,0.0,0.0,0.0,0.0,0.0,0.0,0.0,-5.1599,-5.1774,-5.2026,-5.0896,0.0,0.0,0.0,0.0,0.0,-5.2929,-5.4737,-5.5666,-5.3884,-5.4135,-5.4561,-5.3532,-5.3181,-5.303,-5.2955,-5.2929,-5.3507,-5.5365,-5.5842,-5.682,-5.9515,-6.2356,-6.6815,-7.4146,-7.5929,-7.7687,-8.0901,-8.301,-8.3537,-8.183,-8.2357,-8.2382,-8.1353,-8.07,-7.9871,-7.8842,-7.9243,-7.9043,-7.7988,-7.8415,-7.8164,-7.7134,-7.7586,-7.7737,-7.7561,-7.6632,-7.613,-7.6055,-7.6055,-7.6055,-7.6055,-7.6055,-7.5804,-7.5327,-7.4774,-7.4272,-7.372,-7.2615,-7.2163,-7.2087,-7.1535,-7.0983,-7.038,0.0,0.0,0.0,0.0,0.0,0.0,0.0,0.0,0.0,0.0,0.0,0.0,0.0,0.0,0.0,0.0,0.0,0.0,0.0,-6.3079,-6.3558,-6.4605,-6.3947,-6.3707,-6.3977,-6.4784,-6.5832,-6.7178,-7.053,-7.2684,-7.3672,-7.3402,-7.1727,-6.8884,-6.6101,-6.3802,-6.1762,-5.9933,-5.823,-5.6634,0.0,0.0,0.0,0.0,0.0,0.0,0.0,0.0,0.0,0.0,-5.1649,-5.19,-5.077,0.0,0.0,0.0,0.0,0.0,-5.2026,-5.3607,-5.4687,-5.3984,-5.5315,-5.6445,-5.5013,-5.4461,-5.4336,-5.4637,-5.4461,-5.4762,-5.6369,-5.8127,-6.0738,-6.5007,-6.7744,-7.0706,-7.4623,-7.5904,-7.736,-7.9846,-8.1302,-8.193,-8.1503,-8.1654,-8.1453,-8.065,-7.9796,-7.9068,-7.854,-7.849,-7.8239,-7.7712,-7.7938,-7.7837,-7.7335,-7.7285,-7.7109,-7.6808,-7.6306,-7.6055,-7.6055,-7.6055,-7.6055,-7.6055,-7.6055,-7.5753,-7.5201,-7.4649,-7.3895,-7.3042,-7.2213,-7.1736,-7.1384,-7.0857,-7.0305,-6.9677,0.0,0.0,0.0,0.0,0.0,0.0,0.0,0.0,0.0,0.0,0.0,0.0,0.0,0.0,0.0,0.0,0.0,0.0,0.0,-6.2759,-6.3356,-6.5263,-6.4398,-6.4427,-6.5592,-6.6969,-6.8555,-7.038,-7.418,-7.6784,-7.813,-7.4839,-7.1996,-6.9512,-6.5682,-6.3208,-6.1733,-5.9132,-5.756,-5.6596,0.0,0.0,0.0,0.0,0.0,0.0,0.0,0.0,0.0,0.0,0.0,0.0,0.0,0.0,0.0,-5.0745,-5.0519,-5.0619,-5.1599,-5.2754,-5.3808,-5.426,-5.6068,-5.7625,-5.7097,-5.647,-5.6244,-5.7173,-5.7047,-5.6997,-5.7851,-6.0939,-6.4906,-6.9677,-7.2188,-7.4021,-7.5377,-7.6306,-7.7561,-7.9545,-8.0147,-8.0675,-8.1378,-8.1076,-8.0549,-7.9871,-7.9018,-7.8415,-7.8164,-7.7862,-7.7586,-7.731,-7.7436,-7.7436,-7.731,-7.6883,-7.6532,-7.6256,-7.613,-7.6055,-7.6055,-7.6055,-7.5979,-7.5854,-7.5854,-7.5477,-7.4824,-7.4397,-7.3569,-7.2489,-7.1937,-7.1309,-7.0631,-7.0079,-6.9526,-6.8924,0.0,0.0,0.0,0.0,0.0,0.0,0.0,0.0,0.0,0.0,0.0,0.0,0.0,0.0,0.0,0.0,0.0,0.0,0.0,-6.1585,-6.1436,-6.32,-6.343,-6.5651,-7.0256,-6.9961,-7.1278,-7.445,-7.7801,-8.0434,-8.226,-7.8938,-7.5347,-7.1547,-6.8196,-6.3626,-5.8383,-5.8131,-5.6168,-5.3247,-5.2998,0.0,0.0,0.0,0.0,0.0,0.0,0.0,0.0,0.0,0.0,0.0,0.0,0.0,-5.1272,-5.1222,-5.0845,-5.087,-5.2955,-5.3607,-5.3708,-5.3758,-5.431,-5.5641,-5.8579,-5.8453,-5.8303,-6.0387,-6.0788,-6.0788,-6.0864,-6.4454,-6.817,-7.0631,-7.372,-7.6582,-7.8716,-7.9093,-7.9595,-8.0775,-8.0951,-8.08,-8.0373,-8.0298,-7.9821,-7.8716,-7.8566,-7.8088,-7.7059,-7.7436,-7.7235,-7.6205,-7.6682,-7.6682,-7.618,-7.613,-7.6356,-7.6808,-7.6306,-7.6055,-7.6055,-7.6055,-7.5778,-7.5301,-7.5301,-7.4699,-7.372,-7.3669,-7.2991,-7.1912,-7.1359,-7.0506,-6.9501,-6.8949,-6.8396,-6.7819,0.0,0.0,0.0,0.0,0.0,0.0,0.0,0.0,0.0,0.0,0.0,0.0,0.0,0.0,0.0,0.0,0.0,0.0,-6.1585,-6.191,-6.1992,-6.1708,-6.3077,-6.5383,-6.8679,-7.2298,-7.6036,-7.9776,-8.226,-8.3427,-8.3247,-7.7891,-7.3702,-7.0405,-6.527,-6.1877,-5.9917,-5.7441,-5.5855,-5.4883,-5.3442,-5.2929,0.0,0.0,0.0,0.0,0.0,0.0,0.0,0.0,-5.0845,-5.087,-5.0393,-5.0946,-5.1599,-5.0544,-5.0067,-5.0017,-5.0494,-5.1649,-5.2804,-5.313,-5.4411,-5.6269,-5.8905,-6.0261,-6.1592,-6.3802,-6.453,-6.4881,-6.5233,-6.7794,-7.0681,-7.3242,-7.618,-7.8415,-7.9269,-7.9394,-7.9294,-7.8992,-7.8967,-7.8867,-7.8666,-7.8641,-7.8465,-7.8038,-7.7687,-7.731,-7.6908,-7.6758,-7.6482,-7.608,-7.6256,-7.6281,-7.6055,-7.6055,-7.6155,-7.6356,-7.5804,-7.5552,-7.5527,-7.5201,-7.4925,-7.4724,-7.4724,-7.4297,-7.3569,-7.3217,-7.2389,-7.1259,-7.0029,-6.93,-6.8874,-6.8321,-6.7769,-6.7267,0.0,0.0,0.0,0.0,0.0,0.0,0.0,0.0,0.0,0.0,0.0,0.0,0.0,0.0,0.0,0.0,0.0,0.0,-6.06,-6.1644,-6.16,-6.006,-6.2458,-6.5174,-6.795,-7.4188,-7.9088,-8.2439,-8.5671,-8.594,-8.3307,-7.7951,-7.3911,-7.0914,-6.4901,-6.2148,-6.1734,-5.7809,-5.5992,-5.5631,-5.3663,-5.2929,0.0,0.0,0.0,0.0,0.0,0.0,0.0,0.0,-5.0569,-5.0695,-5.0469,-5.1071,-5.1624,-5.0469,-5.0117,-4.9967,-4.9238,-5.0268,-5.1699,-5.2277,-5.4185,-5.6796,-6.0085,-6.2395,-6.468,-6.7593,-6.7819,-6.7668,-6.8221,-6.9702,-7.161,-7.4046,-7.6933,-7.8917,-7.9093,-7.8967,-7.8566,-7.7787,-7.7712,-7.7712,-7.7712,-7.7712,-7.7637,-7.7461,-7.7084,-7.6808,-7.6632,-7.6105,-7.5879,-7.6055,-7.5879,-7.5804,-7.5804,-7.5804,-7.5703,-7.5527,-7.4975,-7.49,-7.5226,-7.4674,-7.4222,-7.3895,-7.3895,-7.3569,-7.3016,-7.264,-7.1811,-7.0681,-6.92,-6.8522,-6.8296,-6.7744,-6.7292,-6.694,0.0,0.0,0.0,0.0,0.0,0.0,0.0,0.0,0.0,0.0,-6.3079,0.0,0.0,0.0,0.0,0.0,0.0,0.0,-6.06,-6.048,-5.9749,-5.8068,-6.1478,-6.5311,-6.9232,-7.5502,-7.9746,-8.1811,-8.7706,-8.7885,-8.2649,-7.9986,-7.6993,-7.3634,-6.8323,-6.5114,-6.3308,-5.9467,-5.6589,-5.4461,-5.3381,-5.2929,-5.2929,0.0,0.0,0.0,0.0,0.0,0.0,0.0,-5.0042,-4.9891,-5.1548,-5.1724,-5.1297,-5.1272,-5.1272,-5.1021,-4.9891,-4.9992,-5.0569,-5.1147,-5.3381,-5.6897,-6.2446,-6.4957,-6.7392,-7.1836,-7.0581,-6.8823,-6.9376,-6.9928,-7.0832,-7.2464,-7.5527,-7.7888,-7.844,-7.8038,-7.7687,-7.7687,-7.7687,-7.7687,-7.7687,-7.7687,-7.7461,-7.6908,-7.6858,-7.6632,-7.608,-7.5527,-7.5477,-7.603,-7.5502,-7.5226,-7.5226,-7.5226,-7.495,-7.4397,-7.3845,-7.4146,-7.5201,-7.4649,-7.377,-7.2715,-7.2715,-7.2389,-7.1887,-7.1887,-7.1234,-7.0129,-6.9024,-6.8271,-6.7719,-6.7166,-6.6965,-6.689,0.0,0.0,0.0,0.0,0.0,0.0,0.0,0.0,0.0,-6.3079,-6.3079,0.0,0.0,0.0,0.0,0.0,0.0,0.0,-6.06,-6.048,-5.9749,-5.8068,-6.0199,-6.1909,-6.3077,-6.8594,-7.5808,-8.4534,-8.5372,-8.3547,-7.9208,-7.6096,-7.2637,-6.8972,-6.6134,-6.2908,-5.9467,-5.7132,-5.531,-5.3934,-5.3607,-5.3256,-5.298,0.0,0.0,0.0,0.0,0.0,0.0,0.0,0.0,0.0,-5.0293,-5.1297,-5.2051,-5.0092,-5.0067,-5.0268,-4.8385,-4.9113,-5.0645,-5.1624,-5.539,-6.001,-6.4404,-6.6086,-6.8196,-7.3418,-7.2891,-7.156,-7.1736,-7.2213,-7.2765,-7.3268,-7.5452,-7.7185,-7.7335,-7.7235,-7.6984,-7.6582,-7.6532,-7.6532,-7.6532,-7.6532,-7.6482,-7.6306,-7.6306,-7.6055,-7.5502,-7.5327,-7.5126,-7.49,-7.4749,-7.4674,-7.4674,-7.4272,-7.3996,-7.382,-7.2866,-7.2791,-7.3443,-7.2916,-7.2263,-7.156,-7.156,-7.1485,-7.1259,-7.048,-6.9752,-6.8999,-6.7894,-6.7367,-6.7166,-6.6589,-6.6363,-6.6338,0.0,0.0,0.0,0.0,0.0,0.0,0.0,0.0,-6.3079,-6.3079,-6.3079,-6.3079,0.0,0.0,0.0,-6.3079,0.0,0.0,-6.06,-6.048,-5.9413,-5.7085,-5.9469,-6.1649,-6.3226,-6.7892,-7.2934,-7.8184,-7.9346,-7.7799,-7.3702,-7.3779,-7.1863,-6.8414,-6.7886,-6.5216,-6.0974,-5.8648,-5.6545,-5.4662,-5.421,-5.3858,-5.3607,0.0,0.0,0.0,0.0,0.0,0.0,0.0,0.0,0.0,-4.9967,-5.0695,-5.1322,-4.9866,-4.959,-4.9565,-4.8686,-4.9565,-5.1247,-5.3231,-5.7223,-6.1918,-6.6664,-6.9225,-7.1711,-7.5728,-7.4699,-7.3268,-7.392,-7.3619,-7.3468,-7.4146,-7.5552,-7.6632,-7.6833,-7.6682,-7.6431,-7.6105,-7.6055,-7.6055,-7.6055,-7.6055,-7.5954,-7.5753,-7.5728,-7.5502,-7.495,-7.4498,-7.4197,-7.4096,-7.3644,-7.3418,-7.3418,-7.3092,-7.2816,-7.259,-7.1686,-7.1309,-7.1435,-7.1535,-7.1158,-7.043,-7.043,-7.0305,-7.0079,-6.9627,-6.8999,-6.8221,-6.7317,-6.684,-6.6589,-6.6237,-6.6112,-6.6112,0.0,0.0,-6.2361,-6.2959,0.0,0.0,0.0,0.0,-6.3079,-6.3079,-6.3079,-6.3079,0.0,0.0,0.0,-6.3079,0.0,0.0,0.0,-6.0237,-5.8731,-5.5828,-5.9388,-6.3198,-6.6864,-7.0173,-6.9978,-6.5957,-7.128,-7.1696,-6.7597,-7.2563,-7.3244,-7.0479,-7.164,-6.9631,-6.5292,-6.2061,-5.8855,-5.5817,-5.4863,-5.4461,-5.4411,-5.4461,0.0,0.0,0.0,0.0,0.0,0.0,0.0,0.0,-5.0193,-5.0042,-4.9741,-5.0092,-4.9565,-4.9063,-5.0067,-5.0845,-5.2176,-5.5591,-5.9207,-6.345,-6.925,-7.3368,-7.6406,-7.7913,-7.5929,-7.4347,-7.5854,-7.4423,-7.3544,-7.505,-7.5728,-7.623,-7.6733,-7.6331,-7.5979,-7.5979,-7.5979,-7.5954,-7.5904,-7.5954,-7.5753,-7.5201,-7.5126,-7.4849,-7.4297,-7.3242,-7.2841,-7.3268,-7.2288,-7.1736,-7.1686,-7.1636,-7.1359,-7.0857,-7.0305,-6.9777,-6.9325,-7.038,-7.028,-6.93,-6.93,-6.8999,-6.8572,-6.9024,-6.8622,-6.7668,-6.7116,-6.6589,-6.6112,-6.6112,-6.6112,-6.6112,0.0,0.0,-6.2899,-6.3049,0.0,0.0,0.0,0.0,0.0,-6.3079,-6.3079,-6.3079,-6.3079,-6.3079,0.0,-6.3079,-6.1851,0.0,0.0,-5.8013,-5.6979,-5.8024,-6.0187,-6.218,-6.3833,-6.2147,-6.0742,-5.9841,-6.6958,-6.9402,-6.7523,-7.0607,-7.1202,-6.9588,-6.9454,-6.6487,-6.1395,-5.853,-5.5867,-5.3658,-5.3808,-5.3632,-5.3331,-5.3733,-5.3482,0.0,0.0,0.0,0.0,0.0,0.0,0.0,-4.9741,-4.9992,-4.9992,-4.8812,-4.8912,-4.9464,-4.9715,-5.082,-5.2929,-5.7123,-6.2973,-6.8572,-7.2087,-7.4197,-7.5527,-7.5879,-7.608,-7.6281,-7.6632,-7.5954,-7.5452,-7.5829,-7.5979,-7.6105,-7.6205,-7.5753,-7.5402,-7.5402,-7.5402,-7.5251,-7.4824,-7.5151,-7.5176,-7.4623,-7.4197,-7.3694,-7.3117,-7.2439,-7.1736,-7.1008,-7.0732,-7.0405,-6.9978,-6.9551,-6.9275,-6.915,-6.8597,-6.8271,-6.817,-6.8848,-6.8798,-6.8145,-6.8145,-6.8095,-6.7945,-6.7643,-6.7367,-6.7091,-6.6513,-6.6212,-6.6112,-6.6112,-6.6112,-6.6112,0.0,0.0,0.0,0.0,0.0,0.0,0.0,0.0,0.0,-6.3199,-6.3079,-6.3079,-6.3079,-6.3079,0.0,0.0,-6.1525,0.0,0.0,-5.7314,-5.6319,-5.84,-6.0156,-6.0924,-6.0612,-5.9552,-5.78,-5.5529,-6.0579,-6.288,-6.2481,-6.6285,-6.7634,-6.7056,-6.7826,-6.5231,-6.0236,-5.8504,-5.6369,-5.411,-5.411,-5.411,-5.411,-5.411,-5.3607,-5.2829,-5.1975,0.0,0.0,0.0,0.0,0.0,0.0,0.0,-4.9515,-4.8887,-4.8937,-4.9439,-5.0519,-5.2201,-5.5064,-6.0814,-6.5886,-7.0104,-7.2615,-7.3845,-7.4523,-7.4799,-7.5703,-7.6557,-7.6833,-7.6431,-7.6055,-7.6055,-7.5829,-7.5653,-7.5653,-7.5201,-7.4849,-7.4849,-7.4849,-7.4724,-7.4448,-7.4448,-7.4222,-7.3644,-7.3092,-7.2539,-7.1962,-7.1158,-7.0455,-6.9878,-6.9351,-6.8949,-6.8673,-6.8371,-6.8221,-6.8221,-6.7668,-6.7267,-6.7015,-6.7568,-6.7668,-6.7417,-6.7417,-6.7241,-6.699,-6.699,-6.6815,-6.6538,-6.6237,-6.6112,-6.6112,-6.6112,-6.6112,-6.6112,0.0,0.0,0.0,0.0,0.0,0.0,0.0,0.0,0.0,-6.3288,-6.3079,-6.3079,-6.3079,-6.3079,-6.3079,0.0,0.0,0.0,0.0,0.0,0.0,-5.7721,-5.9338,-5.9601,-5.8201,-5.9042,-5.7429,-5.3356,-5.5125,-5.6501,-5.7524,-6.2251,-6.4761,-6.5158,-6.6409,-6.453,-6.0387,-5.9156,-5.7223,-5.4913,-5.4461,-5.4561,-5.4913,-5.4461,-5.3708,-5.2854,-5.2302,-5.2101,-5.195,-5.0921,0.0,0.0,0.0,0.0,-4.8837,-4.9213,-4.8987,-4.9063,-5.1122,-5.3758,-5.7549,-6.4178,-6.7442,-6.9602,-7.1811,-7.274,-7.3343,-7.3996,-7.5,-7.5904,-7.6381,-7.608,-7.5728,-7.5653,-7.5251,-7.4925,-7.4824,-7.4322,-7.3971,-7.3971,-7.3971,-7.3946,-7.3845,-7.3519,-7.3067,-7.2489,-7.1836,-7.1284,-7.0832,-6.9752,-6.9125,-6.9024,-6.8145,-6.7618,-6.7518,-6.7518,-6.7467,-6.7367,-6.6815,-6.6287,-6.5835,-6.6413,-6.6739,-6.6815,-6.6815,-6.6564,-6.6137,-6.6639,-6.6538,-6.6112,-6.6112,-6.6112,-6.6112,-6.6112,-6.6112,-6.6112,0.0,0.0,0.0,0.0,0.0,0.0,0.0,0.0,0.0,0.0,-6.3079,-6.3079,-6.3079,-6.3079,-6.3079,-6.3079,-6.0205,0.0,0.0,0.0,0.0,-5.6356,-5.7114,-5.7847,-5.8554,-5.739,-5.6182,-5.5064,-5.492,-5.6334,-5.9207,-6.2794,-6.5659,-6.7589,-6.478,-6.2596,-6.0814,-5.6872,-5.4461,-5.3256,-5.3181,-5.3181,-5.3256,-5.3181,-5.3055,-5.2854,-5.2302,-5.2101,-5.2,-5.1373,-5.1172,0.0,0.0,0.0,-4.8686,-4.8259,-4.8083,-4.8309,-4.959,-5.4009,-5.9307,-6.3601,-6.6011,-6.7894,-7.0079,-7.1008,-7.1711,-7.274,-7.3845,-7.4649,-7.4724,-7.4674,-7.4473,-7.3996,-7.387,-7.3644,-7.3142,-7.259,-7.2238,-7.2238,-7.2238,-7.2062,-7.1585,-7.1887,-7.1912,-7.1334,-7.0355,-6.9752,-6.9677,-6.8622,-6.7794,-6.7317,-6.7166,-6.684,-6.6338,-6.6338,-6.6086,-6.5609,-6.5057,-6.4756,-6.4705,-6.5258,-6.5785,-6.6237,-6.6237,-6.6187,-6.6112,-6.6187,-6.6187,-6.6112,-6.6112,-6.6112,-6.6112,-6.6112,-6.6112,-6.6112,0.0,0.0,0.0,0.0,0.0,0.0,0.0,0.0,0.0,0.0,0.0,-6.3079,-6.3079,-6.3079,-6.2701,-6.1703,-5.938,0.0,0.0,0.0,0.0,-5.5239,-5.5817,-5.6194,-5.6369,-5.5666,-5.4863,-5.4009,-5.4386,-5.657,-6.0462,-6.2567,-6.4628,-6.6503,-6.3963,-6.1868,-6.0035,-5.6846,-5.4838,-5.3783,-5.3181,-5.3105,-5.3331,-5.303,-5.2929,-5.2904,-5.2653,-5.2578,-5.2477,-5.1925,-5.1749,-5.1599,-5.0695,0.0,0.0,0.0,-4.8134,-4.9113,-5.2402,-5.5717,-5.9332,-6.3802,-6.5484,-6.6614,-6.8823,-6.9526,-6.9928,-7.0732,-7.1284,-7.2012,-7.3242,-7.3468,-7.3393,-7.3142,-7.259,-7.2113,-7.1836,-7.1058,-7.0531,-7.0531,-7.0807,-7.0757,-7.0229,-7.038,-7.0305,-6.9752,-6.8974,-6.8522,-6.8522,-6.7769,-6.7066,-6.6513,-6.6187,-6.576,-6.5208,-6.5183,-6.5082,-6.4831,-6.458,-6.4454,-6.4479,-6.4731,-6.5132,-6.566,-6.5986,-6.5936,-6.566,-6.566,-6.566,-6.566,-6.566,-6.5835,-6.6112,-6.6112,-6.6112,-6.6112,0.0,0.0,0.0,0.0,0.0,0.0,0.0,0.0,0.0,0.0,0.0,-6.3079,-6.3079,0.0,0.0,0.0,-5.8543,0.0,0.0,0.0,0.0,-5.4336,-5.4737,-5.4762,-5.4361,-5.4336,-5.3884,-5.2929,-5.416,-5.7123,-6.1617,-6.2873,-6.4705,-6.689,-6.4806,-6.2571,-6.0186,-5.7851,-5.6369,-5.544,-5.3658,-5.3155,-5.3457,-5.308,-5.2929,-5.2929,-5.2929,-5.2929,-5.2854,-5.2452,-5.2302,-5.2126,-5.0996,-5.0167,0.0,0.0,0.0,-4.9138,-5.3708,-5.5767,-5.7801,-6.2621,-6.4128,-6.5032,-6.7267,-6.7769,-6.797,-6.8673,-6.8698,-6.915,-7.0932,-7.161,-7.1836,-7.1711,-7.1008,-7.0405,-7.0255,-6.9551,-6.9024,-6.9024,-6.9376,-6.9476,-6.9074,-6.9024,-6.8848,-6.8447,-6.7894,-6.7518,-6.7392,-6.684,-6.6287,-6.571,-6.5308,-6.4881,-6.4454,-6.4329,-6.4279,-6.4279,-6.4128,-6.4053,-6.4053,-6.4203,-6.4479,-6.4906,-6.5459,-6.5459,-6.5082,-6.5233,-6.5283,-6.5283,-6.5283,-6.5534,-6.5886,-6.5735,-6.5785,-6.5911,0.0,0.0,0.0,0.0,0.0,0.0,0.0,0.0,0.0,0.0,0.0,-6.3079,-6.3079,-6.1644,-6.06,-6.048,-5.7442,-5.4809,-5.2998,-5.2955,0.0,-5.3733,-5.3783,0.0,-5.3758,-5.3758,-5.3482,-5.2929,-5.4561,-5.7876,-6.2772,-6.4404,-6.7442,-7.1435,-6.8196,-6.5233,-6.2471,-5.9734,-5.8554,-5.8127,-5.4411,-5.2955,-5.2955,-5.2929,-5.2929,-5.2929,-5.2929,-5.2929,-5.2929,-5.2904,-5.2879,-5.2678,-5.1574,-5.0469,-4.9364,0.0,0.0,0.0,-5.0594,-5.2352,-5.426,-5.8679,-6.0989,-6.2747,-6.4957,-6.5459,-6.5785,-6.689,-6.6664,-6.6488,-6.7166,-6.8547,-6.9451,-6.8924,-6.8798,-6.8572,-6.8045,-6.7919,-6.7869,-6.7869,-6.7919,-6.7919,-6.7894,-6.7869,-6.7869,-6.7844,-6.7317,-6.6764,-6.6237,-6.5685,-6.5132,-6.458,-6.453,-6.4505,-6.4454,-6.3977,-6.3726,-6.3726,-6.3174,-6.2923,-6.2923,-6.3475,-6.3751,-6.3802,-6.4329,-6.453,-6.4555,-6.5082,-6.5283,-6.5283,-6.5283,-6.5308,-6.5283,-6.4756,-6.4881,-6.5333,0.0,0.0,0.0,0.0,0.0,0.0,0.0,0.0,0.0,0.0,0.0,0.0,0.0,-5.9256,-5.8418,-5.7314,-5.5115,-5.3538,-5.2929,-5.2929,0.0,-5.3206,-5.3206,-5.3206,-5.3206,-5.3206,-5.3105,-5.2929,-5.3858,-5.6671,-6.1266,-6.2923,-6.5308,-6.8145,-6.7342,-6.6011,-6.4128,-5.996,-5.7775,-5.6872,-5.4411,-5.3231,-5.2929,-5.2929,-5.2929,-5.2929,-5.2929,-5.2929,-5.2929,-5.2929,-5.2678,-5.2277,-5.1523,-5.0268,-4.8786,-4.7305,-4.7104,-4.7832,-5.0117,-5.1548,-5.3281,-5.6997,-5.9156,-6.0788,-6.232,-6.3751,-6.4781,-6.4856,-6.4957,-6.5107,-6.5333,-6.6438,-6.7241,-6.7041,-6.6714,-6.6413,-6.6212,-6.5886,-6.5785,-6.6137,-6.6488,-6.6714,-6.6714,-6.7066,-6.7116,-6.6739,-6.6212,-6.581,-6.5584,-6.5057,-6.453,-6.3977,-6.3977,-6.3802,-6.3425,-6.3224,-6.3149,-6.3149,-6.2923,-6.2822,-6.2847,-6.3048,-6.3149,-6.3149,-6.335,-6.3626,-6.3977,-6.4178,-6.4254,-6.4254,-6.4254,-6.4479,-6.4731,-6.453,-6.458,-6.4806,0.0,0.0,0.0,0.0,0.0,-5.7277,-5.7941,-5.7496,-5.7369,-5.7941,0.0,0.0,0.0,0.0,-5.6466,-5.4742,-5.3538,-5.2929,-5.2929,-5.2929,-5.2929,-5.2929,-5.2929,-5.2929,-5.2929,-5.2929,-5.2929,-5.2929,-5.3632,-5.5968,-5.9809,-6.1291,-6.345,-6.6061,-6.5157,-6.5157,-6.5609,-6.1943,-5.9633,-5.8177,-5.539,-5.4285,-5.431,-5.431,-5.4436,-5.4561,-5.4386,-5.4059,-5.3658,-5.3105,-5.2427,-5.1774,-5.1398,-4.9992,-4.8234,-4.6954,-4.7079,-4.7883,-4.9012,-5.0268,-5.2101,-5.5616,-5.7022,-5.8127,-6.0387,-6.1743,-6.2571,-6.2797,-6.3274,-6.3701,-6.3877,-6.4354,-6.4906,-6.5459,-6.5258,-6.5007,-6.5007,-6.4705,-6.4605,-6.4982,-6.5333,-6.5559,-6.5559,-6.5911,-6.5961,-6.5584,-6.5233,-6.4931,-6.4756,-6.4404,-6.3952,-6.3425,-6.34,-6.3224,-6.2822,-6.2822,-6.2822,-6.2822,-6.2822,-6.2822,-6.2822,-6.2822,-6.2822,-6.2822,-6.2822,-6.3048,-6.3425,-6.3626,-6.3701,-6.3701,-6.3701,-6.3902,-6.4178,-6.3977,-6.4028,-6.4279,0.0,0.0,-5.7941,-5.7878,-5.6466,-5.588,-5.7624,-5.6375,-5.5945,-5.7624,0.0,0.0,0.0,0.0,0.0,-5.3117,-5.3005,-5.298,-5.2929,-5.2929,-5.2929,-5.2929,-5.2929,-5.2929,-5.2929,-5.2929,-5.2929,-5.2929,-5.4009,-5.5917,-5.8629,-5.9709,-6.2245,-6.5735,-6.1994,-6.2722,-6.6689,-6.5509,-6.4128,-6.232,-5.7374,-5.6068,-5.7072,-5.7022,-5.7374,-5.7826,-5.7248,-5.6369,-5.5214,-5.3607,-5.2327,-5.1373,-5.1297,-4.9715,-4.7832,-4.728,-4.7093,-4.7093,0.0,0.0,0.0,-5.421,-5.4361,-5.4737,-5.9056,-5.9257,-5.9006,-6.0738,-6.1492,-6.2044,-6.2647,-6.2345,-6.2496,-6.4078,-6.4379,-6.4404,-6.4404,-6.4404,-6.4429,-6.4429,-6.4454,-6.4454,-6.4454,-6.4454,-6.4454,-6.4454,-6.4454,-6.4228,-6.3726,-6.3676,-6.34,-6.2847,-6.2822,-6.2822,-6.2822,-6.2822,-6.2822,-6.2822,-6.2822,-6.2822,-6.2822,-6.2822,-6.2822,-6.2822,-6.2822,-6.2822,-6.2873,-6.3425,-6.3676,-6.3676,-6.3676,-6.3676,-6.3601,-6.3048,-6.3174,-6.3751,0.0,-5.6141,-5.5748,-5.45,-5.3945,-5.3742,-5.4257,-5.3878,-5.3742,0.0,0.0,0.0,-5.4325,-5.4953,-5.5228,-5.4783,-5.4712,-5.421,-5.3005,-5.2929,-5.2929,-5.2929,-5.2929,-5.2929,-5.2929,-5.2929,-5.2929,-5.2929,-5.3231,-5.4185,-5.5742,-5.6846,-5.8554,-6.0738,-6.0889,-6.1165,-6.1416,-5.9106,-5.9257,-6.0688,-5.6897,-5.652,-5.8102,-5.6897,-5.7047,-5.7826,-5.7248,-5.7097,-5.7072,-5.6194,-5.5164,-5.3833,-5.1423,-4.9665,-4.836,-4.7405,-4.7405,-4.7531,-4.6753,0.0,0.0,0.0,0.0,0.0,-5.3406,-5.416,-5.534,-5.8202,-5.8604,-5.8956,-6.0688,-6.124,-6.1416,-6.1466,-6.2144,-6.2697,-6.2697,-6.3023,-6.345,-6.3852,-6.3902,-6.4053,-6.4429,-6.4454,-6.4454,-6.4454,-6.4128,-6.3852,-6.3701,-6.3299,-6.2998,-6.2847,-6.2822,-6.2822,-6.2822,-6.2822,-6.2822,-6.2822,-6.2822,-6.2822,-6.2822,-6.2822,-6.2822,-6.2822,-6.2822,-6.2822,-6.2847,-6.2998,-6.3073,-6.3073,-6.3073,-6.3073,-6.3048,-6.2898,-6.2923,-6.3199,-5.4515,-5.4366,-5.4209,-5.3715,-5.3808,-5.3959,-5.3959,-5.3959,-5.3858,0.0,0.0,0.0,-5.3884,-5.5641,-5.6495,-5.5792,-5.5516,-5.4787,-5.3356,-5.3055,-5.2929,-5.2929,-5.2929,-5.2929,-5.2929,-5.2929,-5.2929,-5.2929,-5.2929,-5.3256,-5.3884,-5.4536,-5.5591,-5.6972,-5.7499,-5.7876,-5.7951,-5.544,-5.6269,-5.9207,-5.7951,-5.8353,-5.9684,-5.9433,-6.001,-6.0889,-6.0085,-6.0035,-6.006,-5.8328,-5.6696,-5.4762,-5.1197,-4.9967,-4.9515,-4.7933,-4.8008,-4.8385,-4.728,-4.7606,-4.841,-4.9038,0.0,0.0,-5.1523,-5.1749,-5.2477,-5.5817,-5.642,-5.6872,-5.8629,-5.9232,-5.9433,-5.9332,-6.006,-6.0889,-6.1567,-6.1943,-6.2345,-6.2923,-6.2998,-6.3199,-6.3726,-6.3776,-6.3776,-6.3776,-6.35,-6.3324,-6.3324,-6.2998,-6.2822,-6.2822,-6.2822,-6.2822,-6.2822,-6.2822,-6.2822,-6.2822,-6.2822,-6.2822,-6.2822,-6.2822,-6.2822,-6.2822,-6.2822,-6.2822,-6.2822,-6.2822,-6.2822,-6.2822,-6.2822,-6.2822,-6.2822,-6.2822,-6.2822,-6.2948,0.0,-5.2929,-5.3281,-5.4386,-5.5013,-5.544,-5.5541,-5.5566,-5.5415,0.0,-5.4084,-5.4135,-5.5842,-5.7675,-5.8177,-5.6696,-5.5968,-5.5064,-5.3884,-5.3256,-5.2929,-5.2929,-5.2929,-5.2929,-5.2929,-5.2929,-5.2929,-5.2929,-5.2929,-5.2929,-5.2929,-5.2929,-5.3457,-5.4336,-5.3356,-5.4009,-5.5742,-5.3959,-5.4938,-5.7851,-5.9408,-6.0638,-6.1692,-6.3149,-6.4404,-6.5258,-6.4228,-6.3877,-6.3375,-6.0161,-5.7575,-5.5039,-5.1373,-5.077,-5.0946,-4.8812,-4.8862,-4.9364,-4.836,0.0,0.0,-5.1096,-4.9515,0.0,-5.1398,-5.0695,-5.0293,-5.3457,-5.4436,-5.5114,-5.6344,-5.6721,-5.6947,-5.7198,-5.8027,-5.9207,-6.0864,-6.114,-6.1366,-6.1843,-6.1918,-6.2119,-6.2672,-6.2747,-6.2772,-6.2822,-6.2822,-6.2822,-6.2822,-6.2772,-6.2747,-6.2747,-6.2747,-6.2697,-6.2647,-6.2772,-6.2772,-6.2647,-6.2772,-6.2797,-6.2747,-6.2797,-6.2822,-6.2822,-6.2822,-6.2822,-6.2822,-6.2822,-6.2822,-6.2822,-6.2822,-6.2822,-6.2822,-6.2822,-6.2822,-6.2923,-5.2904,-5.2929,-5.3281,-5.4386,-5.5013,-5.5691,-5.657,-5.6721,-5.6846,-5.7198,-5.7047,-5.7725,-5.9834,-5.9633,-5.9207,-5.888,-5.7549,-5.6043,-5.4486,-5.3482,-5.2929,-5.2929,-5.2929,-5.2929,-5.2929,-5.2929,-5.2929,-5.2929,-5.2929,-5.2929,-5.2929,-5.2929,-5.303,-5.3231,-5.303,-5.3155,-5.3632,-5.4536,-5.5541,-5.6646,-5.7876,-6.0563,-6.3827,-6.3726,-6.463,-6.586,-6.5208,-6.4982,-6.4605,-6.2195,-5.9608,-5.7047,-5.4913,-5.3206,-5.1674,-5.0318,-4.9766,-4.954,-4.9314,-4.9339,-4.9213,-4.8335,-4.8937,0.0,-4.738,-4.7606,-4.8812,-5.082,-5.0971,-5.1348,-5.3356,-5.4813,-5.5164,-5.3507,-5.5942,-5.8629,-6.0261,-6.0889,-6.1215,-6.1341,-6.1341,-6.1567,-6.2119,-6.2169,-6.2345,-6.2797,-6.2822,-6.2822,-6.2822,-6.2395,-6.2169,-6.2169,-6.2169,-6.1943,-6.1517,-6.2395,-6.2395,-6.1517,-6.2395,-6.2596,-6.2169,-6.2621,-6.2822,-6.2822,-6.2822,-6.2822,-6.2822,-6.2822,-6.2822,-6.2822,-6.2822,-6.2822,-6.2822,-6.2822,-6.2822,-6.2923,-5.298,-5.313,-5.3833,-5.5516,-5.6269,-5.7097,-5.8453,-5.8679,-5.878,-5.9056,-5.9834,-6.0462,-6.0713,-6.0512,-6.001,-5.9182,-5.7323,-5.5742,-5.4637,-5.3532,-5.2929,-5.2929,-5.2929,-5.3181,-5.3733,-5.3206,-5.3206,-5.3758,-5.3206,-5.2929,-5.2929,-5.2929,-5.2628,-5.2126,-5.2678,-5.2628,-5.2201,-5.3582,-5.4637,-5.5666,-5.873,-6.1592,-6.4178,-6.5007,-6.6011,-6.689,-6.6338,-6.576,-6.4881,-6.2094,-6.0613,-5.9357,-5.6043,-5.4988,-5.4561,-5.2327,-5.1649,-5.1473,-5.0645,-5.0444,-5.0368,-5.0092,-4.959,0.0,0.0,-4.7079,-4.7054,-4.9841,-4.9113,-4.8636,-5.087,-5.1473,-5.1674,-5.1699,-5.3557,-5.5767,-5.7951,-5.9257,-6.0161,-6.0688,-6.0512,-6.0663,-6.1517,-6.1843,-6.2245,-6.2797,-6.2822,-6.2697,-6.2446,-6.2144,-6.1893,-6.1592,-6.1592,-6.1466,-6.119,-6.1743,-6.1743,-6.119,-6.1743,-6.1994,-6.2019,-6.2295,-6.2571,-6.2822,-6.2822,-6.2822,-6.2822,-6.2822,-6.2822,-6.2822,-6.2822,-6.2822,-6.2822,-6.2822,-6.2822,-6.2873,-5.298,-5.3256,-5.4185,-5.6219,-5.7223,-5.8278,-5.991,-6.0337,-6.0563,-6.0763,-6.1994,-6.2345,-6.1115,-6.0989,-6.0688,-5.991,-5.7097,-5.5415,-5.5516,-5.3884,-5.2829,-5.2628,-5.2804,-5.3181,-5.3758,-5.3206,-5.3306,-5.4084,-5.3306,-5.2879,-5.2779,-5.2879,-5.2402,-5.1473,-5.2377,-5.2452,-5.195,-5.2628,-5.3984,-5.6018,-6.006,-6.2169,-6.3149,-6.5685,-6.6915,-6.7292,-6.7066,-6.6312,-6.5007,-6.2094,-6.1592,-6.1391,-5.7047,-5.6771,-5.7499,-5.4712,-5.4034,-5.3909,-5.2703,-5.2402,-5.2427,-5.2578,-5.0971,-4.9364,0.0,0.0,0.0,-4.9063,-4.7857,-4.6853,-4.8636,-4.8309,-4.8309,-5.0042,-5.1247,-5.2754,-5.5089,-5.6671,-5.8077,-5.9382,-5.9131,-5.9307,-6.0437,-6.104,-6.1692,-6.2446,-6.2421,-6.2195,-6.1868,-6.1843,-6.1592,-6.104,-6.1014,-6.0964,-6.0864,-6.1065,-6.1065,-6.0864,-6.109,-6.1416,-6.1843,-6.1943,-6.2295,-6.2822,-6.2822,-6.2822,-6.2822,-6.2822,-6.2822,-6.2822,-6.2822,-6.2822,-6.2822,-6.2822,-6.2822,-6.2822,-5.2854,-5.298,-5.3406,-5.4637,-5.6118,-5.7675,-5.9332,-6.0437,-6.1441,-6.2421,-6.2722,-6.2948,-6.3274,-6.1567,-6.1341,-6.3626,-5.8654,-5.6394,-5.878,-5.5164,-5.2503,-5.1498,-5.2402,-5.2277,-5.0921,-5.2226,-5.2754,-5.2377,-5.2754,-5.2678,-5.2201,-5.2703,-5.2603,-5.2026,-5.2151,-5.2955,-5.4135,-5.3281,-5.5541,-5.9709,-6.0286,-6.0286,-6.0387,-6.4078,-6.5509,-6.571,-6.6639,-6.6564,-6.581,-6.4454,-6.3425,-6.237,-6.0311,-5.9156,-5.8428,-5.7575,-5.6671,-5.5993,-5.6294,-5.6369,-5.5591,-5.2302,-5.3005,-5.3055,-4.7355,0.0,-4.8611,-4.7079,0.0,-4.6376,-4.6627,0.0,0.0,-4.6903,-4.9414,-5.1649,-5.2452,-5.3155,-5.4361,-5.642,-5.662,-5.7022,-5.8152,-5.878,-5.9734,-6.1266,-6.0889,-6.0814,-6.1266,-6.1266,-6.1014,-6.0437,-6.0412,-6.0186,-5.9684,-6.0688,-6.0688,-5.9709,-6.0713,-6.1215,-6.1291,-6.1793,-6.2295,-6.2822,-6.2822,-6.2822,-6.2822,-6.2822,-6.2822,-6.2822,-6.2822,-6.2822,-6.2822,-6.2822,-6.2822,-6.2822,-5.2352,-5.2703,-5.3381,-5.4787,-5.5616,-5.6846,-5.9131,-6.1291,-6.2797,-6.3274,-6.3601,-6.4128,-6.5007,-6.2822,-6.2044,-6.3852,-6.0186,-5.7851,-5.8052,-5.5742,-5.416,-5.3683,-5.3181,-5.3206,-5.3758,-5.3231,-5.2955,-5.303,-5.2628,-5.2176,-5.1649,-5.2201,-5.2151,-5.1649,-5.2302,-5.3306,-5.4561,-5.4411,-5.5566,-5.76,-5.9207,-5.9131,-5.8654,-6.4178,-6.6262,-6.6287,-6.6438,-6.6538,-6.6287,-6.4228,-6.3852,-6.3852,-6.1542,-6.0713,-6.0437,-5.9558,-5.8529,-5.7575,-5.7148,-5.7022,-5.6495,-5.4235,-5.3808,-5.3055,-4.964,-4.8485,-4.8083,-4.7807,0.0,0.0,0.0,0.0,0.0,0.0,-4.7556,-4.9289,-5.0469,-5.0845,-5.2176,-5.5365,-5.4888,-5.4988,-5.6746,-5.7123,-5.7826,-5.9182,-5.9332,-5.9483,-5.9734,-6.0337,-6.0412,-5.9859,-5.9834,-5.9734,-5.9483,-5.996,-5.996,-5.9508,-5.9985,-6.0362,-6.0688,-6.1266,-6.1843,-6.237,-6.2697,-6.2822,-6.2822,-6.2822,-6.2822,-6.2822,-6.2822,-6.2822,-6.2822,-6.2822,-6.2822,-6.2822,-5.1749,-5.2327,-5.313,-5.4486,-5.4963,-5.6043,-5.8654,-6.104,-6.2647,-6.2973,-6.3475,-6.4379,-6.5936,-6.4053,-6.3576,-6.576,-6.2697,-6.0186,-5.9131,-5.7047,-5.5516,-5.4737,-5.3708,-5.3683,-5.4838,-5.3733,-5.3105,-5.303,-5.2402,-5.1825,-5.1297,-5.185,-5.19,-5.1548,-5.2829,-5.416,-5.5516,-5.5917,-5.6872,-5.8252,-5.9784,-6.006,-6.001,-6.4404,-6.6463,-6.689,-6.6312,-6.6388,-6.6413,-6.4228,-6.4304,-6.4906,-6.2772,-6.227,-6.227,-6.1291,-6.0362,-5.9382,-5.8227,-5.8052,-5.765,-5.5465,-5.4135,-5.2854,-5.082,-4.9264,-4.836,-4.8711,-4.7531,0.0,0.0,0.0,-4.5196,-4.6024,0.0,-4.7807,-4.9188,-4.9113,-5.0142,-5.3406,-5.3155,-5.3507,-5.5566,-5.5491,-5.5892,-5.7323,-5.7499,-5.775,-5.8227,-5.9156,-5.9458,-5.9056,-5.9207,-5.9282,-5.9282,-5.9433,-5.9483,-5.9483,-5.9483,-5.9784,-6.0337,-6.0738,-6.1341,-6.2019,-6.2421,-6.2697,-6.2822,-6.2822,-6.2822,-6.2822,-6.2822,-6.2822,-6.2822,-6.2822,-6.2822,-6.2822,-5.1096,-5.1749,-5.2327,-5.2904,-5.3884,-5.534,-5.76,-5.8905,-6.0035,-6.1115,-6.1743,-6.3124,-6.581,-6.5082,-6.6338,-7.1209,-6.6689,-6.3751,-6.4203,-5.9684,-5.5792,-5.313,-5.3432,-5.298,-5.1473,-5.2904,-5.2904,-5.1348,-5.185,-5.1825,-5.1297,-5.185,-5.2101,-5.2151,-5.3783,-5.5742,-5.7801,-5.7801,-6.0588,-6.4831,-6.3324,-6.3952,-6.5685,-6.4329,-6.5132,-6.689,-6.6312,-6.6112,-6.6036,-6.5434,-6.5258,-6.5183,-6.4555,-6.4028,-6.3525,-6.2923,-6.2345,-6.1642,-6.0512,-6.0613,-5.9885,-5.4988,-5.4135,-5.3381,-4.9012,-4.964,-5.0695,-4.9088,-4.9992,-5.0569,-4.8962,-4.8184,-4.7782,-4.7832,-4.7857,0.0,0.0,-4.7883,-4.7857,-4.9565,-5.1172,-5.2779,-5.4461,-5.3658,-5.3934,-5.6093,-5.529,-5.539,-5.6997,-5.765,-5.7976,-5.7951,-5.8453,-5.8755,-5.8755,-5.9257,-5.9483,-5.9483,-5.9483,-5.9784,-6.0311,-6.0337,-6.0964,-6.1994,-6.2019,-6.2345,-6.2822,-6.2822,-6.2822,-6.2822,-6.2822,-6.2822,-6.2822,-6.2822,-6.2822,-6.2822,-5.1122,-5.1724,-5.2176,-5.2352,-5.2678,-5.4059,-5.7399,-5.8805,-6.0814,-6.453,-6.4856,-6.6488,-7.1108,-7.0606,-7.0907,-7.3343,-7.0857,-6.8271,-6.6262,-6.3199,-6.0864,-5.9533,-5.7549,-5.6394,-5.6219,-5.529,-5.4009,-5.2377,-5.2201,-5.1825,-5.1272,-5.1473,-5.195,-5.2678,-5.3582,-5.5641,-5.8504,-5.9608,-6.124,-6.3124,-6.3324,-6.4931,-6.7091,-6.5785,-6.576,-6.6388,-6.6187,-6.6112,-6.6086,-6.5886,-6.5584,-6.5258,-6.5082,-6.4404,-6.3651,-6.345,-6.2998,-6.2471,-6.2094,-6.2395,-6.1893,-5.7976,-5.6872,-5.5792,-5.2076,-5.2076,-5.2302,-5.0268,-5.0921,-5.1197,-4.9138,-4.8611,-4.836,0.0,0.0,-4.8284,0.0,-4.7054,-4.7205,-4.8862,-5.0193,-5.1071,-5.1247,-5.1272,-5.1724,-5.2854,-5.2955,-5.3658,-5.5315,-5.662,-5.7323,-5.7323,-5.7876,-5.8353,-5.873,-5.8905,-5.9156,-5.9483,-5.9483,-5.9583,-5.9784,-6.0161,-6.0537,-6.0939,-6.1667,-6.2119,-6.232,-6.2672,-6.2822,-6.2822,-6.2822,-6.2822,-6.2822,-6.2822,-6.2822,-6.2822,-5.1498,-5.1548,-5.1624,-5.2026,-5.2578,-5.3959,-5.6846,-5.9408,-6.2295,-6.5911,-6.7091,-6.9325,-7.392,-7.3946,-7.4222,-7.5753,-7.4523,-7.2012,-6.812,-6.6538,-6.4705,-6.2345,-6.0387,-5.9257,-5.9006,-5.7399,-5.5465,-5.3206,-5.3055,-5.2503,-5.1574,-5.1574,-5.195,-5.2678,-5.4009,-5.6018,-5.8579,-6.104,-6.2621,-6.355,-6.4479,-6.5685,-6.684,-6.6086,-6.5936,-6.6061,-6.566,-6.566,-6.581,-6.581,-6.571,-6.5584,-6.5584,-6.4982,-6.4228,-6.4028,-6.3701,-6.3324,-6.2923,-6.3249,-6.2973,-6.001,-5.9006,-5.7826,-5.431,-5.4386,-5.4561,-5.2352,-5.2628,-5.2955,-5.19,-5.0921,-5.0067,0.0,0.0,0.0,0.0,-4.6828,-4.7079,-4.8309,-4.9439,-5.0067,-4.9891,-5.0393,-5.0795,-5.0971,-5.1297,-5.2226,-5.3909,-5.4988,-5.5842,-5.642,-5.6997,-5.7549,-5.8127,-5.8328,-5.8704,-5.9232,-5.9232,-5.9307,-5.9508,-5.9859,-6.0236,-6.0663,-6.1391,-6.1943,-6.232,-6.2672,-6.2822,-6.2822,-6.2822,-6.2822,-6.2822,-6.2822,-6.2822,-6.2822,-5.2026,-5.1222,-5.0896,-5.2,-5.3457,-5.4888,-5.6143,-6.0437,-6.4028,-6.5358,-6.8396,-7.151,-7.4347,-7.5126,-7.6281,-7.839,-7.7561,-7.4875,-7.0079,-6.9677,-6.7241,-6.1893,-6.2044,-6.1492,-5.9809,-5.9106,-5.7173,-5.3959,-5.4336,-5.3708,-5.2176,-5.2126,-5.2101,-5.2226,-5.4963,-5.6821,-5.8152,-6.2019,-6.463,-6.6212,-6.6764,-6.6338,-6.5358,-6.5283,-6.5584,-6.5886,-6.4856,-6.4781,-6.5208,-6.5233,-6.5584,-6.6036,-6.6061,-6.571,-6.5183,-6.4655,-6.4505,-6.4279,-6.3224,-6.3375,-6.3299,-6.1065,-6.0487,-5.9458,-5.5742,-5.6545,-5.7424,-5.5214,-5.5214,-5.5867,-5.6746,-5.4737,-5.2754,0.0,0.0,0.0,-4.7506,-4.7143,-4.7355,-4.7883,-4.8887,-4.9766,-5.0293,-5.0845,-5.0946,-5.0419,-5.0343,-5.1071,-5.2804,-5.2904,-5.3683,-5.529,-5.5892,-5.647,-5.7072,-5.7625,-5.8177,-5.8755,-5.8755,-5.9006,-5.9483,-5.9483,-6.0085,-6.114,-6.1165,-6.1793,-6.2797,-6.2822,-6.2822,-6.2822,-6.2822,-6.2822,-6.2822,-6.2822,-6.2822,-6.2822,-5.1021,-5.1624,-5.2503,-5.3181,-5.3331,-5.4411,-5.76,-6.0211,-6.355,-6.8346,-7.1184,-7.4096,-7.7712,-7.8239,-7.854,-7.9118,-7.8139,-7.6607,-7.4498,-7.2816,-7.0882,-6.8648,-6.6714,-6.5107,-6.3827,-6.0839,-5.8679,-5.7424,-5.5089,-5.3708,-5.3281,-5.2477,-5.2101,-5.2201,-5.4561,-5.6445,-5.8127,-6.1592,-6.4479,-6.6764,-6.6915,-6.6789,-6.6413,-6.5157,-6.4756,-6.4856,-6.4555,-6.4304,-6.4153,-6.4555,-6.4781,-6.4957,-6.5383,-6.5409,-6.5258,-6.5107,-6.5082,-6.5007,-6.4731,-6.5057,-6.5157,-6.3751,-6.2797,-6.1718,-5.9885,-5.9935,-5.9834,-5.8027,-5.8077,-5.7775,-5.5591,-5.426,-5.2929,-5.1147,0.0,0.0,-4.8435,-4.7983,-4.7908,-4.8485,-4.8812,-4.9038,-4.9188,-4.9339,-4.9515,-4.9791,-4.9439,-5.0117,-5.2201,-5.2703,-5.3507,-5.4737,-5.5315,-5.6269,-5.7675,-5.7826,-5.8378,-5.9307,-5.9307,-5.9357,-5.9483,-5.9483,-5.9885,-6.0563,-6.0989,-6.1567,-6.2245,-6.2647,-6.2822,-6.2822,-6.2822,-6.2822,-6.2822,-6.2822,-6.2822,-6.2822,-5.1272,-5.2703,-5.426,-5.5013,-5.5917,-5.7424,-6.0111,-6.1517,-6.4128,-6.9225,-7.2062,-7.4423,-7.6607,-7.8591,-7.9746,-7.9746,-7.8942,-7.7662,-7.5829,-7.4975,-7.3393,-7.0832,-6.9476,-6.7794,-6.5685,-6.232,-5.9734,-5.7976,-5.5365,-5.3833,-5.3331,-5.2251,-5.1875,-5.2201,-5.416,-5.5817,-5.7399,-6.1215,-6.4279,-6.6589,-6.6338,-6.6086,0.0,-6.4831,-6.4178,-6.3751,-6.3751,-6.3877,-6.4078,-6.4379,-6.463,-6.4931,-6.5484,-6.5484,-6.5333,-6.5584,-6.566,-6.566,-6.566,-6.5886,-6.5911,-6.5032,-6.4354,-6.35,-6.1893,-6.1366,-6.0914,-5.9985,-5.9056,-5.8077,-5.6922,-5.5265,-5.3432,-5.1473,-5.0017,-4.9138,-4.9138,-4.8862,-4.8686,-4.8761,-4.9188,-4.9389,-4.9163,-4.9138,-4.9163,-4.9238,-4.9389,-5.0142,-5.1674,-5.2277,-5.3181,-5.4607,-5.534,-5.6319,-5.7499,-5.8001,-5.8554,-5.9156,-5.9156,-5.9282,-5.9483,-5.9483,-5.9809,-6.0362,-6.0939,-6.1492,-6.2044,-6.2596,-6.2822,-6.2822,-6.2822,-6.2822,-6.2822,-6.2822,-6.2822,-6.2822,-5.2126,-5.3984,-5.5842,-5.657,-5.9182,-6.1692,-6.3149,-6.4178,-6.6036,-6.9526,-7.2539,-7.4322,-7.4247,-7.7687,-7.9972,-7.9896,-7.9369,-7.8038,-7.5603,-7.6281,-7.4975,-7.0983,-7.1058,-6.9702,-6.6513,-6.3525,-6.0487,-5.7349,-5.5415,-5.3858,-5.2678,-5.1724,-5.1498,-5.195,-5.3683,-5.5139,-5.6595,-6.0814,-6.3726,-6.5459,-6.5258,-6.4856,-6.4354,-6.4354,-6.3726,-6.2822,-6.2822,-6.345,-6.4254,-6.4254,-6.463,-6.5183,-6.5735,-6.5609,-6.5409,-6.5936,-6.6112,-6.6112,-6.6112,-6.6112,-6.5986,-6.5509,-6.5333,-6.4781,-6.2873,-6.1943,-6.1517,-6.1517,-5.9458,-5.8027,-5.9182,-5.6646,-5.3833,-5.2251,-5.077,-4.9816,-4.9816,-4.9816,-4.964,-4.9163,-4.9866,0.0,-4.9866,-4.969,-4.9389,-4.8912,-4.9766,-5.0594,-5.1247,-5.18,-5.2904,-5.4612,-5.5591,-5.652,-5.7349,-5.8227,-5.8755,-5.893,-5.8855,-5.9056,-5.9483,-5.9558,-5.9859,-6.0362,-6.1014,-6.1567,-6.2044,-6.2596,-6.2822,-6.2822,-6.2822,-6.2822,-6.2822,-6.2822,-6.2822,-6.2822,-5.2201,-5.4612,-5.6369,-5.5189,-5.8428,-6.232,-6.5735,-6.8648,-7.1033,-7.2665,-7.608,-7.8189,-7.7712,-7.834,-7.8641,-7.8189,-7.7637,-7.7109,-7.6607,-7.6331,-7.5452,-7.377,-7.2464,-7.0631,-6.8246,-6.4128,-6.104,-5.9056,-5.5566,-5.308,-5.1574,-5.1373,-5.1071,-5.0795,-5.2904,-5.4988,-5.7097,-6.0161,-6.1692,-6.2195,-6.3927,-6.4304,-6.3827,-6.3827,-6.3425,-6.2822,-6.2822,-6.2948,-6.3124,-6.3124,-6.35,-6.4053,-6.458,-6.5007,-6.5409,-6.5936,-6.6112,-6.6112,-6.6112,-6.6112,-6.6086,-6.5986,-6.5634,-6.5183,-6.4806,-6.3952,-6.3249,-6.3249,-6.2119,-6.0663,-5.9131,-5.5767,-5.2829,-5.1624,-5.1172,-5.0996,-5.0996,-5.0996,-5.0946,-5.0845,-5.0594,-5.0569,-5.0946,-5.0142,-4.9565,-4.9464,-4.9615,-5.0193,-5.1222,-5.18,-5.3055,-5.5189,-5.544,-5.6671,-5.9031,-5.883,-5.9156,-6.0035,-5.9583,-5.9408,-5.9508,-5.996,-6.0236,-6.0387,-6.1416,-6.1918,-6.2044,-6.2596,-6.2822,-6.2822,-6.2822,-6.2822,-6.2822,-6.2822,-6.2822,-6.2822,-5.5415,-5.6595,-5.7876,-5.9081,-6.2019,-6.5308,-6.8597,-7.2163,-7.4071,-7.2866,-7.4347,-7.5402,-7.5126,-7.6883,-7.7988,-7.7712,-7.721,-7.6883,-7.6883,-7.6105,-7.5151,-7.4046,-7.2364,-7.0455,-6.8246,-6.4128,-6.104,-5.9056,-5.5189,-5.2754,-5.1699,-5.082,-5.0569,-5.0921,-5.2277,-5.4411,-5.7148,-5.878,-6.0136,-6.1341,-6.3299,-6.3927,-6.3701,-6.3701,-6.3324,-6.2822,-6.2822,-6.2822,-6.2873,-6.3174,-6.345,-6.3827,-6.463,-6.4881,-6.5032,-6.586,-6.6112,-6.6112,-6.6112,-6.6112,-6.5986,-6.5409,-6.5057,-6.4781,-6.453,-6.3827,-6.3324,-6.3626,-6.2797,-6.1416,-5.9483,-5.6194,-5.3884,-5.421,-5.308,-5.2226,-5.2503,-5.2302,-5.1925,-5.1348,-5.1046,-5.087,-5.0845,-5.0619,-5.0469,-5.0469,-5.0469,-5.082,-5.1674,-5.2226,-5.3406,-5.534,-5.5942,-5.7298,-5.9483,-5.9533,-5.9809,-6.0311,-5.9759,-5.9483,-5.9508,-5.9759,-6.006,-6.0362,-6.1215,-6.1743,-6.2044,-6.2596,-6.2822,-6.2822,-6.2822,-6.2822,-6.2822,-6.2822,-6.2822,-6.2822,-5.8905,-5.9182,-6.0161,-6.345,-6.6137,-6.8572,-7.0757,-7.4272,-7.5804,-7.3293,-7.3067,-7.3092,-7.2966,-7.5703,-7.7486,-7.736,-7.6959,-7.6657,-7.6532,-7.5728,-7.4699,-7.3468,-7.1912,-7.0054,-6.7844,-6.4228,-6.109,-5.8504,-5.5114,-5.2804,-5.1548,-5.0343,-5.0243,-5.1122,-5.1925,-5.3858,-5.657,-5.7499,-5.9106,-6.114,-6.2822,-6.35,-6.35,-6.35,-6.3224,-6.2822,-6.2822,-6.2822,-6.2923,-6.35,-6.3601,-6.3726,-6.4906,-6.4906,-6.468,-6.5785,-6.6112,-6.6112,-6.6112,-6.6112,-6.5886,-6.4881,-6.4555,-6.4329,-6.3802,-6.3249,-6.2948,-6.3425,-6.2697,-6.1517,-5.996,-5.7349,-5.5717,-5.6545,-5.4963,-5.3607,-5.3557,-5.3482,-5.3005,-5.1774,-5.1724,-5.1523,-5.0845,-5.1197,-5.1448,-5.1448,-5.1448,-5.1649,-5.2076,-5.2628,-5.3683,-5.534,-5.6344,-5.7775,-5.9659,-5.9985,-6.0261,-6.0487,-5.9809,-5.9483,-5.9508,-5.9734,-6.0035,-6.0362,-6.119,-6.1768,-6.222,-6.2647,-6.2822,-6.2822,-6.2822,-6.2822,-6.2822,-6.2822,-6.2822,-6.2822,-6.0638,-6.2144,-6.3576,-6.4906,-6.8221,-7.0782,-7.1033,-7.3946,-7.6205,-7.6381,-7.6858,-7.6959,-7.6456,-7.6733,-7.6758,-7.6256,-7.6155,-7.5929,-7.5427,-7.5301,-7.4523,-7.2891,-7.1711,-7.0054,-6.7844,-6.5007,-6.1718,-5.7976,-5.6093,-5.3331,-4.9841,-5.0167,-5.0393,-5.0569,-5.2151,-5.3582,-5.4938,-5.7022,-5.8855,-6.0537,-6.222,-6.2898,-6.2898,-6.2898,-6.2873,-6.2822,-6.2822,-6.2822,-6.2923,-6.35,-6.335,-6.3199,-6.4781,-6.4906,-6.468,-6.5785,-6.6112,-6.6112,-6.6112,-6.6112,-6.5961,-6.5358,-6.4831,-6.4329,-6.3802,-6.3249,-6.2847,-6.2898,-6.2421,-6.1642,-6.0462,-5.9207,-5.7725,-5.5842,-5.5742,-5.5214,-5.3281,-5.4235,-5.4561,-5.2955,-5.3181,0.0,-5.2051,-5.2,-5.2026,-5.2026,-5.2026,-5.2051,-5.2101,-5.2628,-5.3683,-5.534,-5.5968,-5.7549,-6.0211,-5.9809,-6.0085,-6.109,-6.001,-5.9483,-5.9533,-6.0563,-6.0763,-6.0412,-6.1994,-6.2697,-6.2747,-6.2797,-6.2822,-6.2822,-6.2822,-6.2822,-6.2822,-6.2822,-6.2822,-6.2822,-6.4957,-6.5157,-6.6011,-6.8773,-7.0003,-7.1384,-7.372,-7.5201,-7.613,-7.6356,-7.6582,-7.6632,-7.6406,-7.6381,-7.6281,-7.608,-7.5753,-7.5327,-7.4774,-7.4121,-7.2991,-7.1309,-7.0179,-6.8874,-6.7342,-6.4931,-6.227,-5.9382,-5.7022,-5.4411,-5.1574,-5.0795,-5.077,-5.1473,-5.2477,-5.3909,-5.5666,-5.7575,-5.9131,-6.0487,-6.2521,-6.3149,-6.2873,-6.3224,-6.3124,-6.2822,-6.2822,-6.3048,-6.3375,-6.3626,-6.3525,-6.3576,-6.4881,-6.5132,-6.5107,-6.5886,-6.6112,-6.6112,-6.6112,-6.6112,-6.5986,-6.5434,-6.4881,-6.4329,-6.3802,-6.3249,-6.2822,-6.2822,-6.2647,-6.237,-6.1918,-6.0663,-5.9608,-5.9408,-5.8152,-5.6922,-5.6043,-5.5616,-5.4888,-5.3557,-5.3005,-5.2578,-5.2151,-5.2101,-5.2101,-5.2101,-5.2101,-5.2251,-5.2578,-5.2804,-5.3683,-5.534,-5.5917,-5.7524,-6.0286,-5.9784,-6.006,-6.1165,-6.0035,-5.9483,-5.9533,-6.0311,-6.0914,-6.1391,-6.2395,-6.2822,-6.2822,-6.2822,-6.2822,-6.2822,-6.2822,-6.2822,-6.2822,-6.2822,-6.2822,-6.2822,-6.8246,-6.7869,-6.8497,-7.2238,-7.2238,-7.2715,-7.5603,-7.6055,-7.6055,-7.6055,-7.5929,-7.5829,-7.5829,-7.5829,-7.5753,-7.5578,-7.5075,-7.4523,-7.3971,-7.3016,-7.1836,-7.033,-6.92,-6.817,-6.7241,-6.5208,-6.3073,-6.0839,-5.8554,-5.6043,-5.3381,-5.2201,-5.2151,-5.3105,-5.3984,-5.5415,-5.7273,-5.8604,-5.991,-6.119,-6.2797,-6.3199,-6.2873,-6.3274,-6.3174,-6.2822,-6.2822,-6.3099,-6.3475,-6.3802,-6.3927,-6.4078,-6.5007,-6.5283,-6.5409,-6.5936,-6.6237,-6.6338,-6.6162,-6.6237,-6.6187,-6.5484,-6.5007,-6.453,-6.3852,-6.3375,-6.3023,-6.2873,-6.2822,-6.2822,-6.2822,-6.1718,-6.0964,-6.1441,-5.9734,-5.8152,-5.7499,-5.6369,-5.5139,-5.3858,-5.303,-5.2452,-5.2126,-5.2251,-5.2277,-5.2126,-5.2251,-5.2528,-5.2904,-5.308,-5.3833,-5.534,-5.6068,-5.77,-6.0286,-5.9784,-6.006,-6.1165,-6.0186,-5.9734,-5.9759,-6.0487,-6.1341,-6.227,-6.2647,-6.2822,-6.2822,-6.2822,-6.2822,-6.2822,-6.2822,-6.2822,-6.2822,-6.2822,-6.2923,-6.3073,-6.9577,-7.0229,-7.1259,-7.4623,-7.5201,-7.5377,-7.5954,-7.6055,-7.6055,-7.6055,-7.5578,-7.5251,-7.5251,-7.5251,-7.5025,-7.4473,-7.392,-7.3368,-7.2791,-7.2238,-7.141,-7.0305,-6.92,-6.8371,-6.7794,-6.6137,-6.4203,-6.1994,-6.0839,-5.8303,-5.4536,-5.4607,-5.4813,-5.5415,-5.7097,-5.8453,-5.9483,-6.006,-6.1266,-6.2797,-6.2822,-6.2847,-6.2822,-6.2847,-6.2847,-6.2822,-6.2822,-6.2822,-6.2998,-6.4078,-6.4454,-6.4555,-6.5107,-6.5283,-6.5409,-6.5936,-6.6513,-6.684,-6.6262,-6.6538,-6.6689,-6.5559,-6.5283,-6.5007,-6.3927,-6.3676,-6.3525,-6.2948,-6.2822,-6.2822,-6.2822,-6.237,-6.1617,-6.0512,-5.9859,-5.8704,-5.6545,-5.6219,-5.5566,-5.3909,-5.3683,-5.3256,-5.2201,-5.2603,-5.2678,-5.2151,-5.2603,-5.2929,-5.2929,-5.3406,-5.421,-5.534,-5.6445,-5.8077,-6.0286,-5.9784,-6.006,-6.1165,-6.0588,-6.0311,-6.0337,-6.1466,-6.2295,-6.2822,-6.2822,-6.2822,-6.2822,-6.2822,-6.2822,-6.2822,-6.2822,-6.2822,-6.2822,-6.2822,-6.3199,-6.3676,-7.1184,-7.2012,-7.2866,-7.392,-7.4423,-7.4724,-7.4925,-7.4925,-7.4925,-7.4925,-7.4774,-7.4523,-7.4171,-7.4448,-7.4448,-7.3895,-7.3343,-7.2615,-7.1661,-7.0732,-6.9727,-6.8622,-6.7894,-6.7241,-6.6664,-6.576,-6.4404,-6.2571,-6.1441,-5.9307,-5.6269,-5.6646,-5.6922,-5.7173,-5.8805,-5.996,-6.0713,-6.1642,-6.2345,-6.2873,-6.3249,-6.3174,-6.2873,-6.3274,-6.3174,-6.2873,-6.3274,-6.3651,-6.4002,-6.4354,-6.4982,-6.5559,-6.5358,-6.5534,-6.5886,-6.6061,-6.6513,-6.684,-6.6262,-6.6538,-6.6789,-6.6036,-6.5559,-6.5107,-6.4379,-6.3626,-6.3048,-6.2873,-6.2822,-6.2822,-6.2822,-6.237,-6.1893,-6.1517,-6.0362,-5.9131,-5.8077,-5.662,-5.5315,-5.4386,-5.3934,-5.3557,-5.3231,-5.3356,-5.3381,-5.3206,-5.303,-5.2929,-5.2929,-5.3406,-5.421,-5.534,-5.647,-5.8102,-6.0286,-6.0136,-6.0613,-6.1743,-6.1165,-6.1115,-6.1492,-6.1843,-6.2295,-6.2822,-6.2822,-6.2822,-6.2822,-6.2822,-6.2822,-6.2822,-6.2822,-6.3073,-6.3375,-6.2973,-6.3425,-6.4178,-7.1234,-7.2188,-7.3016,-7.3242,-7.3544,-7.392,-7.4347,-7.4046,-7.387,-7.4071,-7.392,-7.3569,-7.3016,-7.3268,-7.3343,-7.2991,-7.2439,-7.1736,-7.0832,-6.9752,-6.8823,-6.8145,-6.7367,-6.6815,-6.6438,-6.5886,-6.4881,-6.345,-6.1718,-6.0085,-5.8604,-5.873,-5.9156,-5.9784,-6.0814,-6.1592,-6.2169,-6.2621,-6.2822,-6.2873,-6.345,-6.3475,-6.3224,-6.3776,-6.3626,-6.3224,-6.3776,-6.4078,-6.4228,-6.463,-6.5233,-6.5785,-6.5634,-6.5835,-6.6112,-6.6112,-6.6664,-6.7116,-6.6338,-6.6689,-6.7091,-6.6312,-6.586,-6.5409,-6.463,-6.3626,-6.2822,-6.2822,-6.2822,-6.2822,-6.2822,-6.2546,-6.232,-6.232,-6.0738,-5.9382,-5.9056,-5.6746,-5.5039,-5.4888,-5.4185,-5.3858,-5.4285,-5.416,-5.4034,-5.4034,-5.3909,-5.3758,-5.3557,-5.4059,-5.4863,-5.5968,-5.7273,-5.883,-6.0613,-6.0638,-6.109,-6.1994,-6.1667,-6.1793,-6.232,-6.232,-6.2496,-6.2822,-6.2822,-6.2822,-6.2822,-6.2822,-6.2822,-6.2822,-6.2822,-6.3174,-6.3626,-6.3048,-6.3651,-6.4705,-7.0104,-7.1083,-7.2012,-7.2565,-7.2665,-7.3016,-7.4071,-7.3318,-7.2816,-7.3343,-7.2941,-7.2414,-7.1912,-7.1836,-7.1836,-7.1786,-7.1309,-7.0782,-7.0229,-6.9175,-6.8572,-6.8572,-6.7518,-6.6915,-6.6915,-6.6388,-6.5559,-6.4454,-6.1793,-6.0763,-6.1291,-6.0738,-6.1341,-6.2898,-6.2898,-6.3199,-6.3701,-6.3124,-6.2898,-6.2923,-6.3425,-6.3651,-6.3751,-6.4228,-6.4128,-6.3827,-6.4329,-6.4178,-6.3902,-6.4982,-6.5333,-6.5383,-6.5936,-6.6112,-6.6112,-6.6112,-6.689,-6.7493,-6.6413,-6.6915,-6.7493,-6.6388,-6.6061,-6.5735,-6.4705,-6.3626,-6.2822,-6.2822,-6.2822,-6.2822,-6.2822,-6.2797,-6.2747,-6.2672,-6.0839,-5.9408,-5.9332,-5.662,-5.4813,-5.534,-5.4486,-5.4285,-5.534,-5.5013,-5.4712,-5.4687,-5.5114,-5.5189,-5.4712,-5.5189,-5.5993,-5.7072,-5.8654,-6.0035,-6.1165,-6.1215,-6.1517,-6.2069,-6.2069,-6.2345,-6.2822,-6.2822,-6.2822,-6.2822,-6.2822,-6.2822,-6.2822,-6.2822,-6.2822,-6.2822,-6.2822,-6.3174,-6.3626,-6.3099,-6.3902,-6.5208,-6.9526,-7.0531,-7.146,-7.2012,-7.2113,-7.2188,-7.2464,-7.1912,-7.151,-7.1661,-7.156,-7.141,-7.1284,-7.1284,-7.1108,-7.0681,-7.0531,-7.0229,-6.9677,-6.8597,-6.7995,-6.7995,-6.6915,-6.6312,-6.6312,-6.6187,-6.5559,-6.4454,-6.2973,-6.2295,-6.2446,-6.2295,-6.2697,-6.3475,-6.3475,-6.3776,-6.4254,-6.3726,-6.3475,-6.345,-6.3149,-6.3299,-6.3701,-6.3827,-6.4053,-6.4354,-6.4906,-6.4756,-6.4454,-6.5559,-6.5634,-6.5383,-6.5936,-6.6112,-6.6112,-6.6112,-6.6614,-6.7015,-6.6312,-6.6639,-6.699,-6.6287,-6.5484,-6.4781,-6.453,-6.3626,-6.2822,-6.2822,-6.2822,-6.2822,-6.2822,-6.2496,-6.1918,-6.1065,-5.9784,-5.8604,-5.7725,-5.6219,-5.5239,-5.5365,-5.5516,-5.5717,-5.5993,-5.6269,-5.6269,-5.5867,-5.5541,-5.5516,-5.5817,-5.6344,-5.6972,-5.7675,-5.8855,-6.0035,-6.1165,-6.1592,-6.2094,-6.2621,-6.2621,-6.2697,-6.2822,-6.2822,-6.2822,-6.2822,-6.2822,-6.2822,-6.2822,-6.2822,-6.2822,-6.2822,-6.2822,-6.3174,-6.3676,-6.3525,-6.4254,-6.5283,-6.8899,-6.9752,-7.0506,-7.1058,-7.1158,-7.1234,-7.1485,-7.0857,-7.043,-7.0681,-7.0706,-7.0606,-7.0355,-7.0556,-7.048,-6.9928,-6.9878,-6.9652,-6.91,-6.8045,-6.7417,-6.7417,-6.6589,-6.5986,-6.5735,-6.5735,-6.5208,-6.4103,-6.3249,-6.2822,-6.2822,-6.2822,-6.3249,-6.4028,-6.3802,-6.3977,-6.4429,-6.3927,-6.3525,-6.3299,-6.3249,-6.355,-6.4078,-6.4329,-6.4605,-6.4906,-6.5459,-6.5308,-6.4982,-6.5835,-6.5911,-6.576,-6.6338,-6.6513,-6.6564,-6.6815,-6.6915,-6.6915,-6.6589,-6.6915,-6.7141,-6.6312,-6.5283,-6.4404,-6.4178,-6.3651,-6.3224,-6.3224,-6.3224,-6.3224,-6.3224,-6.2772,-6.2019,-6.0889,-5.9784,-5.8679,-5.7575,-5.6244,-5.5566,-5.6068,-5.6168,-5.652,-5.7273,-5.7399,-5.7298,-5.6997,-5.6947,-5.6922,-5.6972,-5.7976,-5.8554,-5.8629,-5.9684,-6.0688,-6.1542,-6.2094,-6.2521,-6.2822,-6.2822,-6.2822,-6.2822,-6.2822,-6.2822,-6.2822,-6.2822,-6.2822,-6.2822,-6.2822,-6.2822,-6.2822,-6.2822,-6.3324,-6.3977,-6.3475,-6.4128,-6.5258,-6.817,-6.8823,-6.9376,-6.9928,-7.0079,-7.0255,-7.0656,-6.9928,-6.9451,-6.9853,-6.9953,-6.9828,-6.9376,-6.9727,-6.9828,-6.9351,-6.9175,-6.8949,-6.8648,-6.7593,-6.694,-6.684,-6.6287,-6.5735,-6.5183,-6.5082,-6.4605,-6.3701,-6.3124,-6.2822,-6.2822,-6.2822,-6.3425,-6.4454,-6.3927,-6.4028,-6.4555,-6.3952,-6.34,-6.2998,-6.34,-6.3927,-6.4505,-6.4982,-6.5258,-6.5484,-6.6036,-6.5835,-6.5383,-6.6036,-6.6137,-6.6112,-6.6764,-6.6915,-6.6965,-6.7518,-6.7267,-6.689,-6.7066,-6.7367,-6.7417,-6.6262,-6.5283,-6.4454,-6.3927,-6.3802,-6.3802,-6.3802,-6.3802,-6.3776,-6.3701,-6.3224,-6.2395,-6.104,-5.9935,-5.8805,-5.7575,-5.6319,-5.5867,-5.6796,-5.6721,-5.7173,-5.8679,-5.8478,-5.8227,-5.8152,-5.8579,-5.8604,-5.8052,-5.9408,-6.006,-5.9759,-6.0763,-6.1567,-6.2119,-6.2596,-6.2822,-6.2822,-6.2822,-6.2822,-6.2822,-6.2822,-6.2822,-6.2822,-6.2822,-6.2822,-6.2822,-6.2822,-6.2822,-6.2847,-6.2923,-6.3525,-6.4254,-6.34,-6.3952,-6.5107,-6.7116,-6.7668,-6.8221,-6.8773,-6.925,-6.9451,-6.9049,-6.8848,-6.8622,-6.8221,-6.8572,-6.8848,-6.8748,-6.8823,-6.8848,-6.8748,-6.7894,-6.7719,-6.8572,-6.7593,-6.6764,-6.6262,-6.571,-6.5157,-6.4605,-6.4178,-6.3852,-6.3701,-6.3124,-6.2822,-6.2822,-6.2822,-6.3425,-6.4454,-6.3927,-6.4228,-6.5107,-6.4103,-6.3651,-6.3525,-6.3124,-6.3576,-6.4479,-6.4555,-6.5183,-6.6061,-6.6639,-6.6162,-6.5459,-6.6488,-6.6212,-6.5609,-6.6639,-6.6639,-6.6363,-6.694,-6.6689,-6.6463,-6.7417,-6.7392,-6.684,-6.571,-6.5283,-6.5032,-6.4479,-6.4354,-6.4354,-6.4354,-6.4354,-6.4203,-6.3776,-6.3224,-6.2019,-5.9508,-5.8554,-5.7424,-5.5365,-5.5666,-5.6143,-5.6319,-5.7524,-5.8604,-5.9307,-5.9709,-5.9759,-5.9282,-5.9332,-5.9156,-5.8629,-5.9257,-6.0035,-6.0889,-6.1542,-6.2144,-6.2697,-6.2797,-6.2822,-6.2822,-6.2822,-6.2822,-6.2822,-6.2822,-6.2822,-6.2822,-6.2822,-6.2822,-6.2822,-6.2822,-6.2822,-6.2873,-6.3375,-6.3676,-6.3852,-6.4103,-6.4379,-6.4655,-6.6388,-6.6965,-6.7518,-6.807,-6.8396,-6.8472,-6.8221,-6.817,-6.8095,-6.7819,-6.8271,-6.8622,-6.8622,-6.8899,-6.8949,-6.8648,-6.7869,-6.7518,-6.7719,-6.6965,-6.6388,-6.6112,-6.5584,-6.4906,-6.4078,-6.35,-6.3224,-6.3224,-6.2948,-6.2822,-6.2822,-6.2822,-6.3274,-6.4028,-6.3802,-6.3977,-6.4404,-6.3902,-6.35,-6.3199,-6.2923,-6.3475,-6.4454,-6.4454,-6.5157,-6.6187,-6.6764,-6.6639,-6.6312,-6.7141,-6.6865,-6.6388,-6.7518,-6.7467,-6.7141,-6.7693,-6.7467,-6.7066,-6.7292,-6.7392,-6.7141,-6.6011,-6.5509,-6.5132,-6.458,-6.4705,-6.4906,-6.4906,-6.4906,-6.4756,-6.4203,-6.34,-6.222,-6.0362,-5.9081,-5.7876,-5.6545,-5.652,-5.6872,-5.7499,-5.8504,-5.9483,-6.0311,-6.0638,-6.0688,-6.0412,-6.0412,-6.0311,-6.006,-6.0563,-6.109,-6.1617,-6.2169,-6.2571,-6.2822,-6.2822,-6.2822,-6.2822,-6.2822,-6.2822,-6.2822,-6.2822,-6.2822,-6.2822,-6.2822,-6.2822,-6.2822,-6.2822,-6.2822,-6.2847,-6.3124,-6.3425,-6.3676,-6.3601,-6.3776,-6.4128,-6.581,-6.6287,-6.6764,-6.7317,-6.7518,-6.7568,-6.7442,-6.7518,-6.7568,-6.7417,-6.7894,-6.8246,-6.8246,-6.8622,-6.8698,-6.8271,-6.7719,-6.7241,-6.6815,-6.6237,-6.586,-6.5735,-6.5082,-6.4329,-6.35,-6.3048,-6.2822,-6.2822,-6.2822,-6.2822,-6.2822,-6.2822,-6.3149,-6.3676,-6.355,-6.3576,-6.3676,-6.355,-6.3224,-6.2822,-6.2822,-6.3475,-6.4454,-6.4454,-6.5157,-6.6212,-6.6915,-6.699,-6.689,-6.7719,-6.7543,-6.7166,-6.8271,-6.8346,-6.807,-6.8497,-6.8321,-6.7844,-6.7166,-6.7367,-6.7493,-6.6237,-6.571,-6.5333,-6.4781,-6.5082,-6.5484,-6.5484,-6.5484,-6.5283,-6.458,-6.3676,-6.2496,-6.0864,-5.9533,-5.8428,-5.7625,-5.7449,-5.7801,-5.878,-5.9483,-6.0286,-6.1291,-6.1366,-6.1366,-6.1366,-6.1366,-6.1316,-6.119,-6.1718,-6.2069,-6.2195,-6.2596,-6.2822,-6.2822,-6.2822,-6.2822,-6.2822,-6.2822,-6.2822,-6.2822,-6.2822,-6.2822,-6.2822,-6.2822,-6.2822,-6.2822,-6.2822,-6.2822,-6.2847,-6.2973,-6.3375,-6.3827,-6.3375,-6.3576,-6.4128,-6.5233,-6.5383,-6.5584,-6.6137,-6.6689,-6.6865,-6.6312,-6.6689,-6.684,-6.6312,-6.6739,-6.7091,-6.7091,-6.7141,-6.7141,-6.7091,-6.6564,-6.6212,-6.6187,-6.566,-6.5132,-6.4605,-6.3576,-6.2973,-6.2898,-6.2847,-6.2822,-6.2822,-6.2822,-6.2822,-6.2822,-6.2822,-6.3149,-6.3676,-6.3124,-6.3199,-6.3651,-6.3124,-6.2873,-6.2822,-6.2822,-6.3475,-6.4454,-6.4454,-6.5157,-6.6262,-6.7342,-6.7066,-6.6413,-6.802,-6.7844,-6.7166,-6.8271,-6.8597,-6.8572,-6.8622,-6.8597,-6.8321,-6.7267,-6.7367,-6.7417,-6.576,-6.571,-6.5911,-6.5358,-6.566,-6.6061,-6.6061,-6.6061,-6.5735,-6.4655,-6.4002,-6.2596,-5.9408,-5.878,-5.8127,-5.657,-5.765,-5.8805,-5.9382,-6.0387,-6.1291,-6.1893,-6.1943,-6.1943,-6.1943,-6.1943,-6.1718,-6.1215,-6.1718,-6.2245,-6.2747,-6.2797,-6.2822,-6.2822,-6.2822,-6.2822,-6.2822,-6.2822,-6.2822,-6.2822,-6.2822,-6.2822,-6.2822,-6.2822,-6.2822,-6.2822,-6.2822,-6.2822,-6.2873,-6.3425,-6.3952,-6.4404,-6.4354,-6.4705,-6.5183,-6.4254,-6.4555,-6.4856,-6.5057,-6.5559,-6.586,-6.5634,-6.6086,-6.6363,-6.6137,-6.6614,-6.6965,-6.6965,-6.7292,-6.7342,-6.7015,-6.6764,-6.6363,-6.5634,-6.5409,-6.4906,-6.4028,-6.3576,-6.3199,-6.2847,-6.2822,-6.2822,-6.2822,-6.2822,-6.2822,-6.2822,-6.2822,-6.2948,-6.3149,-6.2923,-6.2948,-6.3149,-6.2923,-6.2822,-6.2822,-6.2822,-6.3475,-6.4454,-6.4454,-6.5157,-6.6262,-6.7392,-6.7518,-6.7367,-6.8698,-6.8622,-6.812,-6.8899,-6.9125,-6.92,-6.9526,-6.915,-6.8447,-6.7693,-6.7643,-6.7568,-6.6589,-6.6237,-6.6237,-6.6739,-6.6463,-6.6212,-6.6564,-6.6363,-6.5886,-6.5107,-6.4279,-6.3274,-6.2019,-6.0613,-5.9608,-5.9332,-5.9533,-5.991,-6.0487,-6.1215,-6.1918,-6.2471,-6.2521,-6.2521,-6.2521,-6.2521,-6.2421,-6.222,-6.2395,-6.2621,-6.2822,-6.2822,-6.2822,-6.2822,-6.2822,-6.2822,-6.2822,-6.2822,-6.2822,-6.2822,-6.2822,-6.2822,-6.2822,-6.2822,-6.2822,-6.2822,-6.2822,-6.2822,-6.2898,-6.3475,-6.3802,-6.4028,-6.4354,-6.4605,-6.4831,-6.3651,-6.3977,-6.4279,-6.4429,-6.4781,-6.5032,-6.5032,-6.5509,-6.586,-6.586,-6.6363,-6.6714,-6.6714,-6.7041,-6.7116,-6.6739,-6.6714,-6.6312,-6.5358,-6.4982,-6.4454,-6.3726,-6.3525,-6.3224,-6.2847,-6.2822,-6.2822,-6.2822,-6.2822,-6.2822,-6.2822,-6.2822,-6.2822,-6.2822,-6.2822,-6.2822,-6.2822,-6.2822,-6.2822,-6.2822,-6.2822,-6.3475,-6.4454,-6.4454,-6.5157,-6.6262,-6.7392,-6.7794,-6.7995,-6.9275,-6.9451,-6.9225,-6.9777,-6.9953,-7.0079,-7.0606,-6.9878,-6.8748,-6.8221,-6.7819,-6.7442,-6.7066,-6.6815,-6.6789,-6.7392,-6.694,-6.6438,-6.6664,-6.6388,-6.5936,-6.5383,-6.468,-6.3977,-6.3274,-6.1994,-6.1115,-6.1165,-6.0989,-6.1065,-6.1642,-6.2044,-6.2421,-6.2797,-6.2822,-6.2822,-6.2822,-6.2822,-6.2822,-6.2822,-6.2822,-6.2822,-6.2822,-6.2822,-6.2822,-6.2822,-6.2822,-6.2822,-6.2822,-6.2998,-6.3099,-6.3099,-6.3099,-6.3099,-6.3099,-6.2898,-6.2822,-6.2822,-6.2822,-6.2923,-6.3149,-6.3525,-6.3902,-6.4228,-6.4605,-6.4831,-6.5032,-6.3576,-6.3676,-6.3852,-6.4354,-6.4454,-6.4454,-6.4454,-6.4931,-6.5283,-6.5283,-6.576,-6.6112,-6.6112,-6.6112,-6.6112,-6.6112,-6.6112,-6.5886,-6.5333,-6.4279,-6.3676,-6.3676,-6.3124,-6.2822,-6.2822,-6.2822,-6.2822,-6.2822,-6.2822,-6.2822,-6.2822,-6.2822,-6.2822,-6.2822,-6.2822,-6.2822,-6.2822,-6.2822,-6.2822,-6.2822,-6.2847,-6.35,-6.4454,-6.4479,-6.5157,-6.6262,-6.7392,-6.7794,-6.8045,-6.9702,-7.0255,-7.0355,-7.0907,-7.1083,-7.1209,-7.1761,-7.0732,-6.9325,-6.8773,-6.7819,-6.6965,-6.699,-6.7392,-6.7643,-6.7116,-6.6965,-6.6815,-6.6237,-6.6112,-6.5936,-6.5383,-6.5283,-6.458,-6.2395,-6.2496,-6.2446,-6.1366,-6.1667,-6.222,-6.2772,-6.2822,-6.2822,-6.2822,-6.2822,-6.2822,-6.2822,-6.2822,-6.2822,-6.2822,-6.2822,-6.2822,-6.2822,-6.2822,-6.2822,-6.2822,-6.2822,-6.2822,-6.2847,-6.3425,-6.3701,-6.3701,-6.3701,-6.3701,-6.3651,-6.3099,-6.2822,-6.2822,-6.2847,-6.3174,-6.3701,-6.3701,-6.4354,-6.5283,-6.5283,-6.5634,-6.6112,-6.3048,-6.3099,-6.3149,-6.3299,-6.3651,-6.3927,-6.3927,-6.4705,-6.5283,-6.5283,-6.576,-6.5961,-6.5584,-6.5886,-6.5961,-6.5559,-6.5886,-6.571,-6.4781,-6.3701,-6.3099,-6.3099,-6.2923,-6.2822,-6.2822,-6.2822,-6.2822,-6.2822,-6.2822,-6.2822,-6.2822,-6.2822,-6.2822,-6.2822,-6.2822,-6.2822,-6.2822,-6.2822,-6.2822,-6.2873,-6.3274,-6.3852,-6.4505,-6.4906,-6.5484,-6.6262,-6.7392,-6.8045,-6.8522,-6.9401,-7.0204,-7.0932,-7.1485,-7.1661,-7.1761,-7.2313,-7.1033,-6.9401,-6.925,-6.812,-6.7066,-6.7467,-6.7091,-6.689,-6.7894,-6.7216,-6.6438,-6.6664,-6.6388,-6.6061,-6.5886,-6.5559,-6.5082,-6.4404,-6.3827,-6.3324,-6.2998,-6.2747,-6.2647,-6.2822,-6.2822,-6.2822,-6.2822,-6.2822,-6.2822,-6.2822,-6.2822,-6.2822,-6.2822,-6.2822,-6.2822,-6.2822,-6.2822,-6.2822,-6.2822,-6.2822,-6.2822,-6.2847,-6.3425,-6.3701,-6.3701,-6.4078,-6.4028,-6.3676,-6.35,-6.3199,-6.2873,-6.3274,-6.3525,-6.3776,-6.453,-6.5007,-6.5333,-6.5735,-6.5961,-6.6112,-6.2822,-6.2822,-6.2822,-6.2822,-6.3124,-6.335,-6.335,-6.4103,-6.4655,-6.4655,-6.5132,-6.5333,-6.5007,-6.5258,-6.5333,-6.4982,-6.5082,-6.4881,-6.4203,-6.3324,-6.2822,-6.2822,-6.2822,-6.2822,-6.2822,-6.2822,-6.2822,-6.2822,-6.2822,-6.2822,-6.2822,-6.2822,-6.2822,-6.2822,-6.2822,-6.2822,-6.2822,-6.2822,-6.2822,-6.2873,-6.3199,-6.3802,-6.4505,-6.4831,-6.5434,-6.6262,-6.7392,-6.8145,-6.8748,-6.9501,-7.0506,-7.151,-7.2062,-7.2238,-7.2288,-7.264,-7.1334,-6.9727,-6.9501,-6.8246,-6.7066,-6.7392,-6.7116,-6.7041,-6.807,-6.7342,-6.6488,-6.6614,-6.6363,-6.6112,-6.6112,-6.5835,-6.5534,-6.5333,-6.4756,-6.4178,-6.3751,-6.34,-6.3099,-6.2847,-6.2822,-6.2822,-6.2822,-6.2822,-6.2822,-6.2822,-6.2822,-6.2822,-6.2822,-6.2822,-6.2822,-6.2822,-6.2822,-6.2822,-6.2822,-6.3048,-6.3174,-6.3174,-6.3726,-6.4103,-6.4329,-6.4655,-6.463,-6.4304,-6.3877,-6.35,-6.3199,-6.355,-6.3827,-6.4053,-6.4705,-6.5233,-6.5634,-6.5735,-6.5936,-6.6112,-6.2822,-6.2822,-6.2822,-6.2822,-6.2822,-6.2822,-6.2822,-6.3324,-6.3701,-6.3701,-6.4153,-6.4454,-6.4404,-6.4429,-6.4454,-6.4404,-6.3977,-6.3701,-6.3751,-6.3174,-6.2822,-6.2822,-6.2822,-6.2822,-6.2822,-6.2822,-6.2822,-6.2822,-6.2822,-6.2822,-6.2822,-6.2822,-6.2822,-6.2822,-6.2822,-6.2822,-6.2822,-6.2822,-6.2847,-6.2898,-6.2948,-6.3601,-6.4555,-6.4605,-6.5233,-6.6262,-6.7342,-6.807,-6.8723,-6.9928,-7.1033,-7.2012,-7.2565,-7.274,-7.274,-7.274,-7.156,-7.0154,-6.9602,-6.8246,-6.699,-6.7041,-6.7342,-6.7668,-6.7719,-6.7292,-6.6739,-6.6212,-6.6112,-6.6112,-6.6112,-6.6112,-6.5936,-6.5434,-6.5333,-6.4957,-6.3977,-6.3751,-6.35,-6.3023,-6.2898,-6.2847,-6.2898,-6.2873,-6.2873,-6.2973,-6.2873,-6.2873,-6.2973,-6.2873,-6.2847,-6.2898,-6.2847,-6.2847,-6.2898,-6.3425,-6.3701,-6.3701,-6.4279,-6.4806,-6.5283,-6.5333,-6.5333,-6.5233,-6.4254,-6.3802,-6.3776,-6.3827,-6.4078,-6.4479,-6.453,-6.5157,-6.5986,-6.5484,-6.5634,-6.6112,-6.2822,-6.2822,-6.2822,-6.2822,-6.2822,-6.2822,-6.2822,-6.3324,-6.3701,-6.3701,-6.4153,-6.4304,-6.3902,-6.4228,-6.4304,-6.3902,-6.3751,-6.3877,-6.4279,-6.3375,-6.2822,-6.2822,-6.2822,-6.2822,-6.2822,-6.2822,-6.2822,-6.2822,-6.2822,-6.2822,-6.2822,-6.2822,-6.2822,-6.2822,-6.2822,-6.2822,-6.2822,-6.2822,-6.3099,-6.3525,-6.3952,-6.4505,-6.5157,-6.5584,-6.5911,-6.6212,-6.6915,-6.7518,-6.8271,-7.0255,-7.1359,-7.2012,-7.2565,-7.274,-7.274,-7.274,-7.156,-7.0154,-6.9602,-6.8246,-6.7091,-6.7518,-6.7041,-6.6589,-6.7066,-6.6714,-6.6262,-6.6137,-6.6112,-6.6112,-6.6112,-6.6112,-6.6061,-6.5961,-6.5559,-6.5208,-6.4982,-6.4228,-6.3802,-6.4078,-6.335,-6.2998,-6.345,-6.3099,-6.3174,-6.4053,-6.3299,-6.3199,-6.4053,-6.3299,-6.3048,-6.35,-6.3073,-6.3048,-6.35,-6.3626,-6.3701,-6.3701,-6.4655,-6.5183,-6.5308,-6.5735,-6.571,-6.5283,-6.5032,-6.4705,-6.4329,-6.4756,-6.4756,-6.4505,-6.4931,-6.5258,-6.5459,-6.5333,-6.5634,-6.6112,-6.2822,-6.2822,-6.2822,-6.2822,-6.2822,-6.2822,-6.2822,-6.3099,-6.3274,-6.3274,-6.3525,-6.3576,-6.3299,-6.3525,-6.3576,-6.3299,-6.3274,-6.34,-6.3676,-6.3149,-6.2822,-6.2822,-6.2822,-6.2822,-6.2822,-6.2822,-6.2822,-6.2822,-6.2822,-6.2822,-6.2822,-6.2822,-6.2822,-6.2822,-6.2822,-6.2973,-6.3249,-6.3249,-6.355,-6.4053,-6.4078,-6.458,-6.5283,-6.5308,-6.566,-6.6212,-6.7066,-6.807,-6.92,-7.0606,-7.146,-7.2012,-7.2565,-7.274,-7.274,-7.274,-7.1736,-7.0531,-6.9978,-6.8622,-6.7367,-6.7392,-6.6764,-6.6338,-6.7166,-6.694,-6.6538,-6.6538,-6.6538,-6.6538,-6.6538,-6.6287,-6.6112,-6.6112,-6.586,-6.5584,-6.5333,-6.4806,-6.4454,-6.4454,-6.3952,-6.3726,-6.4028,-6.3776,-6.3852,-6.4429,-6.3927,-6.3852,-6.4429,-6.3927,-6.3626,-6.3701,-6.34,-6.34,-6.3701,-6.3927,-6.4203,-6.4454,-6.5032,-6.5434,-6.5685,-6.5986,-6.5961,-6.566,-6.5409,-6.5132,-6.4856,-6.4881,-6.4731,-6.4479,-6.4505,-6.468,-6.4881,-6.463,-6.5032,-6.576,-6.2822,-6.2822,-6.2822,-6.2822,-6.2822,-6.2822,-6.2822,-6.2822,-6.2822,-6.2822,-6.2822,-6.2822,-6.2822,-6.2822,-6.2873,-6.2973,-6.2898,-6.2873,-6.2973,-6.2873,-6.2822,-6.2822,-6.2822,-6.2822,-6.2822,-6.2822,-6.2822,-6.2822,-6.2822,-6.2822,-6.2822,-6.2822,-6.2822,-6.2822,-6.2923,-6.3249,-6.3701,-6.3701,-6.4053,-6.4555,-6.3927,-6.4379,-6.5383,-6.4831,-6.5233,-6.6237,-6.7166,-6.8572,-7.0054,-7.0606,-7.1234,-7.1887,-7.2514,-7.274,-7.274,-7.274,-7.2012,-7.1083,-7.043,-6.9125,-6.7819,-6.7367,-6.684,-6.6664,-6.7693,-6.7442,-6.7015,-6.7091,-6.7116,-6.7091,-6.699,-6.6589,-6.6237,-6.6137,-6.6112,-6.5961,-6.5484,-6.5358,-6.5157,-6.4781,-6.4655,-6.4605,-6.4605,-6.453,-6.4555,-6.4731,-6.458,-6.4555,-6.4731,-6.4555,-6.4304,-6.3977,-6.3877,-6.3877,-6.3952,-6.4379,-6.4881,-6.5434,-6.5434,-6.566,-6.6112,-6.6112,-6.6112,-6.6086,-6.5634,-6.5434,-6.5383,-6.4831,-6.4555,-6.4404,-6.3902,-6.3952,-6.4304,-6.4053,-6.458,-6.5484,-6.2822,-6.2822,-6.2822,-6.2822,-6.2822,-6.2822,-6.2822,-6.2822,-6.2822,-6.2822,-6.2822,-6.2822,-6.2822,-6.2822,-6.3023,-6.3525,-6.3124,-6.3048,-6.355,-6.3099,-6.2822,-6.2822,-6.2822,-6.2822,-6.2822,-6.2822,-6.2822,-6.2822,-6.2822,-6.2822,-6.2822,-6.2822,-6.2822,-6.2847,-6.335,-6.3626,-6.3701,-6.3701,-6.4279,-6.5082,-6.4103,-6.463,-6.5936,-6.5383,-6.5559,-6.6137,-6.6287,-6.7417,-6.8924,-6.9476,-7.0355,-7.1359,-7.2414,-7.274,-7.274,-7.274,-7.2288,-7.156,-7.0531,-6.9401,-6.8497,-6.8422,-6.7995,-6.7744,-6.8371,-6.7719,-6.7116,-6.7593,-6.7693,-6.7543,-6.7066,-6.6915,-6.6689,-6.6187,-6.6112,-6.6086,-6.6011,-6.5584,-6.5434,-6.5835,-6.5459,-6.5183,-6.5183,-6.4756,-6.4856,-6.581,-6.5007,-6.4881,-6.5835,-6.4982,-6.4655,-6.5057,-6.4605,-6.458,-6.5082,-6.5132,-6.5459,-6.5986,-6.5986,-6.6036,-6.6112,-6.6112,-6.6112,-6.6112,-6.6036,-6.5986,-6.5961,-6.5409,-6.4906,-6.4404,-6.3902,-6.3726,-6.3902,-6.4756,-6.5459,-6.6011,-6.2822,-6.2822,-6.2822,-6.2822,-6.2822,-6.2822,-6.2822,-6.2822,-6.2822,-6.2822,-6.2822,-6.2822,-6.2822,-6.2822,-6.2923,-6.3199,-6.2973,-6.2948,-6.3199,-6.2973,-6.2822,-6.2822,-6.2822,-6.2822,-6.2822,-6.2822,-6.2822,-6.2822,-6.2822,-6.2822,-6.2822,-6.2822,-6.2822,-6.2847,-6.3099,-6.355,-6.4128,-6.4128,-6.4756,-6.5685,-6.4906,-6.5208,-6.6061,-6.5509,-6.5634,-6.6162,-6.6488,-6.7668,-6.9125,-6.9351,-7.038,-7.1636,-7.2113,-7.2489,-7.274,-7.274,-7.2113,-7.1334,-7.0857,-6.9702,-6.8622,-6.8622,-6.8221,-6.7945,-6.8497,-6.8246,-6.797,-6.8221,-6.8271,-6.8196,-6.7945,-6.7392,-6.689,-6.6639,-6.6312,-6.6112,-6.6112,-6.5911,-6.5835,-6.6086,-6.5886,-6.576,-6.576,-6.5534,-6.5584,-6.6086,-6.566,-6.5609,-6.6086,-6.566,-6.5358,-6.5283,-6.5057,-6.5032,-6.5283,-6.5283,-6.5559,-6.6112,-6.6112,-6.6112,-6.6112,-6.6112,-6.6112,-6.6112,-6.6112,-6.5936,-6.5609,-6.5057,-6.453,-6.3977,-6.3425,-6.34,-6.3827,-6.4881,-6.5434,-6.5685]},{"header":{"parameterUnit":"m.s-1","parameterCategory":1,"la1":30.6,"la2":28.766,"lo1":-90.7593,"lo2":-88.6598,"dy":0.0162,"dx":0.0183,"nx":116,"ny":114,"refTime":"2024-04-26T12:00:00:Z","depth":0,"parameterNumber":3,"parameterNumberName":"V-component_of_WINDS"},"data":[0.0,0.0,0.0,0.0,0.0,0.0,0.0,0.0,0.0,0.0,0.0,0.0,0.0,0.0,0.0,0.0,0.0,0.0,0.0,0.0,0.0,0.0,0.0,0.0,0.0,0.0,0.0,0.0,0.0,0.0,0.0,0.0,0.0,0.0,0.0,0.0,0.0,0.0,0.0,0.0,0.0,0.0,0.0,0.0,0.0,0.0,0.0,0.0,0.0,0.0,0.0,0.0,0.0,0.0,0.0,0.0,0.0,0.0,0.0,0.0,0.0,0.0,0.0,0.0,0.0,0.0,0.0,0.0,0.0,0.0,0.0,0.0,0.0,0.0,0.0,0.0,0.0,0.0,0.0,0.0,0.0,0.0,0.0,0.0,0.0,0.0,0.0,0.0,0.0,0.0,0.0,0.0,0.0,0.0,0.0,0.0,0.0,0.0,0.0,0.0,0.0,0.0,0.0,0.0,0.0,0.0,0.0,0.0,0.0,0.0,0.0,0.0,0.0,0.0,0.0,0.0,0.0,0.0,0.0,0.0,0.0,0.0,0.0,0.0,0.0,0.0,0.0,0.0,0.0,0.0,0.0,0.0,0.0,0.0,0.0,0.0,0.0,0.0,0.0,0.0,0.0,0.0,0.0,0.0,0.0,0.0,0.0,0.0,0.0,0.0,0.0,0.0,0.0,0.0,0.0,0.0,0.0,0.0,0.0,0.0,0.0,0.0,0.0,0.0,0.0,0.0,0.0,0.0,0.0,0.0,0.0,0.0,0.0,0.0,0.0,0.0,0.0,0.0,0.0,0.0,0.0,0.0,0.0,0.0,0.0,0.0,0.0,0.0,0.0,0.0,0.0,0.0,0.0,0.0,0.0,0.0,0.0,0.0,0.0,0.0,0.0,0.0,0.0,0.0,0.0,0.0,0.0,0.0,0.0,0.0,0.0,0.0,0.0,0.0,0.0,0.0,0.0,0.0,0.0,0.0,0.0,0.0,0.0,0.0,0.0,0.0,0.0,0.0,0.0,0.0,0.0,0.0,0.0,0.0,0.0,0.0,0.0,0.0,0.0,0.0,0.0,0.0,0.0,0.0,0.0,0.0,0.0,0.0,0.0,0.0,0.0,0.0,0.0,0.0,0.0,0.0,0.0,0.0,0.0,0.0,0.0,0.0,0.0,0.0,0.0,0.0,0.0,0.0,0.0,0.0,0.0,0.0,0.0,0.0,0.0,0.0,0.0,0.0,0.0,0.0,0.0,0.0,0.0,0.0,0.0,0.0,0.0,0.0,0.0,0.0,0.0,0.0,0.0,0.0,0.0,0.0,0.0,0.0,0.0,0.0,0.0,0.0,0.0,0.0,0.0,0.0,0.0,0.0,0.0,0.0,0.0,0.0,0.0,0.0,0.0,0.0,0.0,0.0,0.0,0.0,0.0,0.0,0.0,0.0,0.0,0.0,0.0,0.0,0.0,0.0,0.0,0.0,0.0,0.0,0.0,0.0,0.0,0.0,0.0,0.0,0.0,0.0,0.0,0.0,0.0,0.0,0.0,0.0,0.0,0.0,0.0,0.0,0.0,0.0,0.0,0.0,0.0,0.0,0.0,0.0,0.0,0.0,0.0,0.0,0.0,0.0,0.0,0.0,0.0,0.0,0.0,0.0,0.0,0.0,0.0,0.0,0.0,0.0,0.0,0.0,0.0,0.0,0.0,0.0,0.0,0.0,0.0,0.0,0.0,0.0,0.0,0.0,0.0,0.0,0.0,0.0,0.0,0.0,0.0,0.0,0.0,0.0,0.0,0.0,0.0,0.0,0.0,0.0,0.0,0.0,0.0,0.0,0.0,0.0,0.0,0.0,0.0,0.0,0.0,0.0,0.0,0.0,0.0,0.0,0.0,0.0,0.0,0.0,0.0,0.0,0.0,0.0,0.0,0.0,0.0,0.0,0.0,0.0,0.0,0.0,0.0,0.0,0.0,0.0,0.0,0.0,0.0,0.0,0.0,0.0,0.0,0.0,0.0,0.0,0.0,0.0,0.0,0.0,0.0,0.0,0.0,0.0,0.0,0.0,0.0,0.0,0.0,0.0,0.0,0.0,0.0,0.0,0.0,0.0,0.0,0.0,0.0,0.0,0.0,0.0,0.0,0.0,0.0,0.0,0.0,0.0,0.0,0.0,0.0,0.0,0.0,0.0,0.0,0.0,0.0,0.0,0.0,0.0,0.0,0.0,0.0,0.0,0.0,0.0,0.0,0.0,0.0,0.0,0.0,0.0,0.0,0.0,0.0,0.0,0.0,0.0,0.0,0.0,0.0,0.0,0.0,0.0,0.0,0.0,0.0,0.0,0.0,0.0,0.0,0.0,0.0,0.0,0.0,0.0,0.0,0.0,0.0,0.0,0.0,0.0,0.0,0.0,0.0,0.0,0.0,0.0,0.0,0.0,0.0,0.0,0.0,0.0,0.0,0.0,0.0,0.0,0.0,0.0,0.0,0.0,0.0,0.0,0.0,0.0,0.0,0.0,0.0,0.0,0.0,0.0,0.0,0.0,0.0,0.0,0.0,0.0,0.0,0.0,0.0,0.0,0.0,0.0,0.0,0.0,0.0,0.0,0.0,0.0,0.0,0.0,0.0,0.0,0.0,0.0,0.0,0.0,0.0,0.0,0.0,0.0,0.0,0.0,0.0,0.0,0.0,0.0,0.0,0.0,0.0,0.0,0.0,0.0,0.0,0.0,0.0,0.0,0.0,0.0,0.0,0.0,0.0,0.0,0.0,0.0,0.0,0.0,0.0,0.0,0.0,0.0,0.0,0.0,0.0,0.0,0.0,0.0,0.0,0.0,0.0,0.0,0.0,0.0,0.0,0.0,0.0,0.0,0.0,0.0,0.0,0.0,0.0,0.0,0.0,0.0,0.0,0.0,0.0,0.0,0.0,0.0,0.0,0.0,0.0,0.0,0.0,0.0,0.0,0.0,0.0,0.0,0.0,0.0,0.0,0.0,0.0,0.0,0.0,0.0,0.0,0.0,0.0,0.0,0.0,0.0,0.0,0.0,0.0,0.0,0.0,0.0,0.0,0.0,0.0,0.0,0.0,0.0,0.0,0.0,0.0,0.0,0.0,0.0,0.0,0.0,0.0,0.0,0.0,0.0,0.0,0.0,0.0,0.0,0.0,0.0,0.0,0.0,0.0,0.0,0.0,0.0,0.0,0.0,0.0,0.0,0.0,0.0,0.0,0.0,0.0,0.0,0.0,0.0,0.0,0.0,0.0,0.0,0.0,0.0,0.0,0.0,0.0,0.0,0.0,0.0,0.0,0.0,0.0,0.0,0.0,0.0,0.0,0.0,0.0,0.0,0.0,0.0,0.0,0.0,0.0,0.0,0.0,0.0,0.0,0.0,0.0,0.0,0.0,0.0,0.0,0.0,0.0,0.0,0.0,0.0,0.0,0.0,0.0,0.0,0.0,0.0,0.0,0.0,0.0,0.0,0.0,0.0,0.0,0.0,0.0,0.0,0.0,0.0,0.0,0.0,0.0,0.0,0.0,0.0,0.0,0.0,0.0,0.0,0.0,0.0,0.0,0.0,0.0,0.0,0.0,0.0,0.0,0.0,0.0,0.0,0.0,0.0,0.0,0.0,0.0,0.0,0.0,0.0,0.0,0.0,0.0,0.0,0.0,0.0,0.0,0.0,0.0,0.0,0.0,0.0,0.0,0.0,0.0,0.0,0.0,0.0,0.0,0.0,0.0,0.0,0.0,0.0,0.0,0.0,0.0,0.0,0.0,0.0,0.0,0.0,0.0,0.0,0.0,0.0,0.0,0.0,0.0,0.0,0.0,0.0,0.0,0.0,0.0,0.0,0.0,0.0,0.0,0.0,0.0,0.0,0.0,0.0,0.0,0.0,0.0,0.0,0.0,0.0,0.0,0.0,0.0,0.0,0.0,0.0,0.0,0.0,0.0,0.0,0.0,0.0,0.0,0.0,0.0,0.0,0.0,0.0,0.0,0.0,0.0,0.0,0.0,0.0,0.0,0.0,0.0,0.0,0.0,0.0,0.0,0.0,0.0,0.0,0.0,0.0,0.0,0.0,0.0,0.0,0.0,0.0,0.0,0.0,0.0,0.0,0.0,0.0,0.0,0.0,0.0,0.0,0.0,0.0,0.0,0.0,0.0,0.0,0.0,0.0,0.0,0.0,0.0,0.0,0.0,0.0,0.0,0.0,0.0,0.0,0.0,0.0,0.0,0.0,0.0,0.0,0.0,0.0,0.0,0.0,0.0,0.0,0.0,0.0,0.0,0.0,0.0,0.0,0.0,0.0,0.0,0.0,0.0,0.0,0.0,0.0,0.0,0.0,0.0,0.0,0.0,0.0,0.0,0.0,0.0,0.0,0.0,0.0,0.0,0.0,0.0,0.0,0.0,0.0,0.0,0.0,0.0,0.0,0.0,0.0,0.0,0.0,0.0,0.0,0.0,0.0,0.0,0.0,0.0,0.0,0.0,0.0,0.0,0.0,0.0,0.0,0.0,0.0,0.0,0.0,0.0,0.0,0.0,0.0,0.0,0.0,0.0,0.0,0.0,0.0,0.0,0.0,0.0,0.0,0.0,0.0,0.0,0.0,0.0,0.0,0.0,0.0,0.0,0.0,0.0,0.0,0.0,0.0,0.0,0.0,0.0,0.0,0.0,0.0,0.0,0.0,0.0,0.0,0.0,0.0,0.0,0.0,0.0,0.0,0.0,0.0,0.0,0.0,0.0,0.0,0.0,0.0,0.0,0.0,0.0,0.0,0.0,0.0,0.0,0.0,0.0,0.0,0.0,0.0,0.0,0.0,0.0,0.0,0.0,0.0,0.0,0.0,0.0,0.0,0.0,0.0,0.0,0.0,0.0,0.0,0.0,0.0,0.0,0.0,0.0,0.0,0.0,0.0,0.0,0.0,0.0,0.0,0.0,0.0,0.0,0.0,0.0,0.0,0.0,0.0,0.0,0.0,0.0,0.0,0.0,0.0,0.0,0.0,0.0,0.0,0.0,0.0,0.0,0.0,0.0,0.0,0.0,0.0,0.0,0.0,0.0,0.0,0.0,0.0,0.0,0.0,0.0,0.0,0.0,0.0,0.0,0.0,0.0,0.0,0.0,0.0,0.0,0.0,0.0,0.0,0.0,0.0,0.0,0.0,0.0,0.0,0.0,0.0,0.0,0.0,0.0,0.0,0.0,0.0,0.0,0.0,0.0,0.0,0.0,0.0,0.0,0.0,0.0,0.0,0.0,0.0,0.0,0.0,0.0,0.0,0.0,0.0,0.0,0.0,0.0,0.0,0.0,0.0,0.0,0.0,0.0,0.0,0.0,0.0,0.0,0.0,0.0,0.0,0.0,0.0,0.0,0.0,0.0,0.0,0.0,0.0,0.0,0.0,0.0,0.0,0.0,0.0,0.0,0.0,0.0,0.0,0.0,0.0,0.0,0.0,0.0,0.0,0.0,0.0,0.0,0.0,0.0,0.0,0.0,0.0,0.0,0.0,0.0,0.0,0.0,0.0,0.0,0.0,0.0,0.0,0.0,0.0,0.0,0.0,0.0,0.0,0.0,0.0,0.0,0.0,0.0,0.0,0.0,0.0,0.0,0.0,0.0,0.0,0.0,0.0,0.0,0.0,0.0,0.0,0.0,0.0,0.0,0.0,0.0,0.0,0.0,0.0,0.0,0.0,0.0,0.0,0.0,0.0,0.0,0.0,0.0,0.0,0.0,0.0,0.0,0.0,0.0,0.0,0.0,0.0,0.0,0.0,0.0,0.0,0.0,0.0,0.0,0.0,0.0,0.0,0.0,0.0,0.0,0.0,0.0,0.0,0.0,0.0,0.0,0.0,0.0,0.0,0.0,0.0,0.0,0.0,0.0,0.0,0.0,0.0,0.0,0.0,0.0,0.0,0.0,0.0,0.0,0.0,0.0,0.0,0.0,0.0,0.0,0.0,0.0,0.0,0.0,0.0,0.0,0.0,0.0,0.0,0.0,0.0,0.0,0.0,0.0,0.0,0.0,0.0,0.0,0.0,0.0,0.0,0.0,0.0,0.0,0.0,0.0,0.0,0.0,0.0,0.0,0.0,0.0,0.0,0.0,0.0,7.1936,7.1607,0.0,0.0,0.0,0.0,0.0,0.0,0.0,0.0,0.0,0.0,0.0,0.0,0.0,0.0,0.0,0.0,0.0,0.0,0.0,0.0,0.0,0.0,0.0,5.2929,5.2929,5.2929,5.2929,5.2929,5.2929,5.2929,0.0,0.0,0.0,0.0,0.0,0.0,5.3306,5.411,5.4135,5.4436,5.4988,5.5541,5.5365,5.4632,0.0,0.0,0.0,0.0,0.0,0.0,0.0,0.0,0.0,0.0,0.0,0.0,0.0,0.0,0.0,0.0,0.0,0.0,0.0,0.0,0.0,0.0,0.0,0.0,0.0,0.0,0.0,0.0,0.0,0.0,0.0,0.0,0.0,0.0,0.0,0.0,0.0,0.0,0.0,0.0,0.0,0.0,0.0,0.0,0.0,0.0,0.0,0.0,0.0,0.0,0.0,0.0,0.0,0.0,0.0,0.0,0.0,0.0,0.0,0.0,0.0,0.0,0.0,0.0,0.0,0.0,0.0,0.0,0.0,0.0,7.5856,7.439,0.0,0.0,0.0,0.0,0.0,0.0,0.0,0.0,0.0,0.0,0.0,0.0,0.0,0.0,0.0,0.0,0.0,0.0,0.0,0.0,0.0,5.2176,5.2729,5.2879,5.2929,5.2929,5.3179,5.3359,5.3359,5.3283,5.3258,5.3359,5.2966,5.2829,5.2929,5.2929,5.3381,5.4285,5.4084,5.4612,5.5842,5.6018,5.5917,5.5541,5.4863,0.0,0.0,0.0,0.0,0.0,0.0,0.0,0.0,0.0,0.0,0.0,0.0,0.0,0.0,0.0,0.0,0.0,0.0,0.0,0.0,0.0,0.0,0.0,0.0,0.0,0.0,0.0,0.0,0.0,0.0,0.0,0.0,0.0,0.0,0.0,0.0,0.0,0.0,0.0,0.0,0.0,0.0,0.0,0.0,0.0,0.0,0.0,0.0,0.0,0.0,0.0,0.0,0.0,0.0,0.0,0.0,0.0,0.0,0.0,0.0,0.0,0.0,0.0,8.229,8.3636,8.5701,8.3936,8.3936,8.5103,8.1811,7.9148,7.7113,7.7143,0.0,0.0,0.0,0.0,0.0,0.0,0.0,0.0,0.0,0.0,0.0,0.0,0.0,0.0,0.0,0.0,0.0,0.0,0.0,5.1599,5.2151,5.2628,5.2929,5.2929,5.4231,5.5049,5.5049,5.4643,5.459,5.5022,5.3215,5.2427,5.2929,5.2929,5.3005,5.313,5.4511,5.5993,5.76,5.8529,5.9182,5.9408,5.6068,5.5315,5.6445,0.0,0.0,0.0,0.0,0.0,0.0,0.0,0.0,0.0,0.0,0.0,0.0,0.0,0.0,0.0,0.0,0.0,0.0,0.0,0.0,0.0,0.0,0.0,0.0,0.0,0.0,0.0,0.0,0.0,0.0,0.0,0.0,0.0,0.0,0.0,0.0,0.0,0.0,0.0,0.0,0.0,6.0392,6.3348,0.0,0.0,0.0,0.0,0.0,0.0,0.0,0.0,0.0,0.0,0.0,0.0,0.0,7.7682,8.0853,8.3307,8.4983,8.594,8.8245,8.9531,8.983,8.8993,8.9651,9.1416,9.0878,0.0,8.1691,7.9447,0.0,0.0,0.0,0.0,0.0,0.0,0.0,0.0,0.0,0.0,0.0,0.0,0.0,0.0,0.0,0.0,0.0,0.0,0.0,0.0,0.0,5.4495,5.5304,5.6279,5.7998,5.8461,5.6936,5.7336,5.7092,5.5817,5.4784,5.4558,5.5167,5.4849,5.5365,5.6891,5.8217,5.9536,6.1033,6.0909,6.1366,6.2144,6.0437,5.888,5.7449,5.6244,0.0,0.0,0.0,0.0,0.0,0.0,0.0,0.0,0.0,0.0,0.0,0.0,0.0,0.0,0.0,0.0,0.0,0.0,0.0,0.0,0.0,0.0,0.0,0.0,0.0,0.0,0.0,0.0,0.0,0.0,0.0,0.0,0.0,0.0,0.0,0.0,0.0,0.0,0.0,5.9623,6.3153,6.5374,6.6867,6.7296,0.0,0.0,0.0,0.0,0.0,0.0,0.0,0.0,0.0,8.0225,8.1631,8.3786,8.6718,8.8993,9.0848,9.2254,9.378,9.4708,9.5067,9.4768,9.5127,9.5935,9.5935,9.387,9.0219,8.6449,8.3427,8.0883,0.0,0.0,0.0,0.0,7.6904,7.7053,0.0,0.0,0.0,0.0,0.0,0.0,0.0,0.0,0.0,0.0,0.0,0.0,5.6037,5.6795,5.7833,5.9838,6.1426,6.1594,6.0018,5.9738,5.8976,5.7456,5.6526,5.6335,5.6969,5.7031,5.8262,6.0688,6.2269,6.3564,6.4706,6.4415,6.4634,6.5157,6.5782,6.3778,5.9734,5.873,5.7022,5.4963,0.0,0.0,0.0,0.0,0.0,0.0,0.0,0.0,0.0,0.0,0.0,0.0,0.0,0.0,0.0,0.0,0.0,0.0,0.0,0.0,0.0,0.0,0.0,0.0,0.0,0.0,0.0,0.0,0.0,0.0,0.0,0.0,0.0,0.0,0.0,0.0,0.0,6.3163,6.6174,6.8296,7.0973,7.1895,0.0,0.0,0.0,0.0,0.0,0.0,7.8998,8.1153,8.3457,8.591,8.7586,8.9711,9.2374,9.4199,9.5935,9.7581,9.8209,9.8867,9.9526,9.9346,9.9376,9.9526,9.9346,9.8628,9.7192,9.2224,8.8215,8.5013,8.2709,8.1512,8.1123,8.1631,8.1901,8.223,0.0,0.0,0.0,0.0,0.0,0.0,0.0,0.0,0.0,0.0,0.0,5.5304,5.8538,5.8861,5.9893,6.2458,6.3155,6.3849,6.4915,6.1113,5.9498,6.1135,5.7986,5.6424,5.6969,5.8879,6.0782,6.2573,6.5692,6.7544,6.8245,6.9877,7.0067,6.924,7.1565,6.978,6.468,6.0989,5.9056,5.8227,5.5616,0.0,0.0,0.0,0.0,0.0,0.0,0.0,0.0,0.0,0.0,0.0,0.0,0.0,0.0,0.0,0.0,0.0,0.0,0.0,0.0,0.0,0.0,0.0,0.0,0.0,0.0,0.0,0.0,0.0,0.0,0.0,0.0,0.0,0.0,0.0,0.0,0.0,0.0,7.406,7.733,0.0,0.0,0.0,0.0,7.825,8.0255,8.2559,8.5103,8.6,8.8185,9.2045,9.2853,9.4499,9.7132,9.8508,9.9556,10.0304,10.0962,10.159,10.2279,10.159,10.168,10.2279,10.159,10.0962,9.9825,9.396,9.0668,8.9052,8.5791,8.4504,8.4474,8.4504,8.4923,8.5372,0.0,0.0,0.0,0.0,0.0,4.8567,5.0559,5.088,5.1743,5.4254,5.5519,5.7617,6.1507,6.337,6.5581,6.8406,6.9178,6.9033,6.7821,6.5012,6.315,6.2559,6.0091,5.9568,6.1491,6.3885,6.6516,6.929,7.0764,7.2641,7.4796,7.338,7.3747,7.5477,7.526,7.4525,7.3264,6.9749,6.6783,6.413,6.0289,5.7703,0.0,0.0,0.0,0.0,0.0,0.0,0.0,0.0,0.0,0.0,0.0,0.0,0.0,0.0,0.0,0.0,0.0,0.0,0.0,0.0,0.0,0.0,0.0,0.0,0.0,0.0,0.0,0.0,0.0,0.0,0.0,0.0,0.0,0.0,0.0,0.0,0.0,8.0199,8.3517,0.0,8.0913,8.1751,8.2739,8.3187,8.6659,8.9531,9.1327,9.2853,9.4678,9.6982,9.767,9.8688,10.0064,10.0992,10.1561,10.18,10.2009,10.2279,10.2488,10.2279,10.2279,10.2488,10.2219,10.177,10.0872,9.791,9.5426,9.3242,9.0758,8.9531,8.9142,8.9142,8.9292,8.9531,0.0,0.0,0.0,0.0,0.0,4.8396,5.0611,5.0993,5.2162,5.5448,5.7414,6.0176,6.456,6.7143,6.9744,7.2678,7.2684,7.1816,7.0081,6.6879,6.4545,6.3438,6.1912,6.2121,6.4306,6.7597,7.059,7.3253,7.4903,7.6637,7.8322,7.6872,7.7264,7.9135,7.9263,7.9596,8.0054,7.8357,7.4124,6.8298,6.49,6.2051,5.9395,0.0,0.0,0.0,0.0,0.0,0.0,0.0,0.0,0.0,0.0,0.0,0.0,0.0,0.0,0.0,0.0,0.0,0.0,0.0,0.0,0.0,0.0,0.0,0.0,0.0,0.0,0.0,0.0,0.0,0.0,0.0,0.0,0.0,0.0,7.7595,8.2297,8.4749,8.8394,8.9471,8.6359,8.7676,8.8813,8.9023,9.2494,9.5187,9.6533,9.779,9.9137,10.0483,10.0693,10.1171,10.18,10.2279,10.2488,10.2488,10.2488,10.2488,10.2488,10.2488,10.2488,10.2488,10.2488,10.2099,10.1381,10.0304,9.8419,9.6084,9.4528,9.3691,9.3272,9.3032,9.2972,9.2913,0.0,0.0,0.0,0.0,0.0,4.836,5.1938,5.251,5.4121,5.851,6.0326,6.2959,6.7537,6.9842,7.2116,7.4749,7.3103,7.1906,7.1846,6.634,6.3348,6.3947,6.3438,6.3797,6.5203,6.9632,7.2624,7.4091,7.7921,7.9394,7.8545,8.0357,8.0779,8.0118,8.3649,8.4843,8.4434,8.6046,8.0552,7.0668,6.9254,6.6367,6.2838,0.0,0.0,0.0,0.0,0.0,0.0,0.0,0.0,0.0,0.0,0.0,0.0,0.0,0.0,0.0,0.0,0.0,0.0,0.0,0.0,0.0,0.0,0.0,0.0,0.0,0.0,0.0,0.0,0.0,0.0,0.0,0.0,0.0,7.6438,8.0954,8.524,8.7784,9.2045,9.381,9.1237,9.3332,9.5127,9.5755,9.7611,9.9256,10.0573,10.0603,10.1201,10.2488,10.189,10.186,10.2488,10.2488,10.2488,10.2488,10.2488,10.2488,10.2488,10.2488,10.2488,10.2488,10.2488,10.2099,10.1471,10.0782,9.9346,9.7521,9.6833,9.6533,9.6444,9.5785,9.5546,9.5247,0.0,0.0,0.0,4.6502,4.7376,4.8954,5.1507,5.246,5.4367,5.8554,6.1493,6.4784,6.8974,7.2475,7.5198,7.6844,7.433,7.2206,7.1248,6.6101,6.3139,6.3318,6.4066,6.6221,6.9931,7.1727,7.445,7.819,7.9297,8.0885,8.2888,8.1746,8.2744,8.5504,8.4801,8.5567,8.7461,8.7435,8.509,8.0911,7.5063,7.1507,6.9235,0.0,0.0,0.0,0.0,0.0,0.0,0.0,0.0,0.0,0.0,0.0,0.0,0.0,0.0,0.0,0.0,0.0,0.0,0.0,0.0,0.0,0.0,0.0,0.0,0.0,0.0,0.0,0.0,0.0,0.0,0.0,7.8938,8.2677,8.2991,8.7625,9.2073,9.5159,9.794,9.9286,9.8568,9.9615,10.0393,10.0603,10.1979,10.2907,10.3296,10.3296,10.3296,10.3206,10.2997,10.2787,10.2488,10.2488,10.2488,10.2488,10.2488,10.2488,10.2488,10.2488,10.2488,10.2488,10.2488,10.2398,10.2099,10.0962,10.0184,9.9466,9.7371,9.5995,9.5127,9.4947,9.4558,9.393,0.0,0.0,0.0,4.6301,4.7172,4.8773,5.1314,5.235,5.4297,5.853,6.269,6.646,6.9602,7.3762,7.6365,7.6574,7.4061,7.1577,6.9423,6.5622,6.3468,6.3468,6.5533,6.8315,7.1816,7.3373,7.5736,7.8968,7.9537,8.0943,8.3098,8.2468,8.3923,8.6818,8.632,8.7074,8.8663,8.8274,8.7676,8.646,8.0888,7.7512,7.5248,7.138,6.9593,6.9065,6.8257,6.8091,6.8046,6.6207,0.0,0.0,0.0,0.0,0.0,0.0,0.0,0.0,0.0,0.0,0.0,0.0,0.0,0.0,0.0,0.0,0.0,0.0,0.0,0.0,0.0,0.0,0.0,0.0,8.4115,8.8514,9.1117,9.39,9.6773,9.9825,10.1411,10.2398,10.2668,10.3087,10.3416,10.3715,10.4134,10.4613,10.5211,10.4702,10.4373,10.4224,10.4014,10.3685,10.3296,10.3296,10.3296,10.3296,10.3296,10.3117,10.2907,10.2907,10.2728,10.2488,10.2488,10.2189,10.159,10.0782,10.0004,9.9077,0.0,0.0,0.0,0.0,9.4349,9.378,0.0,0.0,4.6301,4.6301,4.6824,4.8215,5.111,5.2178,5.4177,5.8525,6.3531,6.7508,6.9482,7.3642,7.5856,7.4839,7.2714,7.0111,6.6969,6.5024,6.4156,6.4545,6.7627,7.026,7.2295,7.4809,7.6754,7.8041,7.9297,8.0255,8.0943,8.2858,8.4444,8.5791,8.7706,8.8663,8.8783,8.8783,8.8783,8.8574,8.606,8.3382,8.0621,7.833,7.7299,7.6996,7.594,7.4,7.1871,7.0871,0.0,0.0,0.0,0.0,0.0,0.0,0.0,0.0,0.0,0.0,0.0,0.0,0.0,0.0,0.0,0.0,0.0,0.0,0.0,0.0,0.0,0.0,0.0,0.0,8.9352,9.4229,9.9137,9.9406,9.9975,10.2398,10.3296,10.3895,10.4583,10.4613,10.4912,10.572,10.5211,10.5331,10.6498,10.5391,0.0,0.0,0.0,10.4373,10.4284,10.4284,10.4284,10.4284,10.4373,10.4014,10.3416,10.3416,10.3087,10.2488,10.2488,10.177,10.0573,10.0393,9.9167,9.7281,9.7281,9.7281,9.7042,9.5097,9.4379,9.411,0.0,4.6225,4.6301,4.6301,4.7342,4.874,5.0345,5.2322,5.4871,5.8348,6.2618,6.6161,6.8136,7.1038,7.3163,7.4001,7.0799,6.7777,6.5562,6.4515,6.5203,6.7926,7.0141,7.2535,7.5078,7.6634,7.81,7.9417,8.0225,8.0943,8.1631,8.3068,8.4444,8.5761,8.7227,8.8484,8.9471,8.9471,8.9471,8.9352,8.7766,8.5823,8.3722,8.2199,8.1287,8.066,7.9929,8.0601,8.1509,7.8741,7.6799,7.5,7.2028,6.7819,0.0,0.0,0.0,0.0,0.0,0.0,0.0,0.0,0.0,0.0,0.0,0.0,0.0,0.0,0.0,0.0,0.0,0.0,0.0,8.8065,9.393,9.8897,10.1531,10.2219,10.2847,10.3895,10.4613,10.5301,10.5929,10.6019,10.6498,10.7695,10.7665,10.7485,10.7216,10.6977,10.6408,10.5451,10.4732,10.4134,10.3625,10.3595,10.3595,10.3625,10.4134,0.0,10.3416,10.3416,10.3087,10.2488,10.2488,10.2009,10.1171,10.0094,9.8209,9.5965,9.5965,9.5965,9.5725,9.3721,9.3002,9.2793,0.0,4.5899,4.5974,4.625,4.7163,4.8247,4.9686,5.139,5.3546,5.6209,6.0058,6.2972,6.4052,6.7107,6.9001,6.8772,6.6449,6.5024,6.5024,6.5622,6.7478,7.0829,7.2864,7.4839,7.6814,7.7801,7.8639,7.9297,8.0315,8.0973,8.1332,8.2619,8.3936,8.5252,8.6599,8.7736,8.8693,8.9052,8.9352,8.9591,8.8604,8.7796,8.7048,8.5731,8.5222,8.5192,8.4863,8.5162,8.5402,8.3427,8.173,8.0146,7.777,7.4018,6.9869,0.0,0.0,0.0,0.0,0.0,0.0,0.0,0.0,0.0,0.0,0.0,0.0,0.0,0.0,7.6874,8.0165,0.0,8.9082,9.3391,9.7431,10.0693,10.2698,10.3506,10.4134,10.4822,10.4912,10.5421,10.6797,10.6887,10.7306,10.8293,10.8383,10.8263,10.7874,10.7575,10.6917,10.5929,10.5301,10.4613,10.3924,10.4224,10.4433,10.4433,10.4732,10.4523,10.3895,10.3595,10.3087,10.2488,10.2488,10.189,10.0872,9.9197,9.7551,9.6025,9.5366,9.4888,9.4379,9.2733,9.2314,9.2404,0.0,4.5246,4.5522,4.62,4.6602,4.7303,4.8942,5.0259,5.1796,5.3964,5.7349,5.9598,5.9726,6.277,6.421,6.2769,6.2795,6.3647,6.5473,6.7687,7.029,7.3373,7.5527,7.7083,7.7981,7.8789,7.9178,7.9178,8.0524,8.1123,8.1033,8.2469,8.3436,8.409,8.6052,8.6987,8.732,8.8561,8.9382,8.9801,8.9292,8.9382,8.9741,8.8663,8.8514,8.8873,8.8723,8.7736,8.6389,8.5881,8.4564,8.2948,8.1901,7.9656,7.6754,7.3253,7.1605,0.0,0.0,0.0,0.0,0.0,0.0,0.0,0.0,7.1667,7.3881,7.6933,7.9537,8.2649,8.7197,9.0279,9.3601,9.8,10.0124,10.18,10.3416,10.4194,10.4822,10.554,10.5211,10.569,10.7396,10.7695,10.8084,10.8682,10.8652,10.8503,10.8383,10.7605,10.6887,10.6229,10.5421,10.4822,10.4403,10.4822,10.5121,10.5241,10.5241,10.4912,10.4194,10.3625,10.3087,10.2488,10.2099,10.1171,9.9765,9.788,9.6683,9.5875,9.4678,9.381,9.3062,9.2015,9.1955,9.2254,0.0,4.4392,4.5045,4.6125,4.5949,4.621,4.7828,4.9395,5.1054,5.2944,5.5776,5.7619,5.7591,5.8557,5.9217,5.9241,6.3149,6.6161,6.7537,7.062,7.3313,7.5467,7.8011,7.9148,7.8699,7.9926,8.0584,8.0584,8.1901,8.223,8.1721,8.3606,8.3461,8.1823,8.578,8.6801,8.5696,8.9003,9.0459,9.0519,9.0459,9.0459,9.0519,9.0369,8.998,8.9471,8.8903,8.7437,8.5791,8.5731,8.5162,8.4474,8.4325,8.3606,8.208,7.819,7.4941,7.1917,6.8615,6.726,6.7549,7.0211,7.1046,7.3141,0.0,8.1183,8.1811,8.624,8.8753,9.0728,9.2494,9.5456,9.803,9.9197,10.1979,10.4014,10.4284,10.4912,10.554,10.6229,10.6707,10.7366,10.8174,10.8802,10.943,11.0029,10.961,10.9011,10.8383,10.7186,10.6199,10.554,10.4313,10.3895,10.4403,10.3895,10.3924,10.4493,10.4493,10.4194,10.3535,10.3446,10.3087,10.2398,10.0603,9.9077,9.773,9.6354,9.5067,9.384,9.3092,9.2434,9.1835,9.1686,9.1656,9.1626,0.0,4.4192,4.4593,4.605,4.6125,4.62,4.6878,4.8095,4.9163,4.9944,5.1892,5.3185,5.2844,5.3592,5.4919,5.6766,6.0355,6.3858,6.7177,7.1577,7.5288,7.8071,7.9956,8.0823,8.0524,8.1093,8.0704,7.9324,8.0717,8.139,8.1429,8.1249,8.1729,8.2889,8.3274,8.4075,8.5217,8.7137,8.8787,9.01,9.0489,9.0638,9.0549,8.9801,8.8843,8.7826,8.7167,8.5671,0.0,8.3547,8.2978,8.2649,8.3786,8.238,7.9866,7.7831,7.5736,7.3762,7.2355,7.1517,7.1427,7.3193,7.5647,7.8699,8.2798,8.4803,8.6898,9.0728,9.3391,9.5666,9.779,9.9645,10.1291,10.2728,10.3805,10.4523,10.4912,10.4912,10.4643,10.4194,10.5391,10.6797,10.8263,10.8652,10.8892,10.9191,10.9311,10.8593,10.6797,10.6498,10.572,10.4313,10.3715,10.3386,10.3296,10.3386,10.3535,10.3805,10.3805,10.3715,10.3416,10.2608,10.171,10.0693,9.9466,9.8179,9.6862,9.5546,9.4469,9.3481,9.2434,9.1865,9.1566,9.1177,9.1057,9.0997,0.0,4.4091,4.4418,4.5623,4.61,4.6351,4.6527,4.7205,4.7732,4.7883,4.9113,4.9866,4.9615,5.0551,5.2024,5.42,5.7596,6.1251,6.5279,7.0673,7.5011,7.7912,7.9712,8.059,8.0415,8.0766,8.0041,7.8191,7.947,8.0294,8.0749,7.982,8.0395,8.2274,8.1333,8.1815,8.3405,8.5392,8.6943,8.8051,8.9692,8.9686,8.8623,8.7703,8.615,8.4474,8.4384,8.2709,8.0494,7.9836,7.8738,7.806,8.0496,7.8922,7.6178,7.6442,7.5138,7.3485,7.3227,7.3482,7.43,7.6066,8.0135,8.4115,8.5791,8.8723,9.1955,9.4888,9.7281,9.9526,10.159,10.2698,10.3805,10.5211,10.5301,10.5331,10.563,10.4912,10.3895,10.2668,10.3296,10.4583,10.6558,10.7575,10.8084,10.8084,10.8383,10.7725,10.581,10.563,10.4912,10.3446,10.3236,10.3027,10.2787,10.3027,10.3236,10.3416,10.3236,10.3206,10.3117,10.18,10.0483,9.9197,9.8359,9.7252,9.5935,9.4798,9.381,9.2943,9.1985,9.1506,9.1297,9.0818,9.0638,9.0638,0.0,0.0,4.4618,4.4669,4.5598,4.6502,4.7029,4.7068,4.733,4.7832,4.8435,4.9012,4.954,5.0462,5.1057,5.1118,5.579,5.9615,6.1614,6.7393,7.158,7.3411,7.6346,7.7588,7.6953,7.8113,7.8359,7.7779,7.8993,7.96,7.9628,8.0814,8.0139,7.8261,8.1063,8.1154,7.9389,8.47,8.5663,8.3856,8.8022,8.7469,8.4203,8.3943,8.1871,7.9208,8.0494,7.843,7.5018,7.436,7.2178,7.0359,7.4,7.3747,7.2527,7.5123,7.3163,6.9908,6.8894,7.1217,7.4988,7.9507,8.4594,8.9142,9.1746,9.4858,9.779,9.9855,10.1381,10.2578,10.3236,10.4433,10.5331,10.5421,10.6498,10.7096,10.6498,10.5211,10.3895,10.2668,10.0812,10.0483,10.2488,10.557,10.7396,10.7396,10.6827,10.6498,10.6408,10.4523,10.3506,10.3416,10.2817,10.2817,10.3416,10.2817,10.2817,10.3416,10.2817,10.2518,10.2488,10.1112,9.9795,9.8478,9.7192,9.5875,9.4618,9.39,9.2853,9.1686,9.1626,9.1237,9.0668,9.0638,9.0638,9.0638,0.0,0.0,0.0,0.0,0.0,4.6376,4.6552,4.6903,4.733,4.7832,4.841,0.0,0.0,0.0,0.0,0.0,5.3855,5.6699,5.9275,6.5167,6.9241,7.0679,7.4629,7.6899,7.7008,7.7724,7.7798,7.7207,7.7207,7.7913,7.9155,7.7844,7.7953,7.905,7.8527,7.8492,7.9041,8.0874,8.1872,8.2276,8.2624,8.2988,8.3228,8.0705,7.8523,7.6604,0.0,7.1876,6.9385,6.7618,6.609,6.5138,6.6644,6.598,6.5065,6.7107,6.8576,7.0095,7.2167,7.5895,8.0225,8.4893,8.8693,9.2194,9.5725,9.773,9.9137,10.0274,10.0184,9.9915,10.0124,10.0543,10.1411,10.3206,10.4583,10.56,10.6318,10.5211,10.3296,10.0214,10.0004,9.9556,9.8059,10.168,10.4702,10.5989,10.5899,10.5331,10.4493,10.3805,10.3236,10.2817,10.2608,10.2608,10.2817,10.2608,10.2608,10.2787,10.2099,10.1381,10.0483,9.9586,9.8478,9.7192,9.6294,9.5157,9.387,9.3212,9.2404,9.1566,9.1147,9.0848,9.0638,9.0638,9.0638,9.0638,0.0,0.0,0.0,0.0,0.0,0.0,0.0,0.0,0.0,0.0,0.0,0.0,0.0,0.0,0.0,0.0,0.0,5.4177,5.6256,6.0972,6.4374,6.584,6.9319,7.1469,7.1977,7.251,7.2646,7.2434,7.2485,7.3353,7.495,7.3875,7.4451,7.6311,7.4915,7.4979,7.6119,7.681,7.7183,7.7243,7.6866,7.7222,7.7543,7.4603,7.2665,0.0,6.7956,6.5652,6.3921,6.2363,6.1098,6.0302,6.0914,6.1342,6.1824,6.2956,6.6611,7.118,7.536,7.9723,8.4354,8.9232,9.2404,9.5157,9.8179,9.9376,9.9825,9.9795,9.8538,9.7252,9.6533,9.6204,9.6922,9.9586,10.0902,10.2398,10.4702,10.3206,10.1201,9.9107,9.8778,9.8089,9.6444,9.8957,10.162,10.3835,10.4014,10.3835,10.3416,10.3206,10.2907,10.2488,10.2488,10.2488,10.2488,10.2488,10.2368,10.2099,10.1201,10.0184,9.9137,9.8239,9.7252,9.6174,9.5516,9.4469,9.3212,9.2763,9.2075,9.1237,9.0788,9.0638,9.0638,9.0638,9.0638,9.0638,0.0,0.0,0.0,0.0,0.0,0.0,0.0,0.0,0.0,0.0,0.0,0.0,0.0,0.0,0.0,0.0,0.0,0.0,5.2722,5.5306,5.7565,5.9183,6.0964,6.2169,6.2722,6.3299,6.3877,6.4429,6.5409,6.6463,6.7593,6.915,6.9878,6.9903,7.0455,7.0681,7.0789,7.2555,7.163,6.9105,7.096,7.0235,6.7871,6.6048,6.4747,6.362,6.1825,6.0296,5.9061,5.8754,5.7542,5.6279,5.7128,5.9792,6.267,6.3202,6.7622,7.3355,7.8243,8.2772,8.7377,9.2464,9.5636,9.785,9.9167,9.9885,9.9885,9.8508,9.6593,9.4499,9.2349,9.1572,9.2224,9.4801,9.6026,9.8089,10.2009,9.9855,9.8269,9.9436,9.7371,9.6294,9.7371,9.7521,9.8628,10.1354,10.1381,10.1979,10.3296,10.2817,10.2488,10.2488,10.2488,10.2488,10.2488,10.2488,10.2069,10.1351,10.0094,9.9077,9.8389,9.7102,9.6174,9.5546,9.4858,9.381,9.2613,9.2554,9.1805,9.0638,9.0638,9.0638,9.0638,9.0638,9.0638,9.0638,0.0,0.0,0.0,0.0,0.0,0.0,0.0,0.0,0.0,0.0,0.0,0.0,0.0,0.0,0.0,0.0,0.0,0.0,5.1021,5.3645,5.5386,5.5864,5.8981,6.1014,6.1592,6.2144,6.2923,6.3877,6.3324,6.34,6.4103,6.453,6.4731,6.4756,6.5333,6.5333,6.4931,6.5401,6.471,6.3206,6.2507,6.2745,6.3511,6.2824,6.2452,6.2284,6.2553,6.1074,5.9001,5.823,5.8171,5.8646,5.9764,6.1771,6.4505,6.8691,7.3415,7.8457,8.3459,8.8457,9.2883,9.5217,9.6653,9.773,9.8568,9.8149,9.6922,9.4588,9.1386,8.7631,8.3378,8.5534,8.8346,8.9633,9.5288,10.0513,10.3506,10.3176,10.2009,10.0393,9.9645,9.8778,9.7611,9.797,9.8957,10.0603,10.0753,10.1291,10.2668,10.2578,10.2488,10.2488,10.2488,10.2488,10.2488,10.1979,10.1171,10.0004,9.9167,9.8179,9.7042,9.6204,9.5755,9.5516,9.4349,9.3361,9.2554,9.2075,9.1386,9.0638,9.0638,9.0638,9.0638,9.0638,9.0638,9.0638,0.0,0.0,0.0,0.0,0.0,0.0,0.0,0.0,0.0,0.0,0.0,0.0,0.0,0.0,0.0,0.0,0.0,0.0,0.0,5.2251,5.3231,5.3482,5.5566,5.6872,5.7198,5.775,5.8453,5.9307,5.893,5.9156,5.9935,6.0161,6.0286,6.0311,6.0889,6.0839,6.0286,6.0286,5.9659,0.0,0.0,5.7169,5.8642,5.8489,5.9042,6.0117,6.1339,6.1732,6.1828,6.247,6.2102,6.189,6.5024,6.7406,7.0136,7.6066,8.0183,8.4032,8.8837,9.3182,9.6503,9.7252,9.77,9.7521,9.5875,9.4708,9.2733,8.8334,8.4268,8.03,7.6044,7.8792,8.2242,8.417,9.1351,9.803,10.2099,10.2398,10.2099,10.18,10.1291,10.0483,9.9346,9.9316,9.9795,10.0872,10.0663,10.1082,10.2398,10.2488,10.2488,10.2488,10.2488,10.2368,10.2069,10.1381,10.0393,9.9077,9.8119,9.7132,9.6114,9.5456,9.5157,9.5127,9.4349,9.3481,9.2583,9.2194,9.1506,9.0638,9.0638,9.0638,9.0638,9.0638,9.0638,9.0638,0.0,0.0,0.0,0.0,0.0,0.0,0.0,0.0,0.0,0.0,4.9138,4.9515,0.0,0.0,0.0,0.0,0.0,0.0,0.0,0.0,5.1699,5.2201,5.2226,5.2176,5.2101,5.2503,5.2929,5.3381,5.3808,5.4536,5.5566,5.5968,5.6143,5.6168,5.6671,5.662,5.6143,5.6143,5.5566,5.4486,5.3055,5.2976,5.3737,0.0,5.5457,5.76,5.9563,6.2121,6.5144,6.8405,6.7823,6.6631,7.204,7.5159,7.8013,8.3997,8.7107,8.9561,9.393,9.6626,9.8235,9.8478,9.8088,9.6567,9.2319,9.0519,8.7885,8.1482,7.721,7.3618,7.0082,7.2417,7.6005,7.9623,8.6562,9.3701,10.0034,10.0483,10.0992,10.3296,10.2488,10.177,10.177,10.1171,10.0992,10.1561,10.1082,10.1291,10.2398,10.2488,10.2488,10.2368,10.2368,10.2009,10.1351,10.0693,9.9675,9.8359,9.7162,9.6174,9.5456,9.4858,9.4618,9.4588,9.4409,9.3661,9.2583,9.2404,9.1656,9.0638,9.0638,9.0638,9.0638,9.0638,9.0579,9.0519,0.0,0.0,0.0,0.0,0.0,0.0,0.0,0.0,0.0,0.0,5.0444,5.0243,0.0,0.0,0.0,0.0,0.0,0.0,0.0,0.0,0.0,5.2779,5.2779,5.2578,5.2126,5.1749,5.1599,5.1699,5.1322,5.1473,5.2126,5.1749,5.1574,5.1574,5.1674,5.1649,5.1574,5.1574,5.1197,5.0569,5.0293,5.001,4.9952,5.175,0.0,0.0,5.9701,6.1642,6.3588,7.0051,7.3304,7.5324,7.9664,8.2686,8.5595,8.9957,9.2254,9.405,9.7042,9.7283,9.7046,9.8203,9.5925,9.2875,9.058,8.7377,8.3367,7.7891,7.4484,7.0846,6.5596,6.9351,7.4827,7.9425,8.6111,9.3569,10.1822,10.3296,10.3715,10.4194,10.3535,10.3087,10.3087,10.2518,10.2189,10.2309,10.2189,10.2279,10.2488,10.2488,10.2219,10.168,10.165,10.1444,10.0663,10.0004,9.8987,9.767,9.6922,9.5935,9.4768,9.4648,9.4618,9.4558,9.3421,9.2823,9.2524,9.1416,9.0848,9.0638,9.0638,9.0638,9.0638,9.0638,9.0279,8.983,0.0,0.0,0.0,0.0,0.0,0.0,0.0,5.0494,5.0971,5.2352,5.2804,5.2452,5.1021,5.1373,5.1599,0.0,0.0,0.0,0.0,0.0,0.0,5.2929,5.2929,5.2678,5.2126,5.2126,5.2,5.1699,0.0,5.1147,5.1699,5.082,5.0569,5.087,5.087,5.0695,5.0444,5.0745,5.0368,4.964,5.0243,5.0142,4.9859,5.1981,0.0,0.0,6.1023,6.2989,6.4874,6.9752,7.427,7.8849,8.4564,8.8155,9.0908,9.4169,9.4814,9.5002,9.7352,9.7633,9.7404,9.7358,9.5445,9.2158,8.6808,8.2739,7.825,7.1607,6.8011,6.5088,6.1747,6.5359,7.0238,7.4614,8.1356,8.9319,9.8536,10.0393,10.18,10.4613,10.4643,10.4313,10.3984,10.3326,10.2817,10.2518,10.2488,10.2488,10.2488,10.2488,10.2189,10.1471,10.1471,10.0992,9.9975,9.9675,9.8837,9.7491,9.6862,9.6055,9.5097,9.4768,9.4618,9.4558,9.393,9.3451,9.3032,9.2075,9.1446,9.1117,9.0788,9.0638,9.0608,9.0249,8.995,8.9621,0.0,0.0,0.0,0.0,0.0,0.0,5.2,5.1925,5.2352,5.4336,5.5265,5.4787,5.2251,5.2477,5.2503,0.0,0.0,0.0,0.0,0.0,0.0,0.0,0.0,0.0,5.2126,0.0,0.0,5.2101,5.1674,0.0,0.0,0.0,0.0,0.0,5.1322,5.1021,5.0619,5.1096,5.077,0.0,0.0,5.1261,5.1379,0.0,0.0,0.0,0.0,6.3947,6.5832,6.8764,7.2902,7.7895,8.4544,8.9643,9.3631,9.5965,9.5989,9.5767,9.7712,9.8252,9.8046,9.7123,9.4946,9.1041,8.338,7.8549,7.3732,6.652,6.3163,6.0959,5.9441,6.1914,6.5593,6.984,7.5673,8.3365,9.4013,9.6358,9.9009,10.4308,10.5121,10.5002,10.4493,10.3685,10.2997,10.2518,10.2488,10.2488,10.2488,10.2488,10.2099,10.1261,10.1261,10.0603,9.9316,9.9286,9.8628,9.7281,9.6803,9.6144,9.5366,9.4858,9.4618,9.4588,9.4439,9.399,9.3332,9.2673,9.2015,9.1357,9.0848,9.0638,9.0579,9.007,8.9711,8.9382,0.0,0.0,0.0,0.0,0.0,0.0,5.2528,5.2804,5.3909,5.7097,5.7148,5.6219,5.4461,5.4762,5.4461,0.0,0.0,0.0,0.0,0.0,0.0,0.0,0.0,0.0,0.0,0.0,0.0,5.2101,5.2051,0.0,0.0,0.0,0.0,0.0,0.0,5.1247,5.1197,5.1247,0.0,0.0,0.0,0.0,0.0,0.0,0.0,0.0,0.0,6.269,6.3947,6.7807,6.9552,7.0819,7.5216,8.3648,9.2075,9.3511,9.5938,9.8564,10.0625,9.9787,9.8331,9.8342,9.3155,8.6887,8.1998,7.6455,7.0949,6.6041,6.4308,6.2844,6.0088,6.0749,6.3433,6.8697,7.1015,7.6757,9.0219,9.4069,9.7616,10.2863,10.4134,10.4493,10.4403,10.3296,10.2578,10.2488,10.2488,10.2488,10.2488,10.2488,10.189,10.0603,10.0573,9.9945,9.8628,9.8598,9.797,9.6653,9.6593,9.5905,9.4708,9.4648,9.4618,9.4588,9.396,9.3302,9.2643,9.1985,9.1327,9.0728,9.0668,9.0638,9.0638,9.0579,8.9801,8.8753,0.0,0.0,0.0,0.0,0.0,0.0,5.2528,5.2076,5.298,5.7323,5.77,5.7298,5.6646,5.647,5.5189,5.2201,0.0,0.0,0.0,0.0,0.0,0.0,0.0,0.0,0.0,0.0,5.2603,5.2603,5.2277,0.0,0.0,0.0,0.0,0.0,0.0,5.2277,5.2277,5.2277,0.0,0.0,0.0,0.0,0.0,0.0,0.0,0.0,0.0,0.0,6.1759,6.3371,6.454,6.5737,6.7622,7.3628,8.1076,8.6827,9.0398,9.3234,9.6802,9.806,9.8,9.6965,9.2746,8.7316,8.1526,7.5288,6.9393,6.4784,6.2795,6.1515,6.037,5.9126,6.0375,6.6548,6.6033,6.9183,8.1619,8.379,8.7428,9.6476,9.8397,10.0365,10.4039,10.3595,10.2907,10.2518,10.2488,10.2488,10.2488,10.2099,10.165,10.1082,10.0304,9.9645,9.9137,9.8299,9.7641,9.7102,9.6354,9.5695,9.5187,9.4798,9.4379,9.396,9.3691,9.3212,9.2554,9.1895,9.1446,9.1177,9.0788,9.0638,9.0549,8.9741,8.9142,8.8574,0.0,0.0,0.0,0.0,0.0,4.9665,5.2277,5.1825,5.2729,5.7072,5.765,5.765,5.765,5.6545,5.4863,5.2452,5.2151,0.0,0.0,0.0,0.0,0.0,0.0,0.0,0.0,0.0,5.2929,5.2929,5.2528,5.2553,0.0,0.0,5.2553,5.2929,0.0,0.0,0.0,0.0,0.0,0.0,0.0,0.0,0.0,0.0,0.0,0.0,0.0,0.0,0.0,0.0,0.0,6.173,6.1798,6.5107,7.0821,8.0435,8.5642,8.9265,9.389,9.6864,9.8145,9.6223,9.2392,8.7347,8.0734,7.427,6.8405,6.3977,6.2086,6.111,6.06,5.8602,5.8614,6.3398,6.1868,6.3724,7.4119,7.616,8.0279,9.0132,9.2708,9.5839,10.1557,10.2698,10.2997,10.2518,10.2309,10.2189,10.2189,10.1381,10.0962,10.1171,9.9885,9.9107,9.8897,9.779,9.7132,9.6922,9.6025,9.5486,9.5277,9.4618,9.405,9.3571,9.3361,9.2913,9.2284,9.1805,9.1506,9.1297,9.0818,9.0638,9.0489,8.9382,8.8843,8.8484,0.0,0.0,0.0,0.0,0.0,4.954,5.1774,5.2553,5.3909,5.6671,5.7047,5.7047,5.7047,5.4612,5.3381,5.4436,5.3055,0.0,0.0,0.0,0.0,0.0,0.0,0.0,0.0,0.0,5.2929,5.2929,5.2929,5.2929,5.2929,5.2929,5.2929,5.2929,0.0,0.0,0.0,0.0,0.0,0.0,0.0,0.0,5.5918,0.0,0.0,0.0,0.0,0.0,0.0,0.0,0.0,0.0,0.0,5.9368,6.3286,7.536,8.3098,8.8672,9.3306,9.7042,9.9047,9.7102,9.2135,8.6,7.9327,7.3253,6.7897,6.3887,6.3079,6.2555,6.081,5.9549,5.8805,5.8901,5.8811,6.1376,6.9077,7.3924,7.8984,8.5096,8.8191,9.1566,9.6204,10.0184,10.2488,10.2488,10.186,10.1471,10.1471,10.0214,9.9825,10.0483,9.9226,9.8209,9.7521,9.6892,9.6264,9.5606,9.5606,9.5247,9.4588,9.39,9.3601,9.3541,9.2883,9.2224,9.1626,9.1626,9.1237,9.0638,9.0638,9.0638,9.0549,8.989,8.9232,8.8484,0.0,0.0,0.0,0.0,0.0,0.0,4.9665,4.964,5.0494,5.3306,5.3984,5.4662,5.5792,5.4135,5.3206,5.3909,5.2477,0.0,0.0,0.0,0.0,0.0,0.0,0.0,0.0,5.2929,5.2929,5.2929,5.2929,5.2929,5.2929,5.2929,5.2929,5.2929,5.2929,5.2929,0.0,0.0,0.0,0.0,0.0,5.6956,5.5787,0.0,0.0,0.0,0.0,0.0,0.0,0.0,0.0,0.0,0.0,0.0,0.0,6.8758,7.4591,7.9924,8.4611,8.7261,8.8337,8.6847,8.4025,8.0225,7.4958,7.0919,6.7298,6.3797,6.3079,6.2933,6.235,6.0984,6.1417,6.5729,6.4291,6.4646,7.0595,7.4041,7.8423,8.4951,9.3689,9.9466,10.0513,10.177,10.2488,10.2488,10.186,10.1471,10.1471,9.9795,9.9346,10.0483,9.8748,9.794,9.8179,9.6683,9.5785,9.5576,9.5127,9.4558,9.39,9.3691,9.3092,9.2224,9.2015,9.1566,9.0938,9.0938,9.0818,9.0638,9.0638,9.0638,9.0489,8.9412,8.8873,8.8424,0.0,0.0,0.0,0.0,0.0,0.0,4.8435,4.851,4.9163,5.0921,5.1624,5.2678,5.4561,5.2904,5.2302,5.3884,5.2352,0.0,0.0,0.0,0.0,0.0,0.0,0.0,5.2929,5.2929,5.3231,5.3858,5.3858,5.4059,5.4486,5.4486,5.4135,5.3557,5.3557,5.3306,0.0,0.0,0.0,0.0,5.7533,5.7914,5.6763,0.0,0.0,0.0,0.0,0.0,0.0,0.0,0.0,0.0,0.0,0.0,0.0,0.0,6.7665,7.1403,7.8103,8.1248,8.2399,8.16,7.9716,7.6904,7.2505,6.9482,6.6729,6.3707,6.3079,6.3079,6.3079,6.1849,6.187,6.524,6.4554,6.4887,6.8401,7.3022,7.8745,8.6037,9.4872,10.0304,9.9915,10.1201,10.2099,10.2099,10.1261,10.0603,10.0393,9.8957,9.8389,9.8987,9.7551,9.6982,9.7401,9.5965,9.5097,9.4828,9.4409,9.387,9.3212,9.2943,9.2404,9.1596,9.1357,9.1027,0.0,9.0638,9.0638,9.0608,9.0369,9.0279,9.01,8.8813,8.8304,8.8035,0.0,0.0,0.0,0.0,0.0,0.0,0.0,4.8837,4.9515,4.9439,4.9967,5.1122,5.313,5.1096,5.087,5.413,5.2452,0.0,0.0,0.0,0.0,0.0,0.0,0.0,5.2929,5.2929,5.3708,5.5265,5.5315,5.5867,5.6922,5.6972,5.6118,5.4561,5.4561,5.3959,5.2998,5.4675,5.5419,5.5683,5.8952,5.9475,0.0,0.0,0.0,0.0,0.0,0.0,0.0,0.0,0.0,0.0,0.0,0.0,0.0,0.0,0.0,0.0,0.0,7.77,7.963,7.9627,7.7801,7.5078,7.1278,6.8555,0.0,6.3588,6.3079,6.3109,6.3199,6.2261,6.0998,5.9743,6.1486,6.3266,6.423,7.2057,8.06,8.8352,9.3302,9.6025,9.5875,9.9256,10.1471,10.1381,10.0184,9.9137,9.8478,9.776,9.7102,9.6533,9.5875,9.5546,9.5606,9.4888,9.4229,9.3571,9.3541,9.3152,9.2524,9.1895,9.1596,9.1506,9.0908,9.0638,9.0638,9.0579,9.0579,9.0519,8.986,8.9591,8.9441,8.8185,8.7676,8.7347,0.0,0.0,0.0,0.0,0.0,0.0,0.0,0.0,0.0,0.0,4.8912,4.9816,4.9916,4.9741,5.0268,0.0,0.0,0.0,0.0,0.0,0.0,0.0,0.0,0.0,5.2929,5.2929,5.3306,5.411,5.4536,5.5114,5.5792,5.6219,5.5742,5.4561,5.4561,5.3959,5.2998,5.4675,5.5419,5.5617,5.7724,5.9132,0.0,0.0,0.0,0.0,6.2366,6.266,0.0,0.0,0.0,0.0,0.0,0.0,0.0,0.0,6.1836,6.2734,6.5532,0.0,6.7969,6.7909,6.8256,6.8046,0.0,6.5562,6.5024,6.3408,6.3079,6.3378,6.4395,6.3564,6.3505,6.618,6.753,6.884,7.0488,7.9496,8.8167,9.408,9.8359,10.0274,9.8718,10.0364,10.1261,10.0782,9.9496,9.8448,9.776,9.6653,9.5965,9.5815,9.5187,9.5097,9.5576,9.4409,9.375,9.3571,9.3062,9.2494,9.1835,9.1686,9.1357,9.0848,9.0698,9.0638,9.0608,9.01,8.989,8.983,8.9172,8.8933,8.8813,8.8005,8.7377,8.6718,0.0,0.0,0.0,0.0,0.0,0.0,0.0,0.0,0.0,0.0,4.8887,4.949,4.9188,4.9414,5.0042,0.0,0.0,0.0,0.0,0.0,0.0,0.0,5.2929,5.2929,5.2929,5.2929,5.3432,5.4486,5.5039,5.5993,5.7273,5.7575,5.6997,5.5641,5.4386,5.3482,5.3042,5.5512,5.6141,5.5683,5.9008,0.0,0.0,0.0,0.0,0.0,6.2331,6.251,0.0,6.2331,6.254,6.2899,0.0,0.0,0.0,0.0,6.1134,6.1792,6.245,6.3771,6.5022,6.5292,6.5922,6.6191,6.5144,6.4725,6.4276,6.3288,6.3079,6.3288,6.4006,6.4036,6.4517,6.6218,6.847,7.1816,7.7143,8.4115,9.0878,9.6773,9.9615,10.0902,10.0483,10.0483,10.0304,9.9645,9.8359,9.7341,9.6653,9.5965,9.5456,9.5157,9.4798,9.4618,9.4678,9.393,9.3272,9.2673,9.2314,9.1805,9.1177,9.1177,9.0968,9.0638,9.0638,9.0638,9.0579,8.995,8.9681,8.9561,8.8604,8.8245,8.8155,8.7496,8.6808,8.609,0.0,0.0,0.0,0.0,0.0,0.0,0.0,0.0,0.0,0.0,0.0,0.0,0.0,0.0,0.0,0.0,0.0,0.0,0.0,0.0,0.0,5.2929,5.2929,5.2955,5.3055,5.298,5.3683,5.5265,5.6068,5.7474,5.9382,5.9809,5.8981,5.7047,5.4536,5.3369,5.3495,5.6337,5.7021,5.6569,6.0959,0.0,0.0,0.0,0.0,0.0,0.0,0.0,0.0,6.2181,6.2391,6.269,6.1373,0.0,0.0,0.0,0.0,0.0,6.2121,6.4246,6.6191,6.634,6.655,6.649,6.5742,6.4665,6.3707,6.3199,6.3079,6.3199,6.3588,6.4575,6.52,6.4843,6.8412,7.436,8.3487,8.7287,9.1386,9.7491,9.9077,9.9945,10.0663,9.9885,9.9047,9.8299,9.7102,9.6084,9.5336,9.5396,9.5097,9.4319,9.4409,9.408,9.3272,9.3391,9.2883,9.1776,9.1566,9.1177,9.0638,9.0638,9.0638,9.0638,9.0638,9.0579,9.0429,8.9771,8.9471,8.9232,8.7915,8.7407,8.7317,8.6629,8.597,8.5282,0.0,0.0,0.0,0.0,0.0,0.0,0.0,0.0,0.0,0.0,0.0,0.0,0.0,0.0,0.0,0.0,0.0,0.0,0.0,0.0,0.0,5.2929,5.2929,5.313,5.3582,5.3155,5.3507,5.4687,5.6671,5.8052,5.888,6.1215,6.0688,5.77,5.6319,5.5433,5.5049,5.5551,5.7314,5.9782,6.054,0.0,0.0,0.0,0.0,0.0,0.0,0.0,0.0,6.1493,6.1702,6.2002,6.0655,0.0,0.0,0.0,0.0,0.0,6.3079,6.5233,6.634,6.4216,6.4515,6.5024,6.3797,6.3378,6.3199,6.3109,6.3079,6.3767,6.5981,6.655,6.7565,7.0146,7.3985,7.9627,8.8364,9.0489,9.2583,9.6414,9.8927,9.9556,9.7521,9.8149,9.8179,9.6952,9.6174,9.5187,9.396,9.4439,9.4199,9.2943,9.3451,9.3152,9.1925,9.2464,9.2643,9.2434,9.1327,9.0728,9.0638,9.0638,9.0638,9.0638,9.0638,9.0339,8.9771,8.9112,8.8514,8.7856,8.6539,8.6,8.591,8.5252,8.4594,8.3876,0.0,0.0,0.0,0.0,0.0,0.0,0.0,0.0,0.0,0.0,0.0,0.0,0.0,0.0,0.0,0.0,0.0,0.0,0.0,5.2929,5.3331,5.421,5.3658,5.3457,5.3683,5.4361,5.5239,5.6369,5.9182,6.0989,6.1818,6.1592,6.0186,5.7801,5.5465,5.4252,5.4164,5.601,5.7724,5.929,0.0,0.0,0.0,0.0,0.0,0.0,0.0,0.0,0.0,0.0,6.1553,6.1852,6.0505,0.0,0.0,0.0,0.0,0.0,6.2002,6.3887,6.5173,6.4336,6.5922,6.7268,6.5562,6.4904,6.4755,6.5114,6.4904,6.5263,6.7178,6.9273,7.2385,7.7472,8.0734,8.4265,8.8933,9.0459,9.2194,9.5157,9.6892,9.7641,9.7132,9.7311,9.7072,9.6114,9.5097,9.4229,9.3601,9.3541,9.3242,9.2613,9.2883,9.2763,9.2165,9.2105,9.1895,9.1536,9.0938,9.0638,9.0638,9.0638,9.0638,9.0638,9.0638,9.0279,8.9621,8.8963,8.8065,8.7048,8.606,8.5492,8.5073,8.4444,8.3786,8.3038,0.0,0.0,0.0,0.0,0.0,0.0,0.0,0.0,0.0,0.0,0.0,0.0,0.0,0.0,0.0,0.0,0.0,0.0,0.0,5.3247,5.3873,5.4762,5.4758,5.4783,5.5039,5.6194,5.7524,5.9056,6.2245,6.4429,6.5559,6.2797,6.0412,5.8328,5.5114,5.3866,5.4257,5.6855,5.8446,5.938,0.0,0.0,0.0,0.0,0.0,0.0,0.0,0.0,0.0,0.0,0.0,0.0,0.0,0.0,0.0,6.0475,6.0206,6.0326,6.1493,6.2869,6.4126,6.4665,6.6819,6.8675,6.8046,6.7298,6.7029,6.8136,6.7986,6.7926,6.8944,7.2624,7.7352,8.3038,8.603,8.8215,8.983,9.0938,9.2434,9.4798,9.5516,9.6144,9.6982,9.6623,9.5995,9.5187,9.4169,9.3451,9.3152,9.2793,9.2464,9.2135,9.2284,9.2284,9.2135,9.1626,9.1207,9.0878,9.0728,9.0638,9.0638,9.0638,9.0549,9.0399,9.0399,8.995,8.9172,8.8663,8.7676,8.6389,8.5731,8.4983,8.4175,8.3517,8.2858,8.214,0.0,0.0,0.0,0.0,0.0,0.0,0.0,0.0,0.0,0.0,0.0,0.0,0.0,0.0,0.0,0.0,0.0,0.0,0.0,5.4366,5.4593,5.3149,5.5995,5.8083,5.9082,5.8704,5.9809,6.2471,6.5283,6.7493,6.9024,6.6237,6.3224,6.0035,5.7223,5.6539,5.7624,5.7878,5.9839,6.2759,6.3021,0.0,0.0,0.0,0.0,0.0,0.0,0.0,0.0,0.0,0.0,0.0,0.0,0.0,6.1104,6.1044,6.0595,6.0625,6.3109,6.3887,6.4006,6.4066,6.4725,6.6311,6.9812,6.9662,6.9482,7.1966,7.2445,7.2445,7.2535,7.6814,8.1242,8.4175,8.7856,9.1267,9.381,9.4259,9.4858,9.6264,9.6473,9.6294,9.5785,9.5695,9.5127,9.381,9.3631,9.3062,9.1835,9.2284,9.2045,9.0818,9.1386,9.1386,9.0788,9.0728,9.0997,9.1536,9.0938,9.0638,9.0638,9.0638,9.0309,8.9741,8.9741,8.9023,8.7856,8.7796,8.6988,8.5701,8.5043,8.4025,8.2828,8.217,8.1512,8.0823,0.0,0.0,0.0,0.0,0.0,0.0,0.0,0.0,0.0,0.0,0.0,0.0,0.0,0.0,0.0,0.0,0.0,0.0,5.4366,5.4055,5.4967,5.7543,5.8308,5.926,6.0495,6.1748,6.3802,6.694,6.9024,7.0003,6.9853,6.5358,6.1843,5.9208,5.6739,5.6206,5.7108,5.8836,6.0556,6.217,6.285,6.3079,0.0,0.0,0.0,0.0,0.0,0.0,0.0,0.0,6.0595,6.0625,6.0057,6.0715,6.1493,6.0236,5.9668,5.9608,6.0176,6.1553,6.2929,6.3318,6.4844,6.7059,7.0201,7.1816,7.3402,7.6036,7.6904,7.7322,7.7741,8.0794,8.4235,8.7287,9.0788,9.3451,9.4469,9.4618,9.4499,9.4139,9.411,9.399,9.375,9.3721,9.3511,9.3002,9.2583,9.2135,9.1656,9.1476,9.1147,9.0668,9.0878,9.0908,9.0638,9.0638,9.0758,9.0997,9.0339,9.004,9.001,8.9621,8.9292,8.9052,8.9052,8.8544,8.7676,8.7257,8.627,8.4923,8.3457,8.2589,8.208,8.1422,8.0764,8.0165,0.0,0.0,0.0,0.0,0.0,0.0,0.0,0.0,0.0,0.0,0.0,0.0,0.0,0.0,0.0,0.0,0.0,0.0,5.5287,5.4299,5.5465,5.9539,5.9141,5.9721,6.1721,6.3924,6.6363,6.9175,7.1887,7.2113,6.9903,6.5409,6.2019,5.9636,5.7926,5.7701,5.8712,6.0652,6.1913,6.2604,6.297,6.3079,0.0,0.0,0.0,0.0,0.0,0.0,0.0,0.0,6.0266,6.0416,6.0146,6.0864,6.1523,6.0146,5.9727,5.9548,5.868,5.9907,6.1613,6.2301,6.4575,6.7687,7.1607,7.436,7.7083,8.0554,8.0823,8.0644,8.1302,8.3068,8.5342,8.8245,9.1686,9.405,9.4259,9.411,9.3631,9.2703,9.2613,9.2613,9.2613,9.2613,9.2524,9.2314,9.1865,9.1536,9.1327,9.0698,9.0429,9.0638,9.0429,9.0339,9.0339,9.0339,9.0219,9.001,8.9352,8.9262,8.9651,8.8993,8.8454,8.8065,8.8065,8.7676,8.7018,8.6569,8.5581,8.4235,8.2469,8.1661,8.1392,8.0734,8.0195,7.9776,0.0,0.0,0.0,0.0,0.0,0.0,0.0,0.0,0.0,0.0,5.2929,0.0,0.0,0.0,0.0,0.0,0.0,0.0,5.5287,5.5419,5.6206,5.7941,5.796,5.9455,6.2749,6.4913,6.6915,6.8648,7.3594,7.3745,6.9351,6.7116,6.4605,6.1923,6.1249,6.179,6.3308,6.3492,6.4103,6.4904,6.3617,6.3079,6.3079,0.0,0.0,0.0,0.0,0.0,0.0,0.0,5.9638,5.9458,6.1433,6.1642,6.1134,6.1104,6.1104,6.0805,5.9458,5.9578,6.0266,6.0954,6.3617,6.7807,7.442,7.7412,8.0315,8.5611,8.4115,8.202,8.2679,8.3337,8.4414,8.6359,9.001,9.2823,9.3481,9.3002,9.2583,9.2583,9.2583,9.2583,9.2583,9.2583,9.2314,9.1656,9.1596,9.1327,9.0668,9.001,8.995,9.0608,8.998,8.9651,8.9651,8.9651,8.9322,8.8663,8.8005,8.8364,8.9621,8.8963,8.7915,8.6659,8.6659,8.627,8.5671,8.5671,8.4893,8.3576,8.226,8.1362,8.0704,8.0045,7.9806,7.9716,0.0,0.0,0.0,0.0,0.0,0.0,0.0,0.0,0.0,5.2929,5.2929,0.0,0.0,0.0,0.0,0.0,0.0,0.0,5.5287,5.5419,5.6206,5.7941,5.9287,5.9265,5.7673,6.1357,6.5754,7.0932,7.1636,7.0104,6.6463,6.3852,6.2313,6.1695,6.2758,6.3321,6.3492,6.4718,6.4903,6.4276,6.3887,6.3468,6.3139,0.0,0.0,0.0,0.0,0.0,0.0,0.0,0.0,0.0,5.9937,6.1134,6.2032,5.9697,5.9668,5.9907,5.7663,5.853,6.0356,6.1523,6.6011,7.1517,7.6754,7.8759,8.1272,8.7496,8.6868,8.5282,8.5492,8.606,8.6718,8.7317,8.992,9.1985,9.2165,9.2045,9.1746,9.1267,9.1207,9.1207,9.1207,9.1207,9.1147,9.0938,9.0938,9.0638,8.998,8.9771,8.9531,8.9262,8.9082,8.8993,8.8993,8.8514,8.8185,8.7975,8.6838,8.6748,8.7526,8.6898,8.612,8.5282,8.5282,8.5192,8.4923,8.3995,8.3128,8.223,8.0913,8.0285,8.0045,7.9357,7.9088,7.9058,0.0,0.0,0.0,0.0,0.0,0.0,0.0,0.0,5.2929,5.2929,5.2929,5.2929,0.0,0.0,0.0,5.2929,0.0,0.0,5.5287,5.5419,5.6504,5.8856,5.9081,5.8631,5.7683,6.1668,6.5526,6.9324,6.9126,6.7928,6.5782,6.4988,6.4848,6.5349,6.8781,6.9025,6.6834,6.8215,6.7388,6.5144,6.4605,6.4186,6.3887,0.0,0.0,0.0,0.0,0.0,0.0,0.0,0.0,0.0,5.9548,6.0416,6.1164,5.9428,5.9099,5.9069,5.8022,5.9069,6.1074,6.3438,6.8196,7.3791,7.9447,8.2499,8.5462,9.0249,8.9023,8.7317,8.8095,8.7736,8.7556,8.8364,9.004,9.1327,9.1566,9.1386,9.1087,9.0698,9.0638,9.0638,9.0638,9.0638,9.0519,9.0279,9.0249,8.998,8.9322,8.8783,8.8424,8.8304,8.7766,8.7496,8.7496,8.7107,8.6778,8.6509,8.5432,8.4983,8.5132,8.5252,8.4803,8.3936,8.3936,8.3786,8.3517,8.2978,8.223,8.1302,8.0225,7.9656,7.9357,7.8938,7.8789,7.8789,0.0,0.0,5.2327,5.2829,0.0,0.0,0.0,0.0,5.2929,5.2929,5.2929,5.2929,0.0,0.0,0.0,5.2929,0.0,0.0,0.0,5.5683,5.7213,6.0262,5.8106,5.8292,6.1404,6.4442,6.5685,6.5242,6.6179,6.642,6.6138,6.841,6.9963,7.0942,7.6657,7.649,7.1724,7.2184,7.0141,6.652,6.5383,6.4904,6.4844,6.4904,0.0,0.0,0.0,0.0,0.0,0.0,0.0,0.0,5.9817,5.9638,5.9279,5.9697,5.9069,5.8471,5.9668,6.0595,6.2181,6.6251,7.056,7.5617,8.2529,8.7437,9.1057,9.2853,9.0489,8.8604,9.0399,8.8693,8.7646,8.9441,9.0249,9.0848,9.1446,9.0968,9.0549,9.0549,9.0549,9.0519,9.0459,9.0519,9.0279,8.9621,8.9531,8.9202,8.8544,8.7287,8.6808,8.7317,8.615,8.5492,8.5432,8.5372,8.5043,8.4444,8.3786,8.3158,8.2619,8.3876,8.3756,8.2589,8.2589,8.223,8.1721,8.226,8.1781,8.0644,7.9986,7.9357,7.8789,7.8789,7.8789,7.8789,0.0,0.0,5.2779,5.2904,0.0,0.0,0.0,0.0,0.0,5.2929,5.2929,5.2929,5.2929,5.2929,0.0,5.2929,5.4122,0.0,0.0,5.7886,5.9392,5.9304,6.0187,6.1506,6.3279,6.3795,6.4008,6.3891,6.3819,6.3317,6.2418,6.5698,6.831,7.0505,7.4155,7.4329,7.1726,6.9291,6.658,6.3947,6.4126,6.3917,6.3558,6.4036,6.3737,0.0,0.0,0.0,0.0,0.0,0.0,0.0,5.9279,5.9578,5.9578,5.8171,5.8291,5.8949,5.9249,6.0565,6.3079,6.8076,7.5048,8.1721,8.591,8.8424,9.001,9.0429,9.0668,9.0908,9.1327,9.0519,8.992,9.0369,9.0549,9.0698,9.0818,9.0279,8.986,8.986,8.986,8.9681,8.9172,8.9561,8.9591,8.8933,8.8424,8.7826,8.7137,8.6329,8.5492,8.4624,8.4295,8.3906,8.3397,8.2888,8.2559,8.2409,8.1751,8.1362,8.1242,8.205,8.1991,8.1212,8.1212,8.1153,8.0973,8.0614,8.0285,7.9956,7.9267,7.8908,7.8789,7.8789,7.8789,7.8789,0.0,0.0,0.0,0.0,0.0,0.0,0.0,0.0,0.0,5.303,5.2929,5.2929,5.2929,5.2929,0.0,0.0,5.4433,0.0,0.0,5.8578,6.066,6.1006,6.284,6.3781,6.3593,6.4001,6.3912,6.3319,6.2595,6.3018,6.456,6.7452,7.0498,7.35,7.6327,7.5537,7.1787,6.9722,6.7178,6.4485,6.4485,6.4485,6.4485,6.4485,6.3887,6.2959,6.1942,0.0,0.0,0.0,0.0,0.0,0.0,0.0,5.9009,5.8261,5.8321,5.8919,6.0206,6.2211,6.5622,7.2475,7.8519,8.3547,8.6539,8.8005,8.8813,8.9142,9.0219,9.1237,9.1566,9.1087,9.0638,9.0638,9.0369,9.016,9.016,8.9621,8.9202,8.9202,8.9202,8.9052,8.8723,8.8723,8.8454,8.7766,8.7107,8.6449,8.5761,8.4803,8.3965,8.3277,8.2649,8.217,8.1841,8.1482,8.1302,8.1302,8.0644,8.0165,7.9866,8.0524,8.0644,8.0345,8.0345,8.0135,7.9836,7.9836,7.9627,7.9297,7.8938,7.8789,7.8789,7.8789,7.8789,7.8789,0.0,0.0,0.0,0.0,0.0,0.0,0.0,0.0,0.0,5.3105,5.2929,5.2929,5.2929,5.2929,5.2929,0.0,0.0,0.0,0.0,0.0,0.0,6.3825,6.547,6.5759,6.4497,6.5,6.4769,6.3588,6.2582,6.4285,6.8555,7.0516,7.3199,7.6628,7.8794,7.6904,7.1966,7.05,6.8196,6.5443,6.4904,6.5024,6.5443,6.4904,6.4006,6.2989,6.2331,6.2091,6.1912,6.0685,0.0,0.0,0.0,0.0,5.8201,5.865,5.8381,5.8471,6.0924,6.4066,6.8585,7.6485,8.0375,8.2948,8.5581,8.6689,8.7407,8.8185,8.9382,9.0459,9.1027,9.0668,9.0249,9.016,8.9681,8.9292,8.9172,8.8574,8.8155,8.8155,8.8155,8.8125,8.8005,8.7616,8.7077,8.6389,8.5611,8.4953,8.4414,8.3128,8.238,8.226,8.1212,8.0584,8.0464,8.0464,8.0405,8.0285,7.9627,7.8998,7.846,7.9148,7.9537,7.9627,7.9627,7.9327,7.8819,7.9417,7.9297,7.8789,7.8789,7.8789,7.8789,7.8789,7.8789,7.8789,0.0,0.0,0.0,0.0,0.0,0.0,0.0,0.0,0.0,0.0,5.2929,5.2929,5.2929,5.2929,5.2929,5.2929,5.5775,0.0,0.0,0.0,0.0,6.6423,6.7317,6.8181,6.9015,6.7492,6.6365,6.5622,6.4875,6.6544,7.056,7.1131,7.2762,7.523,7.5513,7.4599,7.2475,6.7777,6.4904,6.3468,6.3378,6.3378,6.3468,6.3378,6.3228,6.2989,6.2331,6.2091,6.1972,6.1224,6.0984,0.0,0.0,0.0,5.8022,5.7513,5.7304,5.7573,5.9099,6.4366,7.0679,7.5796,7.8669,8.0913,8.3517,8.4624,8.5462,8.6689,8.8005,8.8963,8.9052,8.8993,8.8753,8.8185,8.8035,8.7766,8.7167,8.6509,8.609,8.609,8.609,8.5881,8.5312,8.5671,8.5701,8.5013,8.3846,8.3128,8.3038,8.1781,8.0794,8.0225,8.0045,7.9656,7.9058,7.9058,7.8759,7.819,7.7532,7.7173,7.7113,7.7771,7.84,7.8938,7.8938,7.8878,7.8789,7.8878,7.8878,7.8789,7.8789,7.8789,7.8789,7.8789,7.8789,7.8789,0.0,0.0,0.0,0.0,0.0,0.0,0.0,0.0,0.0,0.0,0.0,5.2929,5.2929,5.2929,5.3316,5.4231,5.6596,0.0,0.0,0.0,0.0,6.5832,6.652,6.6969,6.7178,6.634,6.5383,6.4366,6.4814,6.7418,7.2056,7.2934,7.4509,7.6503,7.5389,7.3732,7.1547,6.7747,6.5353,6.4096,6.3378,6.3288,6.3558,6.3199,6.3079,6.3049,6.275,6.266,6.254,6.1882,6.1672,6.1493,6.0416,0.0,0.0,0.0,5.7363,5.853,6.245,6.64,7.0709,7.6036,7.8041,7.9387,8.202,8.2858,8.3337,8.4295,8.4953,8.5821,8.7287,8.7556,8.7467,8.7167,8.6509,8.594,8.5611,8.4684,8.4055,8.4055,8.4384,8.4325,8.3696,8.3876,8.3786,8.3128,8.22,8.1661,8.1661,8.0764,7.9926,7.9267,7.8878,7.837,7.7711,7.7682,7.7562,7.7263,7.6963,7.6814,7.6844,7.7143,7.7622,7.825,7.8639,7.8579,7.825,7.825,7.825,7.825,7.825,7.846,7.8789,7.8789,7.8789,7.8789,0.0,0.0,0.0,0.0,0.0,0.0,0.0,0.0,0.0,0.0,0.0,5.2929,5.2929,0.0,0.0,0.0,5.7405,0.0,0.0,0.0,0.0,6.4755,6.5233,6.5263,6.4784,6.4755,6.4216,6.3079,6.4545,6.8076,7.3432,7.4929,7.7113,7.9716,7.7233,7.4569,7.1727,6.8944,6.7178,6.6071,6.3947,6.3348,6.3707,6.3258,6.3079,6.3079,6.3079,6.3079,6.2989,6.251,6.2331,6.2121,6.0775,5.9787,0.0,0.0,0.0,5.856,6.4006,6.646,6.8884,7.4629,7.6425,7.7502,8.0165,8.0764,8.1003,8.1841,8.1871,8.2409,8.4534,8.5342,8.5611,8.5462,8.4624,8.3906,8.3726,8.2888,8.226,8.226,8.2679,8.2798,8.232,8.226,8.205,8.1572,8.0913,8.0464,8.0315,7.9656,7.8998,7.831,7.7831,7.7322,7.6814,7.6664,7.6604,7.6604,7.6425,7.6335,7.6335,7.6514,7.6844,7.7352,7.8011,7.8011,7.7562,7.7741,7.7801,7.7801,7.7801,7.81,7.8519,7.834,7.84,7.8549,0.0,0.0,0.0,0.0,0.0,0.0,0.0,0.0,0.0,0.0,0.0,5.2929,5.2929,5.4299,5.5287,5.5419,5.8453,6.1139,6.3021,6.3109,0.0,6.4036,6.4096,0.0,6.4066,6.4066,6.3737,6.3079,6.5024,6.8974,7.4809,7.6754,8.0375,8.5132,8.1272,7.7741,7.445,7.1188,6.9782,6.9273,6.4844,6.3109,6.3109,6.3079,6.3079,6.3079,6.3079,6.3079,6.3079,6.3049,6.3019,6.278,6.1463,6.0146,5.883,0.0,0.0,0.0,6.0296,6.2391,6.4665,6.9931,7.2684,7.4779,7.7412,7.8011,7.84,7.9716,7.9447,7.9238,8.0045,8.1691,8.2769,8.214,8.1991,8.1721,8.1093,8.0943,8.0883,8.0883,8.0943,8.0943,8.0913,8.0883,8.0883,8.0853,8.0225,7.9567,7.8938,7.828,7.7622,7.6963,7.6904,7.6874,7.6814,7.6245,7.5946,7.5946,7.5288,7.4988,7.4988,7.5647,7.5976,7.6036,7.6664,7.6904,7.6933,7.7562,7.7801,7.7801,7.7801,7.7831,7.7801,7.7173,7.7322,7.7861,0.0,0.0,0.0,0.0,0.0,0.0,0.0,0.0,0.0,0.0,0.0,0.0,0.0,5.6726,5.7533,5.8578,6.081,6.2409,6.3079,6.3079,0.0,6.3408,6.3408,6.3408,6.3408,6.3408,6.3288,6.3079,6.4186,6.7537,7.3013,7.4988,7.7831,8.1212,8.0255,7.8669,7.6425,7.1457,6.8854,6.7777,6.4844,6.3438,6.3079,6.3079,6.3079,6.3079,6.3079,6.3079,6.3079,6.3079,6.278,6.2301,6.1403,5.9907,5.8141,5.6376,5.6137,5.7004,5.9727,6.1433,6.3498,6.7926,7.05,7.2445,7.427,7.5976,7.7203,7.7293,7.7412,7.7592,7.7861,7.9178,8.0135,7.9896,7.9507,7.9148,7.8908,7.8519,7.84,7.8819,7.9238,7.9507,7.9507,7.9926,7.9986,7.9537,7.8908,7.843,7.816,7.7532,7.6904,7.6245,7.6245,7.6036,7.5587,7.5347,7.5258,7.5258,7.4988,7.4869,7.4899,7.5138,7.5258,7.5258,7.5497,7.5826,7.6245,7.6485,7.6574,7.6574,7.6574,7.6844,7.7143,7.6904,7.6963,7.7233,0.0,0.0,0.0,0.0,0.0,5.8669,5.8068,5.8509,5.8634,5.8068,0.0,0.0,0.0,0.0,5.9503,6.1198,6.2409,6.3079,6.3079,6.3079,6.3079,6.3079,6.3079,6.3079,6.3079,6.3079,6.3079,6.3079,6.3917,6.67,7.1278,7.3043,7.5617,7.8729,7.7652,7.7652,7.819,7.3821,7.1068,6.9333,6.6011,6.4695,6.4725,6.4725,6.4874,6.5024,6.4814,6.4425,6.3947,6.3288,6.248,6.1702,6.1253,5.9578,5.7483,5.5957,5.6107,5.7064,5.8411,5.9907,6.2091,6.6281,6.7956,6.9273,7.1966,7.3582,7.4569,7.4839,7.5407,7.5916,7.6125,7.6694,7.7352,7.8011,7.7771,7.7472,7.7472,7.7113,7.6993,7.7442,7.7861,7.813,7.813,7.8549,7.8609,7.816,7.7741,7.7382,7.7173,7.6754,7.6215,7.5587,7.5557,7.5347,7.4869,7.4869,7.4869,7.4869,7.4869,7.4869,7.4869,7.4869,7.4869,7.4869,7.4869,7.5138,7.5587,7.5826,7.5916,7.5916,7.5916,7.6155,7.6485,7.6245,7.6305,7.6604,0.0,0.0,5.8068,5.8131,5.9503,6.0055,5.8383,5.9536,5.9994,5.8383,0.0,0.0,0.0,0.0,0.0,6.3023,6.3169,6.3139,6.3079,6.3079,6.3079,6.3079,6.3079,6.3079,6.3079,6.3079,6.3079,6.3079,6.4366,6.664,6.9871,7.1158,7.418,7.834,7.3881,7.4749,7.9477,7.8071,7.6425,7.427,6.8375,6.6819,6.8016,6.7956,6.8375,6.8914,6.8226,6.7178,6.5802,6.3887,6.2361,6.1224,6.1134,5.9249,5.7004,5.6346,5.6248,5.6248,0.0,0.0,0.0,6.4605,6.4784,6.5233,7.038,7.062,7.032,7.2385,7.3283,7.3941,7.4659,7.43,7.448,7.6365,7.6724,7.6754,7.6754,7.6754,7.6784,7.6784,7.6814,7.6814,7.6814,7.6814,7.6814,7.6814,7.6814,7.6544,7.5946,7.5886,7.5557,7.4899,7.4869,7.4869,7.4869,7.4869,7.4869,7.4869,7.4869,7.4869,7.4869,7.4869,7.4869,7.4869,7.4869,7.4869,7.4929,7.5587,7.5886,7.5886,7.5886,7.5886,7.5796,7.5138,7.5288,7.5976,0.0,5.981,6.0176,6.1466,6.2057,6.2233,6.1733,6.2116,6.2233,0.0,0.0,0.0,6.1673,6.3355,6.4664,6.5144,6.5203,6.4605,6.3169,6.3079,6.3079,6.3079,6.3079,6.3079,6.3079,6.3079,6.3079,6.3079,6.3438,6.4575,6.643,6.7747,6.9782,7.2385,7.2565,7.2894,7.3193,7.044,7.062,7.2325,6.7807,6.7358,6.9243,6.7807,6.7986,6.8914,6.8226,6.8046,6.8016,6.6969,6.5742,6.4156,6.1283,5.9189,5.7633,5.6496,5.6496,5.6645,5.5718,0.0,0.0,0.0,0.0,0.0,6.3647,6.4545,6.5951,6.9363,6.9842,7.026,7.2325,7.2984,7.3193,7.3253,7.4061,7.4719,7.4719,7.5108,7.5617,7.6096,7.6155,7.6335,7.6784,7.6814,7.6814,7.6814,7.6425,7.6096,7.5916,7.5437,7.5078,7.4899,7.4869,7.4869,7.4869,7.4869,7.4869,7.4869,7.4869,7.4869,7.4869,7.4869,7.4869,7.4869,7.4869,7.4869,7.4899,7.5078,7.5168,7.5168,7.5168,7.5168,7.5138,7.4958,7.4988,7.5318,6.1348,6.1585,6.2086,6.3592,6.4126,6.4306,6.4306,6.4306,6.4186,0.0,0.0,0.0,6.4216,6.6311,6.7328,6.649,6.6161,6.5293,6.3588,6.3228,6.3079,6.3079,6.3079,6.3079,6.3079,6.3079,6.3079,6.3079,6.3079,6.3468,6.4216,6.4994,6.6251,6.7897,6.8525,6.8974,6.9064,6.6071,6.7059,7.056,6.9064,6.9542,7.1128,7.0829,7.1517,7.2565,7.1607,7.1547,7.1577,6.9512,6.7567,6.5263,6.1014,5.9548,5.9009,5.7124,5.7214,5.7663,5.6346,5.6735,5.7693,5.8441,0.0,0.0,6.1403,6.1672,6.254,6.652,6.7238,6.7777,6.9871,7.059,7.0829,7.0709,7.1577,7.2565,7.3373,7.3821,7.43,7.4988,7.5078,7.5318,7.5946,7.6006,7.6006,7.6006,7.5677,7.5467,7.5467,7.5078,7.4869,7.4869,7.4869,7.4869,7.4869,7.4869,7.4869,7.4869,7.4869,7.4869,7.4869,7.4869,7.4869,7.4869,7.4869,7.4869,7.4869,7.4869,7.4869,7.4869,7.4869,7.4869,7.4869,7.4869,7.4869,7.5018,0.0,6.3079,6.3498,6.4814,6.5562,6.6071,6.6191,6.6221,6.6041,0.0,6.4455,6.4515,6.655,6.8734,6.9333,6.7567,6.67,6.5622,6.4216,6.3468,6.3079,6.3079,6.3079,6.3079,6.3079,6.3079,6.3079,6.3079,6.3079,6.3079,6.3079,6.3079,6.3707,6.4755,6.3588,6.4366,6.643,6.4306,6.5473,6.8944,7.0799,7.2265,7.3522,7.5258,7.6754,7.7771,7.6544,7.6125,7.5527,7.1697,6.8615,6.5592,6.1224,6.0505,6.0715,5.8171,5.8231,5.883,5.7633,0.0,0.0,6.0894,5.9009,0.0,6.1253,6.0416,5.9937,6.3707,6.4874,6.5682,6.7148,6.7597,6.7867,6.8166,6.9153,7.056,7.2535,7.2864,7.3133,7.3702,7.3791,7.4031,7.4689,7.4779,7.4809,7.4869,7.4869,7.4869,7.4869,7.4809,7.4779,7.4779,7.4779,7.4719,7.4659,7.4809,7.4809,7.4659,7.4809,7.4839,7.4779,7.4839,7.4869,7.4869,7.4869,7.4869,7.4869,7.4869,7.4869,7.4869,7.4869,7.4869,7.4869,7.4869,7.4869,7.4988,6.3049,6.3079,6.3498,6.4814,6.5562,6.637,6.7418,6.7597,6.7747,6.8166,6.7986,6.8794,7.1308,7.1068,7.056,7.0171,6.8585,6.6789,6.4934,6.3737,6.3079,6.3079,6.3079,6.3079,6.3079,6.3079,6.3079,6.3079,6.3079,6.3079,6.3079,6.3079,6.3199,6.3438,6.3199,6.3348,6.3917,6.4994,6.6191,6.7508,6.8974,7.2176,7.6066,7.5946,7.7023,7.8489,7.7711,7.7442,7.6993,7.4121,7.1038,6.7986,6.5443,6.3408,6.1583,5.9967,5.9308,5.9039,5.877,5.88,5.865,5.7603,5.8321,0.0,5.6466,5.6735,5.8171,6.0565,6.0745,6.1194,6.3588,6.5323,6.5742,6.3767,6.667,6.9871,7.1816,7.2565,7.2954,7.3103,7.3103,7.3373,7.4031,7.4091,7.43,7.4839,7.4869,7.4869,7.4869,7.436,7.4091,7.4091,7.4091,7.3821,7.3313,7.436,7.436,7.3313,7.436,7.4599,7.4091,7.4629,7.4869,7.4869,7.4869,7.4869,7.4869,7.4869,7.4869,7.4869,7.4869,7.4869,7.4869,7.4869,7.4869,7.4988,6.3139,6.3318,6.4156,6.6161,6.7059,6.8046,6.9662,6.9931,7.0051,7.038,7.1308,7.2056,7.2355,7.2116,7.1517,7.053,6.8315,6.643,6.5114,6.3797,6.3079,6.3079,6.3079,6.3378,6.4036,6.3408,6.3408,6.4066,6.3408,6.3079,6.3079,6.3079,6.272,6.2121,6.278,6.272,6.2211,6.3857,6.5114,6.634,6.9991,7.3402,7.6485,7.7472,7.8669,7.9716,7.9058,7.837,7.7322,7.4001,7.2235,7.0739,6.6789,6.5533,6.5024,6.2361,6.1553,6.1343,6.0356,6.0116,6.0027,5.9697,5.9099,0.0,0.0,5.6107,5.6077,5.9398,5.853,5.7962,6.0625,6.1343,6.1583,6.1613,6.3827,6.646,6.9064,7.062,7.1697,7.2325,7.2116,7.2295,7.3313,7.3702,7.418,7.4839,7.4869,7.4719,7.442,7.4061,7.3762,7.3402,7.3402,7.3253,7.2924,7.3582,7.3582,7.2924,7.3582,7.3881,7.3911,7.424,7.4569,7.4869,7.4869,7.4869,7.4869,7.4869,7.4869,7.4869,7.4869,7.4869,7.4869,7.4869,7.4869,7.4929,6.3139,6.3468,6.4575,6.6999,6.8196,6.9453,7.1398,7.1906,7.2176,7.2415,7.3881,7.43,7.2834,7.2684,7.2325,7.1398,6.8046,6.6041,6.6161,6.4216,6.2959,6.272,6.2929,6.3378,6.4066,6.3408,6.3528,6.4455,6.3528,6.3019,6.2899,6.3019,6.245,6.1343,6.2421,6.251,6.1912,6.272,6.4336,6.6759,7.1577,7.4091,7.5258,7.828,7.9746,8.0195,7.9926,7.9028,7.7472,7.4001,7.3402,7.3163,6.7986,6.7657,6.8525,6.5203,6.4395,6.4246,6.281,6.245,6.248,6.266,6.0745,5.883,0.0,0.0,0.0,5.8471,5.7034,5.5837,5.7962,5.7573,5.7573,5.9638,6.1074,6.2869,6.5652,6.7537,6.9213,7.0769,7.047,7.0679,7.2026,7.2744,7.3522,7.442,7.439,7.4121,7.3732,7.3702,7.3402,7.2744,7.2714,7.2654,7.2535,7.2774,7.2774,7.2535,7.2804,7.3193,7.3702,7.3821,7.424,7.4869,7.4869,7.4869,7.4869,7.4869,7.4869,7.4869,7.4869,7.4869,7.4869,7.4869,7.4869,7.4869,6.2989,6.3139,6.3647,6.5114,6.6879,6.8734,7.0709,7.2026,7.3223,7.439,7.4749,7.5018,7.5407,7.3373,7.3103,7.5826,6.9901,6.7208,7.0051,6.5742,6.257,6.1373,6.245,6.2301,6.0685,6.2241,6.2869,6.2421,6.2869,6.278,6.2211,6.281,6.269,6.2002,6.2151,6.3109,6.4515,6.3498,6.6191,7.1158,7.1846,7.1846,7.1966,7.6365,7.8071,7.831,7.9417,7.9327,7.843,7.6814,7.5587,7.433,7.1876,7.05,6.9632,6.8615,6.7537,6.6729,6.7089,6.7178,6.6251,6.2331,6.3169,6.3228,5.6436,0.0,5.7932,5.6107,0.0,5.5269,5.5568,0.0,0.0,5.5897,5.889,6.1553,6.251,6.3348,6.4784,6.7238,6.7478,6.7956,6.9303,7.0051,7.1188,7.3013,7.2565,7.2475,7.3013,7.3013,7.2714,7.2026,7.1996,7.1727,7.1128,7.2325,7.2325,7.1158,7.2355,7.2954,7.3043,7.3642,7.424,7.4869,7.4869,7.4869,7.4869,7.4869,7.4869,7.4869,7.4869,7.4869,7.4869,7.4869,7.4869,7.4869,6.2391,6.281,6.3617,6.5293,6.6281,6.7747,7.047,7.3043,7.4839,7.5407,7.5796,7.6425,7.7472,7.4869,7.3941,7.6096,7.1727,6.8944,6.9183,6.643,6.4545,6.3977,6.3378,6.3408,6.4066,6.3438,6.3109,6.3199,6.272,6.2181,6.1553,6.2211,6.2151,6.1553,6.2331,6.3528,6.5024,6.4844,6.6221,6.8645,7.056,7.047,6.9901,7.6485,7.8968,7.8998,7.9178,7.9297,7.8998,7.6544,7.6096,7.6096,7.3343,7.2355,7.2026,7.0979,6.9752,6.8615,6.8106,6.7956,6.7328,6.4635,6.4126,6.3228,5.9159,5.7782,5.7304,5.6974,0.0,0.0,0.0,0.0,0.0,0.0,5.6675,5.874,6.0146,6.0595,6.2181,6.5981,6.5413,6.5533,6.7627,6.8076,6.8914,7.053,7.0709,7.0889,7.1188,7.1906,7.1996,7.1338,7.1308,7.1188,7.0889,7.1457,7.1457,7.0919,7.1487,7.1936,7.2325,7.3013,7.3702,7.433,7.4719,7.4869,7.4869,7.4869,7.4869,7.4869,7.4869,7.4869,7.4869,7.4869,7.4869,7.4869,6.1672,6.2361,6.3318,6.4934,6.5503,6.6789,6.9901,7.2744,7.4659,7.5048,7.5647,7.6724,7.8579,7.6335,7.5766,7.837,7.4719,7.1727,7.047,6.7986,6.6161,6.5233,6.4006,6.3977,6.5353,6.4036,6.3288,6.3199,6.245,6.1762,6.1134,6.1792,6.1852,6.1433,6.2959,6.4545,6.6161,6.664,6.7777,6.9423,7.1248,7.1577,7.1517,7.6754,7.9208,7.9716,7.9028,7.9118,7.9148,7.6544,7.6634,7.7352,7.4809,7.421,7.421,7.3043,7.1936,7.0769,6.9393,6.9183,6.8704,6.6101,6.4515,6.2989,6.0565,5.871,5.7633,5.8052,5.6645,0.0,0.0,0.0,5.3862,5.485,0.0,5.6974,5.862,5.853,5.9757,6.3647,6.3348,6.3767,6.6221,6.6131,6.661,6.8315,6.8525,6.8824,6.9393,7.05,7.0859,7.038,7.056,7.0649,7.0649,7.0829,7.0889,7.0889,7.0889,7.1248,7.1906,7.2385,7.3103,7.3911,7.439,7.4719,7.4869,7.4869,7.4869,7.4869,7.4869,7.4869,7.4869,7.4869,7.4869,7.4869,6.0894,6.1672,6.2361,6.3049,6.4216,6.5951,6.8645,7.0201,7.1547,7.2834,7.3582,7.5228,7.843,7.7562,7.9058,8.4863,7.9477,7.5976,7.6514,7.1128,6.649,6.3318,6.3677,6.3139,6.1343,6.3049,6.3049,6.1194,6.1792,6.1762,6.1134,6.1792,6.2091,6.2151,6.4096,6.643,6.8884,6.8884,7.2206,7.7263,7.5467,7.6215,7.828,7.6664,7.7622,7.9716,7.9028,7.8789,7.8699,7.7981,7.7771,7.7682,7.6933,7.6305,7.5707,7.4988,7.43,7.3462,7.2116,7.2235,7.1368,6.5533,6.4515,6.3617,5.8411,5.9159,6.0416,5.8501,5.9578,6.0266,5.8351,5.7423,5.6944,5.7004,5.7034,0.0,0.0,5.7064,5.7034,5.9069,6.0984,6.2899,6.4904,6.3947,6.4276,6.6849,6.5892,6.6011,6.7926,6.8704,6.9093,6.9064,6.9662,7.0021,7.0021,7.062,7.0889,7.0889,7.0889,7.1248,7.1876,7.1906,7.2654,7.3881,7.3911,7.43,7.4869,7.4869,7.4869,7.4869,7.4869,7.4869,7.4869,7.4869,7.4869,7.4869,6.0924,6.1642,6.2181,6.2391,6.278,6.4425,6.8405,7.0081,7.2475,7.6904,7.7293,7.9238,8.4743,8.4145,8.4504,8.7407,8.4444,8.1362,7.8968,7.5318,7.2535,7.0949,6.8585,6.7208,6.6999,6.5892,6.4366,6.2421,6.2211,6.1762,6.1104,6.1343,6.1912,6.278,6.3857,6.6311,6.9722,7.1038,7.2984,7.5228,7.5467,7.7382,7.9956,7.84,7.837,7.9118,7.8878,7.8789,7.8759,7.8519,7.816,7.7771,7.7562,7.6754,7.5856,7.5617,7.5078,7.445,7.4001,7.436,7.3762,6.9093,6.7777,6.649,6.2061,6.2061,6.2331,5.9907,6.0685,6.1014,5.856,5.7932,5.7633,0.0,0.0,5.7543,0.0,5.6077,5.6256,5.8231,5.9817,6.0864,6.1074,6.1104,6.1642,6.2989,6.3109,6.3947,6.5922,6.7478,6.8315,6.8315,6.8974,6.9542,6.9991,7.0201,7.05,7.0889,7.0889,7.1009,7.1248,7.1697,7.2146,7.2624,7.3492,7.4031,7.427,7.4689,7.4869,7.4869,7.4869,7.4869,7.4869,7.4869,7.4869,7.4869,6.1373,6.1433,6.1523,6.2002,6.266,6.4306,6.7747,7.0799,7.424,7.8549,7.9956,8.2619,8.8095,8.8125,8.8454,9.0279,8.8813,8.5821,8.1183,7.9297,7.7113,7.43,7.1966,7.062,7.032,6.8405,6.6101,6.3408,6.3228,6.257,6.1463,6.1463,6.1912,6.278,6.4366,6.6759,6.9812,7.2744,7.4629,7.5736,7.6844,7.828,7.9656,7.8759,7.8579,7.8729,7.825,7.825,7.843,7.843,7.831,7.816,7.816,7.7442,7.6544,7.6305,7.5916,7.5467,7.4988,7.5377,7.5048,7.1517,7.032,6.8914,6.4725,6.4814,6.5024,6.2391,6.272,6.3109,6.1852,6.0685,5.9668,0.0,0.0,0.0,0.0,5.5807,5.6107,5.7573,5.8919,5.9668,5.9458,6.0057,6.0535,6.0745,6.1134,6.2241,6.4246,6.5533,6.655,6.7238,6.7926,6.8585,6.9273,6.9512,6.9961,7.059,7.059,7.0679,7.0919,7.1338,7.1787,7.2295,7.3163,7.3821,7.427,7.4689,7.4869,7.4869,7.4869,7.4869,7.4869,7.4869,7.4869,7.4869,6.2002,6.1044,6.0655,6.1972,6.3707,6.5413,6.6909,7.2026,7.6305,7.7891,8.1512,8.5222,8.8604,8.9531,9.0908,9.3421,9.2434,8.9232,8.3517,8.3038,8.0135,7.3762,7.3941,7.3283,7.1278,7.044,6.8136,6.4306,6.4755,6.4006,6.2181,6.2121,6.2091,6.2241,6.5503,6.7717,6.9303,7.3911,7.7023,7.8908,7.9567,7.9058,7.7891,7.7801,7.816,7.8519,7.7293,7.7203,7.7711,7.7741,7.816,7.8699,7.8729,7.831,7.7682,7.7053,7.6874,7.6604,7.5347,7.5527,7.5437,7.2774,7.2086,7.0859,6.643,6.7388,6.8435,6.5802,6.5802,6.658,6.7627,6.5233,6.2869,0.0,0.0,0.0,5.6615,5.6308,5.6436,5.7064,5.8261,5.9308,5.9937,6.0595,6.0715,6.0086,5.9997,6.0864,6.2929,6.3049,6.3977,6.5892,6.661,6.7298,6.8016,6.8675,6.9333,7.0021,7.0021,7.032,7.0889,7.0889,7.1607,7.2864,7.2894,7.3642,7.4839,7.4869,7.4869,7.4869,7.4869,7.4869,7.4869,7.4869,7.4869,7.4869,6.0805,6.1523,6.257,6.3378,6.3558,6.4844,6.8645,7.1757,7.5736,8.1452,8.4833,8.8304,9.2613,9.3242,9.3601,9.4289,9.3122,9.1297,8.8783,8.6778,8.4474,8.1811,7.9507,7.7592,7.6066,7.2505,6.9931,6.8435,6.5652,6.4006,6.3498,6.254,6.2091,6.2211,6.5024,6.7268,6.9273,7.3402,7.6844,7.9567,7.9746,7.9597,7.9148,7.7652,7.7173,7.7293,7.6933,7.6634,7.6455,7.6933,7.7203,7.7412,7.7921,7.7951,7.7771,7.7592,7.7562,7.7472,7.7143,7.7532,7.7652,7.5976,7.4839,7.3552,7.1368,7.1427,7.1308,6.9153,6.9213,6.8854,6.6251,6.4665,6.3079,6.0954,0.0,0.0,5.7723,5.7184,5.7094,5.7782,5.8171,5.8441,5.862,5.88,5.9009,5.9338,5.8919,5.9727,6.2211,6.281,6.3767,6.5233,6.5922,6.7059,6.8734,6.8914,6.9572,7.0679,7.0679,7.0739,7.0889,7.0889,7.1368,7.2176,7.2684,7.3373,7.418,7.4659,7.4869,7.4869,7.4869,7.4869,7.4869,7.4869,7.4869,7.4869,6.1104,6.281,6.4665,6.5562,6.664,6.8435,7.1637,7.3313,7.6425,8.2499,8.5881,8.8693,9.1297,9.3661,9.5037,9.5037,9.408,9.2554,9.0369,8.9352,8.7467,8.4414,8.2798,8.0794,7.828,7.427,7.1188,6.9093,6.5981,6.4156,6.3558,6.2271,6.1822,6.2211,6.4545,6.652,6.8405,7.2954,7.6604,7.9357,7.9058,7.8759,0.0,7.7263,7.6485,7.5976,7.5976,7.6125,7.6365,7.6724,7.7023,7.7382,7.8041,7.8041,7.7861,7.816,7.825,7.825,7.825,7.8519,7.8549,7.7502,7.6694,7.5677,7.3762,7.3133,7.2595,7.1487,7.038,6.9213,6.7837,6.5862,6.3677,6.1343,5.9608,5.856,5.856,5.8231,5.8022,5.8112,5.862,5.886,5.859,5.856,5.859,5.868,5.886,5.9757,6.1583,6.2301,6.3378,6.4934,6.5951,6.7119,6.8525,6.9123,6.9782,7.05,7.05,7.0649,7.0889,7.0889,7.1278,7.1936,7.2624,7.3283,7.3941,7.4599,7.4869,7.4869,7.4869,7.4869,7.4869,7.4869,7.4869,7.4869,6.2121,6.4336,6.655,6.7418,7.053,7.3522,7.5258,7.6485,7.8699,8.2858,8.6449,8.8574,8.8484,9.2583,9.5306,9.5217,9.4588,9.3002,9.01,9.0908,8.9352,8.4594,8.4684,8.3068,7.9267,7.5707,7.2086,6.8345,6.6041,6.4186,6.278,6.1642,6.1373,6.1912,6.3977,6.5712,6.7448,7.2475,7.5946,7.8011,7.7771,7.7293,7.6694,7.6694,7.5946,7.4869,7.4869,7.5617,7.6574,7.6574,7.7023,7.7682,7.834,7.819,7.7951,7.8579,7.8789,7.8789,7.8789,7.8789,7.8639,7.8071,7.7861,7.7203,7.4929,7.3821,7.3313,7.3313,7.0859,6.9153,7.053,6.7508,6.4156,6.2271,6.0505,5.9368,5.9368,5.9368,5.9159,5.859,5.9428,0.0,5.9428,5.9219,5.886,5.8291,5.9308,6.0296,6.1074,6.1732,6.3049,6.5084,6.6251,6.7358,6.8345,6.9393,7.0021,7.0231,7.0141,7.038,7.0889,7.0979,7.1338,7.1936,7.2714,7.3373,7.3941,7.4599,7.4869,7.4869,7.4869,7.4869,7.4869,7.4869,7.4869,7.4869,6.2211,6.5084,6.7178,6.5772,6.9632,7.427,7.834,8.1811,8.4654,8.6599,9.0668,9.3182,9.2613,9.3361,9.3721,9.3182,9.2524,9.1895,9.1297,9.0968,8.992,8.7915,8.6359,8.4175,8.1332,7.6425,7.2744,7.038,6.6221,6.3258,6.1463,6.1224,6.0864,6.0535,6.3049,6.5533,6.8046,7.1697,7.3522,7.4121,7.6185,7.6634,7.6066,7.6066,7.5587,7.4869,7.4869,7.5018,7.5228,7.5228,7.5677,7.6335,7.6963,7.7472,7.7951,7.8579,7.8789,7.8789,7.8789,7.8789,7.8759,7.8639,7.822,7.7682,7.7233,7.6215,7.5377,7.5377,7.4031,7.2295,7.047,6.646,6.2959,6.1523,6.0984,6.0775,6.0775,6.0775,6.0715,6.0595,6.0296,6.0266,6.0715,5.9757,5.9069,5.8949,5.9129,5.9817,6.1044,6.1732,6.3228,6.5772,6.6071,6.7537,7.035,7.0111,7.05,7.1547,7.1009,7.0799,7.0919,7.1457,7.1787,7.1966,7.3193,7.3791,7.3941,7.4599,7.4869,7.4869,7.4869,7.4869,7.4869,7.4869,7.4869,7.4869,6.6041,6.7448,6.8974,7.041,7.3911,7.7831,8.1751,8.6,8.8274,8.6838,8.8604,8.986,8.9531,9.1626,9.2943,9.2613,9.2015,9.1626,9.1626,9.0698,8.9561,8.8245,8.624,8.3965,8.1332,7.6425,7.2744,7.038,6.5772,6.2869,6.1613,6.0565,6.0266,6.0685,6.2301,6.4844,6.8106,7.0051,7.1667,7.3103,7.5437,7.6185,7.5916,7.5916,7.5467,7.4869,7.4869,7.4869,7.4929,7.5288,7.5617,7.6066,7.7023,7.7322,7.7502,7.8489,7.8789,7.8789,7.8789,7.8789,7.8639,7.7951,7.7532,7.7203,7.6904,7.6066,7.5467,7.5826,7.4839,7.3193,7.0889,6.6969,6.4216,6.4605,6.3258,6.2241,6.257,6.2331,6.1882,6.1194,6.0835,6.0625,6.0595,6.0326,6.0146,6.0146,6.0146,6.0565,6.1583,6.2241,6.3647,6.5951,6.667,6.8286,7.0889,7.0949,7.1278,7.1876,7.1218,7.0889,7.0919,7.1218,7.1577,7.1936,7.2954,7.3582,7.3941,7.4599,7.4869,7.4869,7.4869,7.4869,7.4869,7.4869,7.4869,7.4869,7.0201,7.053,7.1697,7.5617,7.8819,8.1721,8.4325,8.8514,9.0339,8.7347,8.7077,8.7107,8.6958,9.0219,9.2344,9.2194,9.1716,9.1357,9.1207,9.0249,8.9023,8.7556,8.5701,8.3487,8.0853,7.6544,7.2804,6.9722,6.5682,6.2929,6.1433,5.9997,5.9877,6.0924,6.1882,6.4186,6.7418,6.8525,7.044,7.2864,7.4869,7.5677,7.5677,7.5677,7.5347,7.4869,7.4869,7.4869,7.4988,7.5677,7.5796,7.5946,7.7352,7.7352,7.7083,7.84,7.8789,7.8789,7.8789,7.8789,7.8519,7.7322,7.6933,7.6664,7.6036,7.5377,7.5018,7.5587,7.4719,7.3313,7.1457,6.8345,6.64,6.7388,6.5503,6.3887,6.3827,6.3737,6.3169,6.1702,6.1642,6.1403,6.0595,6.1014,6.1313,6.1313,6.1313,6.1553,6.2061,6.272,6.3977,6.5951,6.7148,6.8854,7.1098,7.1487,7.1816,7.2086,7.1278,7.0889,7.0919,7.1188,7.1547,7.1936,7.2924,7.3612,7.4151,7.4659,7.4869,7.4869,7.4869,7.4869,7.4869,7.4869,7.4869,7.4869,7.2265,7.4061,7.5766,7.7352,8.1302,8.4354,8.4654,8.8125,9.0818,9.1027,9.1596,9.1716,9.1117,9.1446,9.1476,9.0878,9.0758,9.0489,8.989,8.9741,8.8813,8.6868,8.5462,8.3487,8.0853,7.7472,7.3552,6.9093,6.6849,6.3558,5.9398,5.9787,6.0057,6.0266,6.2151,6.3857,6.5473,6.7956,7.0141,7.2146,7.4151,7.4958,7.4958,7.4958,7.4929,7.4869,7.4869,7.4869,7.4988,7.5677,7.5497,7.5318,7.7203,7.7352,7.7083,7.84,7.8789,7.8789,7.8789,7.8789,7.8609,7.7891,7.7263,7.6664,7.6036,7.5377,7.4899,7.4958,7.439,7.3462,7.2056,7.056,6.8794,6.655,6.643,6.5802,6.3498,6.4635,6.5024,6.3109,6.3378,0.0,6.2032,6.1972,6.2002,6.2002,6.2002,6.2032,6.2091,6.272,6.3977,6.5951,6.67,6.8585,7.1757,7.1278,7.1607,7.2804,7.1517,7.0889,7.0949,7.2176,7.2415,7.1996,7.3881,7.4719,7.4779,7.4839,7.4869,7.4869,7.4869,7.4869,7.4869,7.4869,7.4869,7.4869,7.7412,7.7652,7.8669,8.1961,8.3427,8.5073,8.7856,8.9621,9.0728,9.0997,9.1267,9.1327,9.1057,9.1027,9.0908,9.0668,9.0279,8.9771,8.9112,8.8334,8.6988,8.4983,8.3636,8.208,8.0255,7.7382,7.421,7.0769,6.7956,6.4844,6.1463,6.0535,6.0505,6.1343,6.254,6.4246,6.634,6.8615,7.047,7.2086,7.451,7.5258,7.4929,7.5347,7.5228,7.4869,7.4869,7.5138,7.5527,7.5826,7.5707,7.5766,7.7322,7.7622,7.7592,7.8519,7.8789,7.8789,7.8789,7.8789,7.8639,7.7981,7.7322,7.6664,7.6036,7.5377,7.4869,7.4869,7.4659,7.433,7.3791,7.2295,7.1038,7.0799,6.9303,6.7837,6.6789,6.6281,6.5413,6.3827,6.3169,6.266,6.2151,6.2091,6.2091,6.2091,6.2091,6.2271,6.266,6.2929,6.3977,6.5951,6.664,6.8555,7.1846,7.1248,7.1577,7.2894,7.1547,7.0889,7.0949,7.1876,7.2595,7.3163,7.436,7.4869,7.4869,7.4869,7.4869,7.4869,7.4869,7.4869,7.4869,7.4869,7.4869,7.4869,8.1332,8.0883,8.1631,8.609,8.609,8.6659,9.01,9.0638,9.0638,9.0638,9.0489,9.0369,9.0369,9.0369,9.0279,9.007,8.9471,8.8813,8.8155,8.7018,8.5611,8.3816,8.2469,8.1242,8.0135,7.7711,7.5168,7.2505,6.9782,6.6789,6.3617,6.2211,6.2151,6.3288,6.4336,6.6041,6.8256,6.9842,7.1398,7.2924,7.4839,7.5318,7.4929,7.5407,7.5288,7.4869,7.4869,7.5198,7.5647,7.6036,7.6185,7.6365,7.7472,7.7801,7.7951,7.8579,7.8938,7.9058,7.8849,7.8938,7.8878,7.8041,7.7472,7.6904,7.6096,7.5527,7.5108,7.4929,7.4869,7.4869,7.4869,7.3552,7.2654,7.3223,7.1188,6.9303,6.8525,6.7178,6.5712,6.4186,6.3199,6.251,6.2121,6.2271,6.2301,6.2121,6.2271,6.26,6.3049,6.3258,6.4156,6.5951,6.6819,6.8764,7.1846,7.1248,7.1577,7.2894,7.1727,7.1188,7.1218,7.2086,7.3103,7.421,7.4659,7.4869,7.4869,7.4869,7.4869,7.4869,7.4869,7.4869,7.4869,7.4869,7.4988,7.5168,8.2918,8.3696,8.4923,8.8933,8.9621,8.983,9.0519,9.0638,9.0638,9.0638,9.007,8.9681,8.9681,8.9681,8.9412,8.8753,8.8095,8.7437,8.6748,8.609,8.5103,8.3786,8.2469,8.1482,8.0794,7.8819,7.6514,7.3881,7.2505,6.9482,6.4994,6.4934,6.5323,6.6041,6.8046,6.9662,7.0889,7.1577,7.3013,7.4839,7.4869,7.4899,7.4869,7.4899,7.4899,7.4869,7.4869,7.4869,7.5078,7.6365,7.6814,7.6933,7.7592,7.7801,7.7951,7.8579,7.9267,7.9656,7.8968,7.9297,7.9477,7.813,7.7801,7.7472,7.6185,7.5886,7.5707,7.5018,7.4869,7.4869,7.4869,7.433,7.3432,7.2116,7.1338,6.9961,6.7388,6.6999,6.6221,6.4246,6.3977,6.3468,6.2211,6.269,6.278,6.2151,6.269,6.3079,6.3079,6.3647,6.4605,6.5951,6.7268,6.9213,7.1846,7.1248,7.1577,7.2894,7.2206,7.1876,7.1906,7.3253,7.424,7.4869,7.4869,7.4869,7.4869,7.4869,7.4869,7.4869,7.4869,7.4869,7.4869,7.4869,7.5318,7.5886,8.4833,8.5821,8.6838,8.8095,8.8693,8.9052,8.9292,8.9292,8.9292,8.9292,8.9112,8.8813,8.8394,8.8723,8.8723,8.8065,8.7407,8.6539,8.5402,8.4295,8.3098,8.1781,8.0913,8.0135,7.9447,7.837,7.6754,7.4569,7.3223,7.0679,6.7059,6.7508,6.7837,6.8136,7.0081,7.1457,7.2355,7.3462,7.43,7.4929,7.5377,7.5288,7.4929,7.5407,7.5288,7.4929,7.5407,7.5856,7.6275,7.6694,7.7442,7.813,7.7891,7.81,7.8519,7.8729,7.9267,7.9656,7.8968,7.9297,7.9597,7.8699,7.813,7.7592,7.6724,7.5826,7.5138,7.4929,7.4869,7.4869,7.4869,7.433,7.3762,7.3313,7.1936,7.047,6.9213,6.7478,6.5922,6.4814,6.4276,6.3827,6.3438,6.3588,6.3617,6.3408,6.3199,6.3079,6.3079,6.3647,6.4605,6.5951,6.7298,6.9243,7.1846,7.1667,7.2235,7.3582,7.2894,7.2834,7.3283,7.3702,7.424,7.4869,7.4869,7.4869,7.4869,7.4869,7.4869,7.4869,7.4869,7.5168,7.5527,7.5048,7.5587,7.6485,8.4893,8.603,8.7018,8.7287,8.7646,8.8095,8.8604,8.8245,8.8035,8.8274,8.8095,8.7676,8.7018,8.7317,8.7407,8.6988,8.6329,8.5492,8.4414,8.3128,8.202,8.1212,8.0285,7.9627,7.9178,7.8519,7.7322,7.5617,7.3552,7.1607,6.9842,6.9991,7.05,7.1248,7.2475,7.3402,7.4091,7.4629,7.4869,7.4929,7.5617,7.5647,7.5347,7.6006,7.5826,7.5347,7.6006,7.6365,7.6544,7.7023,7.7741,7.84,7.822,7.846,7.8789,7.8789,7.9447,7.9986,7.9058,7.9477,7.9956,7.9028,7.8489,7.7951,7.7023,7.5826,7.4869,7.4869,7.4869,7.4869,7.4869,7.454,7.427,7.427,7.2385,7.0769,7.038,6.7627,6.5592,6.5413,6.4575,6.4186,6.4695,6.4545,6.4395,6.4395,6.4246,6.4066,6.3827,6.4425,6.5383,6.67,6.8256,7.0111,7.2235,7.2265,7.2804,7.3881,7.3492,7.3642,7.427,7.427,7.448,7.4869,7.4869,7.4869,7.4869,7.4869,7.4869,7.4869,7.4869,7.5288,7.5826,7.5138,7.5856,7.7113,8.3547,8.4714,8.5821,8.6479,8.6599,8.7018,8.8274,8.7377,8.6778,8.7407,8.6928,8.6299,8.5701,8.5611,8.5611,8.5551,8.4983,8.4354,8.3696,8.2439,8.1721,8.1721,8.0464,7.9746,7.9746,7.9118,7.813,7.6814,7.3642,7.2415,7.3043,7.2385,7.3103,7.4958,7.4958,7.5318,7.5916,7.5228,7.4958,7.4988,7.5587,7.5856,7.5976,7.6544,7.6425,7.6066,7.6664,7.6485,7.6155,7.7442,7.7861,7.7921,7.8579,7.8789,7.8789,7.8789,7.9716,8.0434,7.9148,7.9746,8.0434,7.9118,7.8729,7.834,7.7113,7.5826,7.4869,7.4869,7.4869,7.4869,7.4869,7.4839,7.4779,7.4689,7.2505,7.0799,7.0709,6.7478,6.5323,6.5951,6.4934,6.4695,6.5951,6.5562,6.5203,6.5173,6.5682,6.5772,6.5203,6.5772,6.6729,6.8016,6.9901,7.1547,7.2894,7.2954,7.3313,7.3971,7.3971,7.43,7.4869,7.4869,7.4869,7.4869,7.4869,7.4869,7.4869,7.4869,7.4869,7.4869,7.4869,7.5288,7.5826,7.5198,7.6155,7.7711,8.2858,8.4055,8.5162,8.5821,8.594,8.603,8.6359,8.5701,8.5222,8.5402,8.5282,8.5103,8.4953,8.4953,8.4743,8.4235,8.4055,8.3696,8.3038,8.1751,8.1033,8.1033,7.9746,7.9028,7.9028,7.8878,7.813,7.6814,7.5048,7.424,7.442,7.424,7.4719,7.5647,7.5647,7.6006,7.6574,7.5946,7.5647,7.5617,7.5258,7.5437,7.5916,7.6066,7.6335,7.6694,7.7352,7.7173,7.6814,7.813,7.822,7.7921,7.8579,7.8789,7.8789,7.8789,7.9387,7.9866,7.9028,7.9417,7.9836,7.8998,7.8041,7.7203,7.6904,7.5826,7.4869,7.4869,7.4869,7.4869,7.4869,7.448,7.3791,7.2774,7.1248,6.9842,6.8794,6.6999,6.5832,6.5981,6.6161,6.64,6.6729,6.7059,6.7059,6.658,6.6191,6.6161,6.652,6.7148,6.7897,6.8734,7.0141,7.1547,7.2894,7.3402,7.4001,7.4629,7.4629,7.4719,7.4869,7.4869,7.4869,7.4869,7.4869,7.4869,7.4869,7.4869,7.4869,7.4869,7.4869,7.5288,7.5886,7.5707,7.6574,7.7801,8.211,8.3128,8.4025,8.4684,8.4803,8.4893,8.5192,8.4444,8.3936,8.4235,8.4265,8.4145,8.3846,8.4085,8.3995,8.3337,8.3277,8.3008,8.235,8.1093,8.0345,8.0345,7.9357,7.8639,7.834,7.834,7.7711,7.6395,7.5377,7.4869,7.4869,7.4869,7.5377,7.6305,7.6036,7.6245,7.6784,7.6185,7.5707,7.5437,7.5377,7.5736,7.6365,7.6664,7.6993,7.7352,7.8011,7.7831,7.7442,7.846,7.8549,7.837,7.9058,7.9267,7.9327,7.9627,7.9746,7.9746,7.9357,7.9746,8.0016,7.9028,7.7801,7.6754,7.6485,7.5856,7.5347,7.5347,7.5347,7.5347,7.5347,7.4809,7.3911,7.2565,7.1248,6.9931,6.8615,6.7029,6.6221,6.6819,6.6939,6.7358,6.8256,6.8405,6.8286,6.7926,6.7867,6.7837,6.7897,6.9093,6.9782,6.9871,7.1128,7.2325,7.3343,7.4001,7.451,7.4869,7.4869,7.4869,7.4869,7.4869,7.4869,7.4869,7.4869,7.4869,7.4869,7.4869,7.4869,7.4869,7.4869,7.5467,7.6245,7.5647,7.6425,7.7771,8.1242,8.202,8.2679,8.3337,8.3517,8.3726,8.4205,8.3337,8.2769,8.3247,8.3367,8.3217,8.2679,8.3098,8.3217,8.2649,8.2439,8.217,8.1811,8.0554,7.9776,7.9656,7.8998,7.834,7.7682,7.7562,7.6993,7.5916,7.5228,7.4869,7.4869,7.4869,7.5587,7.6814,7.6185,7.6305,7.6933,7.6215,7.5557,7.5078,7.5557,7.6185,7.6874,7.7442,7.7771,7.8041,7.8699,7.846,7.7921,7.8699,7.8819,7.8789,7.9567,7.9746,7.9806,8.0464,8.0165,7.9716,7.9926,8.0285,8.0345,7.8968,7.7801,7.6814,7.6185,7.6036,7.6036,7.6036,7.6036,7.6006,7.5916,7.5347,7.436,7.2744,7.1427,7.0081,6.8615,6.7119,6.658,6.7687,6.7597,6.8136,6.9931,6.9692,6.9393,6.9303,6.9812,6.9842,6.9183,7.0799,7.1577,7.1218,7.2415,7.3373,7.4031,7.4599,7.4869,7.4869,7.4869,7.4869,7.4869,7.4869,7.4869,7.4869,7.4869,7.4869,7.4869,7.4869,7.4869,7.4899,7.4988,7.5707,7.6574,7.5557,7.6215,7.7592,7.9986,8.0644,8.1302,8.1961,8.2529,8.2769,8.229,8.205,8.1781,8.1302,8.1721,8.205,8.1931,8.202,8.205,8.1931,8.0913,8.0704,8.1721,8.0554,7.9567,7.8968,7.831,7.7652,7.6993,7.6485,7.6096,7.5916,7.5228,7.4869,7.4869,7.4869,7.5587,7.6814,7.6185,7.6544,7.7592,7.6395,7.5856,7.5707,7.5228,7.5766,7.6844,7.6933,7.7682,7.8729,7.9417,7.8849,7.8011,7.9238,7.8908,7.819,7.9417,7.9417,7.9088,7.9776,7.9477,7.9208,8.0345,8.0315,7.9656,7.831,7.7801,7.7502,7.6844,7.6694,7.6694,7.6694,7.6694,7.6514,7.6006,7.5347,7.3911,7.0919,6.9782,6.8435,6.5981,6.634,6.6909,6.7119,6.8555,6.9842,7.0679,7.1158,7.1218,7.0649,7.0709,7.05,6.9871,7.062,7.1547,7.2565,7.3343,7.4061,7.4719,7.4839,7.4869,7.4869,7.4869,7.4869,7.4869,7.4869,7.4869,7.4869,7.4869,7.4869,7.4869,7.4869,7.4869,7.4929,7.5527,7.5886,7.6096,7.6395,7.6724,7.7053,7.9118,7.9806,8.0464,8.1123,8.1512,8.1601,8.1302,8.1242,8.1153,8.0823,8.1362,8.1781,8.1781,8.211,8.217,8.1811,8.0883,8.0464,8.0704,7.9806,7.9118,7.8789,7.816,7.7352,7.6365,7.5677,7.5347,7.5347,7.5018,7.4869,7.4869,7.4869,7.5407,7.6305,7.6036,7.6245,7.6754,7.6155,7.5677,7.5318,7.4988,7.5647,7.6814,7.6814,7.7652,7.8878,7.9567,7.9417,7.9028,8.0016,7.9686,7.9118,8.0464,8.0405,8.0016,8.0674,8.0405,7.9926,8.0195,8.0315,8.0016,7.8669,7.8071,7.7622,7.6963,7.7113,7.7352,7.7352,7.7352,7.7173,7.6514,7.5557,7.4151,7.1936,7.041,6.8974,6.7388,6.7358,6.7777,6.8525,6.9722,7.0889,7.1876,7.2265,7.2325,7.1996,7.1996,7.1876,7.1577,7.2176,7.2804,7.3432,7.4091,7.4569,7.4869,7.4869,7.4869,7.4869,7.4869,7.4869,7.4869,7.4869,7.4869,7.4869,7.4869,7.4869,7.4869,7.4869,7.4869,7.4899,7.5228,7.5587,7.5886,7.5796,7.6006,7.6425,7.843,7.8998,7.9567,8.0225,8.0464,8.0524,8.0375,8.0464,8.0524,8.0345,8.0913,8.1332,8.1332,8.1781,8.1871,8.1362,8.0704,8.0135,7.9627,7.8938,7.8489,7.834,7.7562,7.6664,7.5677,7.5138,7.4869,7.4869,7.4869,7.4869,7.4869,7.4869,7.5258,7.5886,7.5736,7.5766,7.5886,7.5736,7.5347,7.4869,7.4869,7.5647,7.6814,7.6814,7.7652,7.8908,7.9746,7.9836,7.9716,8.0704,8.0494,8.0045,8.1362,8.1452,8.1123,8.1631,8.1422,8.0853,8.0045,8.0285,8.0434,7.8938,7.831,7.7861,7.7203,7.7562,7.8041,7.8041,7.8041,7.7801,7.6963,7.5886,7.448,7.2535,7.0949,6.9632,6.8675,6.8465,6.8884,7.0051,7.0889,7.1846,7.3043,7.3133,7.3133,7.3133,7.3133,7.3073,7.2924,7.3552,7.3971,7.4121,7.4599,7.4869,7.4869,7.4869,7.4869,7.4869,7.4869,7.4869,7.4869,7.4869,7.4869,7.4869,7.4869,7.4869,7.4869,7.4869,7.4869,7.4899,7.5048,7.5527,7.6066,7.5527,7.5766,7.6425,7.7741,7.7921,7.816,7.8819,7.9477,7.9686,7.9028,7.9477,7.9656,7.9028,7.9537,7.9956,7.9956,8.0016,8.0016,7.9956,7.9327,7.8908,7.8878,7.825,7.7622,7.6993,7.5766,7.5048,7.4958,7.4899,7.4869,7.4869,7.4869,7.4869,7.4869,7.4869,7.5258,7.5886,7.5228,7.5318,7.5856,7.5228,7.4929,7.4869,7.4869,7.5647,7.6814,7.6814,7.7652,7.8968,8.0255,7.9926,7.9148,8.1063,8.0853,8.0045,8.1362,8.1751,8.1721,8.1781,8.1751,8.1422,8.0165,8.0285,8.0345,7.837,7.831,7.8549,7.7891,7.825,7.8729,7.8729,7.8729,7.834,7.7053,7.6275,7.4599,7.0799,7.0051,6.9273,6.7418,6.8704,7.0081,7.0769,7.1966,7.3043,7.3762,7.3821,7.3821,7.3821,7.3821,7.3552,7.2954,7.3552,7.418,7.4779,7.4839,7.4869,7.4869,7.4869,7.4869,7.4869,7.4869,7.4869,7.4869,7.4869,7.4869,7.4869,7.4869,7.4869,7.4869,7.4869,7.4869,7.4929,7.5587,7.6215,7.6754,7.6694,7.7113,7.7682,7.6574,7.6933,7.7293,7.7532,7.813,7.8489,7.822,7.8759,7.9088,7.8819,7.9387,7.9806,7.9806,8.0195,8.0255,7.9866,7.9567,7.9088,7.822,7.7951,7.7352,7.6305,7.5766,7.5318,7.4899,7.4869,7.4869,7.4869,7.4869,7.4869,7.4869,7.4869,7.5018,7.5258,7.4988,7.5018,7.5258,7.4988,7.4869,7.4869,7.4869,7.5647,7.6814,7.6814,7.7652,7.8968,8.0315,8.0464,8.0285,8.1871,8.1781,8.1183,8.211,8.238,8.2469,8.2858,8.2409,8.1572,8.0674,8.0614,8.0524,7.9357,7.8938,7.8938,7.9537,7.9208,7.8908,7.9327,7.9088,7.8519,7.7592,7.6604,7.5407,7.3911,7.2235,7.1038,7.0709,7.0949,7.1398,7.2086,7.2954,7.3791,7.445,7.451,7.451,7.451,7.451,7.439,7.4151,7.436,7.4629,7.4869,7.4869,7.4869,7.4869,7.4869,7.4869,7.4869,7.4869,7.4869,7.4869,7.4869,7.4869,7.4869,7.4869,7.4869,7.4869,7.4869,7.4869,7.4958,7.5647,7.6036,7.6305,7.6694,7.6993,7.7263,7.5856,7.6245,7.6604,7.6784,7.7203,7.7502,7.7502,7.8071,7.8489,7.8489,7.9088,7.9507,7.9507,7.9896,7.9986,7.9537,7.9507,7.9028,7.7891,7.7442,7.6814,7.5946,7.5707,7.5347,7.4899,7.4869,7.4869,7.4869,7.4869,7.4869,7.4869,7.4869,7.4869,7.4869,7.4869,7.4869,7.4869,7.4869,7.4869,7.4869,7.4869,7.5647,7.6814,7.6814,7.7652,7.8968,8.0315,8.0794,8.1033,8.2559,8.2769,8.2499,8.3158,8.3367,8.3517,8.4145,8.3277,8.1931,8.1302,8.0823,8.0375,7.9926,7.9627,7.9597,8.0315,7.9776,7.9178,7.9447,7.9118,7.8579,7.7921,7.7083,7.6245,7.5407,7.3881,7.2834,7.2894,7.2684,7.2774,7.3462,7.3941,7.439,7.4839,7.4869,7.4869,7.4869,7.4869,7.4869,7.4869,7.4869,7.4869,7.4869,7.4869,7.4869,7.4869,7.4869,7.4869,7.4869,7.5078,7.5198,7.5198,7.5198,7.5198,7.5198,7.4958,7.4869,7.4869,7.4869,7.4988,7.5258,7.5707,7.6155,7.6544,7.6993,7.7263,7.7502,7.5766,7.5886,7.6096,7.6694,7.6814,7.6814,7.6814,7.7382,7.7801,7.7801,7.837,7.8789,7.8789,7.8789,7.8789,7.8789,7.8789,7.8519,7.7861,7.6604,7.5886,7.5886,7.5228,7.4869,7.4869,7.4869,7.4869,7.4869,7.4869,7.4869,7.4869,7.4869,7.4869,7.4869,7.4869,7.4869,7.4869,7.4869,7.4869,7.4869,7.4899,7.5677,7.6814,7.6844,7.7652,7.8968,8.0315,8.0794,8.1093,8.3068,8.3726,8.3846,8.4504,8.4714,8.4863,8.5521,8.4295,8.2619,8.1961,8.0823,7.9806,7.9836,8.0315,8.0614,7.9986,7.9806,7.9627,7.8938,7.8789,7.8579,7.7921,7.7801,7.6963,7.436,7.448,7.442,7.3133,7.3492,7.4151,7.4809,7.4869,7.4869,7.4869,7.4869,7.4869,7.4869,7.4869,7.4869,7.4869,7.4869,7.4869,7.4869,7.4869,7.4869,7.4869,7.4869,7.4869,7.4899,7.5587,7.5916,7.5916,7.5916,7.5916,7.5856,7.5198,7.4869,7.4869,7.4899,7.5288,7.5916,7.5916,7.6694,7.7801,7.7801,7.822,7.8789,7.5138,7.5198,7.5258,7.5437,7.5856,7.6185,7.6185,7.7113,7.7801,7.7801,7.837,7.8609,7.816,7.8519,7.8609,7.813,7.8519,7.831,7.7203,7.5916,7.5198,7.5198,7.4988,7.4869,7.4869,7.4869,7.4869,7.4869,7.4869,7.4869,7.4869,7.4869,7.4869,7.4869,7.4869,7.4869,7.4869,7.4869,7.4869,7.4929,7.5407,7.6096,7.6874,7.7352,7.8041,7.8968,8.0315,8.1093,8.1661,8.2709,8.3666,8.4534,8.5192,8.5402,8.5521,8.618,8.4654,8.2709,8.2529,8.1183,7.9926,8.0405,7.9956,7.9716,8.0913,8.0105,7.9178,7.9447,7.9118,7.8729,7.8519,7.813,7.7562,7.6754,7.6066,7.5467,7.5078,7.4779,7.4659,7.4869,7.4869,7.4869,7.4869,7.4869,7.4869,7.4869,7.4869,7.4869,7.4869,7.4869,7.4869,7.4869,7.4869,7.4869,7.4869,7.4869,7.4869,7.4899,7.5587,7.5916,7.5916,7.6365,7.6305,7.5886,7.5677,7.5318,7.4929,7.5407,7.5707,7.6006,7.6904,7.7472,7.7861,7.834,7.8609,7.8789,7.4869,7.4869,7.4869,7.4869,7.5228,7.5497,7.5497,7.6395,7.7053,7.7053,7.7622,7.7861,7.7472,7.7771,7.7861,7.7442,7.7562,7.7322,7.6514,7.5467,7.4869,7.4869,7.4869,7.4869,7.4869,7.4869,7.4869,7.4869,7.4869,7.4869,7.4869,7.4869,7.4869,7.4869,7.4869,7.4869,7.4869,7.4869,7.4869,7.4929,7.5318,7.6036,7.6874,7.7263,7.7981,7.8968,8.0315,8.1212,8.1931,8.2828,8.4025,8.5222,8.5881,8.609,8.615,8.6569,8.5013,8.3098,8.2828,8.1332,7.9926,8.0315,7.9986,7.9896,8.1123,8.0255,7.9238,7.9387,7.9088,7.8789,7.8789,7.846,7.81,7.7861,7.7173,7.6485,7.5976,7.5557,7.5198,7.4899,7.4869,7.4869,7.4869,7.4869,7.4869,7.4869,7.4869,7.4869,7.4869,7.4869,7.4869,7.4869,7.4869,7.4869,7.4869,7.5138,7.5288,7.5288,7.5946,7.6395,7.6664,7.7053,7.7023,7.6634,7.6125,7.5677,7.5318,7.5736,7.6066,7.6335,7.7113,7.7741,7.822,7.834,7.8579,7.8789,7.4869,7.4869,7.4869,7.4869,7.4869,7.4869,7.4869,7.5467,7.5916,7.5916,7.6455,7.6814,7.6754,7.6784,7.6814,7.6754,7.6245,7.5916,7.5976,7.5288,7.4869,7.4869,7.4869,7.4869,7.4869,7.4869,7.4869,7.4869,7.4869,7.4869,7.4869,7.4869,7.4869,7.4869,7.4869,7.4869,7.4869,7.4869,7.4899,7.4958,7.5018,7.5796,7.6933,7.6993,7.7741,7.8968,8.0255,8.1123,8.1901,8.3337,8.4654,8.5821,8.6479,8.6689,8.6689,8.6689,8.5282,8.3606,8.2948,8.1332,7.9836,7.9896,8.0255,8.0644,8.0704,8.0195,7.9537,7.8908,7.8789,7.8789,7.8789,7.8789,7.8579,7.7981,7.7861,7.7412,7.6245,7.5976,7.5677,7.5108,7.4958,7.4899,7.4958,7.4929,7.4929,7.5048,7.4929,7.4929,7.5048,7.4929,7.4899,7.4958,7.4899,7.4899,7.4958,7.5587,7.5916,7.5916,7.6604,7.7233,7.7801,7.7861,7.7861,7.7741,7.6574,7.6036,7.6006,7.6066,7.6365,7.6844,7.6904,7.7652,7.8639,7.8041,7.822,7.8789,7.4869,7.4869,7.4869,7.4869,7.4869,7.4869,7.4869,7.5467,7.5916,7.5916,7.6455,7.6634,7.6155,7.6544,7.6634,7.6155,7.5976,7.6125,7.6604,7.5527,7.4869,7.4869,7.4869,7.4869,7.4869,7.4869,7.4869,7.4869,7.4869,7.4869,7.4869,7.4869,7.4869,7.4869,7.4869,7.4869,7.4869,7.4869,7.5198,7.5707,7.6215,7.6874,7.7652,7.816,7.8549,7.8908,7.9746,8.0464,8.1362,8.3726,8.5043,8.5821,8.6479,8.6689,8.6689,8.6689,8.5282,8.3606,8.2948,8.1332,7.9956,8.0464,7.9896,7.9357,7.9926,7.9507,7.8968,7.8819,7.8789,7.8789,7.8789,7.8789,7.8729,7.8609,7.813,7.7711,7.7442,7.6544,7.6036,7.6365,7.5497,7.5078,7.5617,7.5198,7.5288,7.6335,7.5437,7.5318,7.6335,7.5437,7.5138,7.5677,7.5168,7.5138,7.5677,7.5826,7.5916,7.5916,7.7053,7.7682,7.7831,7.834,7.831,7.7801,7.7502,7.7113,7.6664,7.7173,7.7173,7.6874,7.7382,7.7771,7.8011,7.7861,7.822,7.8789,7.4869,7.4869,7.4869,7.4869,7.4869,7.4869,7.4869,7.5198,7.5407,7.5407,7.5707,7.5766,7.5437,7.5707,7.5766,7.5437,7.5407,7.5557,7.5886,7.5258,7.4869,7.4869,7.4869,7.4869,7.4869,7.4869,7.4869,7.4869,7.4869,7.4869,7.4869,7.4869,7.4869,7.4869,7.4869,7.5048,7.5377,7.5377,7.5736,7.6335,7.6365,7.6963,7.7801,7.7831,7.825,7.8908,7.9926,8.1123,8.2469,8.4145,8.5162,8.5821,8.6479,8.6689,8.6689,8.6689,8.5492,8.4055,8.3397,8.1781,8.0285,8.0315,7.9567,7.9058,8.0045,7.9776,7.9297,7.9297,7.9297,7.9297,7.9297,7.8998,7.8789,7.8789,7.8489,7.816,7.7861,7.7233,7.6814,7.6814,7.6215,7.5946,7.6305,7.6006,7.6096,7.6784,7.6185,7.6096,7.6784,7.6185,7.5826,7.5916,7.5557,7.5557,7.5916,7.6185,7.6514,7.6814,7.7502,7.7981,7.828,7.8639,7.8609,7.825,7.7951,7.7622,7.7293,7.7322,7.7143,7.6844,7.6874,7.7083,7.7322,7.7023,7.7502,7.837,7.4869,7.4869,7.4869,7.4869,7.4869,7.4869,7.4869,7.4869,7.4869,7.4869,7.4869,7.4869,7.4869,7.4869,7.4929,7.5048,7.4958,7.4929,7.5048,7.4929,7.4869,7.4869,7.4869,7.4869,7.4869,7.4869,7.4869,7.4869,7.4869,7.4869,7.4869,7.4869,7.4869,7.4869,7.4988,7.5377,7.5916,7.5916,7.6335,7.6933,7.6185,7.6724,7.7921,7.7263,7.7741,7.8938,8.0045,8.1721,8.3487,8.4145,8.4893,8.5671,8.6419,8.6689,8.6689,8.6689,8.5821,8.4714,8.3936,8.238,8.0823,8.0285,7.9656,7.9447,8.0674,8.0375,7.9866,7.9956,7.9986,7.9956,7.9836,7.9357,7.8938,7.8819,7.8789,7.8609,7.8041,7.7891,7.7652,7.7203,7.7053,7.6993,7.6993,7.6904,7.6933,7.7143,7.6963,7.6933,7.7143,7.6933,7.6634,7.6245,7.6125,7.6125,7.6215,7.6724,7.7322,7.7981,7.7981,7.825,7.8789,7.8789,7.8789,7.8759,7.822,7.7981,7.7921,7.7263,7.6933,7.6754,7.6155,7.6215,7.6634,7.6335,7.6963,7.8041,7.4869,7.4869,7.4869,7.4869,7.4869,7.4869,7.4869,7.4869,7.4869,7.4869,7.4869,7.4869,7.4869,7.4869,7.5108,7.5707,7.5228,7.5138,7.5736,7.5198,7.4869,7.4869,7.4869,7.4869,7.4869,7.4869,7.4869,7.4869,7.4869,7.4869,7.4869,7.4869,7.4869,7.4899,7.5497,7.5826,7.5916,7.5916,7.6604,7.7562,7.6395,7.7023,7.8579,7.7921,7.813,7.8819,7.8998,8.0345,8.214,8.2798,8.3846,8.5043,8.6299,8.6689,8.6689,8.6689,8.615,8.5282,8.4055,8.2709,8.1631,8.1542,8.1033,8.0734,8.1482,8.0704,7.9986,8.0554,8.0674,8.0494,7.9926,7.9746,7.9477,7.8878,7.8789,7.8759,7.8669,7.816,7.7981,7.846,7.8011,7.7682,7.7682,7.7173,7.7293,7.843,7.7472,7.7322,7.846,7.7442,7.7053,7.7532,7.6993,7.6963,7.7562,7.7622,7.8011,7.8639,7.8639,7.8699,7.8789,7.8789,7.8789,7.8789,7.8699,7.8639,7.8609,7.7951,7.7352,7.6754,7.6155,7.5946,7.6155,7.7173,7.8011,7.8669,7.4869,7.4869,7.4869,7.4869,7.4869,7.4869,7.4869,7.4869,7.4869,7.4869,7.4869,7.4869,7.4869,7.4869,7.4988,7.5318,7.5048,7.5018,7.5318,7.5048,7.4869,7.4869,7.4869,7.4869,7.4869,7.4869,7.4869,7.4869,7.4869,7.4869,7.4869,7.4869,7.4869,7.4899,7.5198,7.5736,7.6425,7.6425,7.7173,7.828,7.7352,7.7711,7.8729,7.8071,7.822,7.8849,7.9238,8.0644,8.238,8.2649,8.3876,8.5372,8.594,8.6389,8.6689,8.6689,8.594,8.5013,8.4444,8.3068,8.1781,8.1781,8.1302,8.0973,8.1631,8.1332,8.1003,8.1302,8.1362,8.1272,8.0973,8.0315,7.9716,7.9417,7.9028,7.8789,7.8789,7.8549,7.846,7.8759,7.8519,7.837,7.837,7.81,7.816,7.8759,7.825,7.819,7.8759,7.825,7.7891,7.7801,7.7532,7.7502,7.7801,7.7801,7.813,7.8789,7.8789,7.8789,7.8789,7.8789,7.8789,7.8789,7.8789,7.8579,7.819,7.7532,7.6904,7.6245,7.5587,7.5557,7.6066,7.7322,7.7981,7.828]}]]